     2              OBSERVATION DATA    GPS                 RINEX VERSION / TYPE
ASHTORIN USGS 12 - MAY - 93 12:24                           PGM / RUN BY / DATE
                                                            COMMENT
Original Marker Name: maso Mason_1942_USC&GS                COMMENT
Campaign Name: USGS Parkfield                               COMMENT
4-Character Station Name: MASO                              COMMENT
6-Character Antenna Code: ASHL12                            COMMENT
Vertical Measurement Point: BBE                             COMMENT
Vertical Offset to Rinex Ref. Point: 0.0595                 COMMENT
Radial Measurement Point: EGP                               COMMENT
Radial Offset to Rinex Ref. Point: 0.1424                   COMMENT
Antenna Height from Field Measurement: 1.2780 m             COMMENT
Additional Antenna Identification Info.:                    COMMENT
Original Ashtech L1/L2 (700228ABC)                          COMMENT
Original XYZ: -2607901.5900 -4469335.8500 3717603.7000      COMMENT
New XYZ position is based on association with SCEC monument COMMENT
E1F1E6M3+0011. Position of that monument is believed to be  COMMENT
valid to within 1 m horizontally; vertical accuracy         COMMENT
should be no worse than 3-times this value.                 COMMENT
                                                            COMMENT
Revised Rinex header created by UCSD GPS archive for        COMMENT
GSAC on 11-Jul-2000 (2000:193) 00:19:03 GMT                 COMMENT
For assistance contact dagnew@ucsd.edu                      COMMENT
or anderson@python.ucsd.edu                                 COMMENT
                                                            COMMENT
MASON 1942                                                  MARKER NAME
                                                            MARKER NUMBER
GDH US GEOLOGICAL SURVEY                                    OBSERVER / AGENCY
762 ASHTECH L-XII 6M24                                      REC # / TYPE / VERS
745 ASHTECH GEODETIC L                                      ANT # / TYPE
 -2623325.1705 -4463673.9001  3713565.1247                  APPROX POSITION XYZ
        1.2105        0.0000        0.0000                  ANTENNA: DELTA H/E/N
     1     2     0                                          WAVELENGTH FACT L1/2
     4    L1    L2    C1    D1                              # / TYPES OF OBSERV
    30                                                      INTERVAL
  1993     5    10     3     0   30.000000                  TIME OF FIRST OBS
  1993     5    10    13    30    0.000000                  TIME OF LAST OBS
    18                                                      # OF SATELLITES
           1   726   726   726   726                        PRN / # OF OBS
           3   562   562   562   562                        PRN / # OF OBS
          12   189   189   189   189                        PRN / # OF OBS
          14   377   377   377   377                        PRN / # OF OBS
          15   565   565   565   565                        PRN / # OF OBS
          16   226   226   226   226                        PRN / # OF OBS
          17   702   702   702   702                        PRN / # OF OBS
          18   101   101   101   101                        PRN / # OF OBS
          20   235   235   235   235                        PRN / # OF OBS
          21   801   801   801   801                        PRN / # OF OBS
          22   623   623   623   623                        PRN / # OF OBS
          23   750   750   750   750                        PRN / # OF OBS
          24    45    45    45    45                        PRN / # OF OBS
          25   569   569   569   569                        PRN / # OF OBS
          26   430   430   430   430                        PRN / # OF OBS
          28   557   557   557   557                        PRN / # OF OBS
          29   332   332   332   332                        PRN / # OF OBS
                                                            END OF HEADER
 93  5 10  3  0 30.0000000  0  5 20 16 17  3 24                      0.000529230
 -27686979.49018 -11761991.26919  20886034.798        2044.434
 -12507380.59117  -9793088.23218  21594526.811        1388.527
   6387856.63716  -7610097.02416  22484922.515       -1978.693
  -1311967.01217  -8800271.64716  22457737.963       -1424.633
  15380653.93615  11841362.76815  24178411.177        3221.860
 93  5 10  3  1  0.0000000  0  5 20 16 17  3 24                      0.000537020
 -27625377.190 8 -11713989.487 9  20897757.282        2062.351
 -12465445.419 7  -9760411.456 8  21602506.884        1407.118
   6328647.512 6  -7656233.949 6  22473655.272       -1968.641
  -1354672.508 7  -8833548.615 6  22449611.378       -1422.691
  15477304.358 5  11916674.748 5  24196803.256        3221.522
 93  5 10  3  1 30.0000000  0  5 20 16 17  3 24                      0.000544840
 -27563245.778 8 -11665575.391 9  20909580.679        2080.055
 -12422958.983 7  -9727305.133 8  21610591.807        1425.775
   6269726.390 6  -7702146.447 6  22462442.826       -1959.214
  -1397327.247 7  -8866786.054 6  22441494.224       -1420.860
  15573942.508 5  11991977.214 5  24215192.841        3221.446
 93  5 10  3  2  0.0000000  0  5 20 16 17  3 24                      0.000552670
 -27500583.375 8 -11616747.564 9  20921505.125        2097.475
 -12379904.675 7  -9693756.320 8  21618784.705        1444.530
   6211081.173 6  -7747843.940 6  22451282.988       -1950.565
  -1439927.394 7  -8899980.938 6  22433387.669       -1419.366
  15670581.398 5  12067280.241 5  24233583.018        3221.097
 93  5 10  3  2 30.0000000  0  5 20 16 17  3 24                      0.000560500
 -27437392.217 8 -11567507.710 9  20933529.979        2115.139
 -12336284.092 7  -9659766.243 8  21627085.470        1463.462
   6152695.139 6  -7793339.488 6  22440172.523       -1942.089
  -1482472.803 7  -8933133.182 6  22425291.673       -1417.374
  15767215.992 5  12142579.890 5  24251972.437        3220.924
 93  5 10  3  3  0.0000000  0  5 20 16 17  3 24                      0.000568310
 -27373672.620 8 -11517856.084 9  20945655.483        2132.772
 -12292096.153 7  -9625334.087 8  21635494.289        1482.213
   6094550.719 6  -7838646.795 6  22429107.873       -1934.270
  -1524961.937 7  -8966241.581 6  22417206.379       -1415.490
  15863839.104 6  12217870.636 5  24270359.057        3220.597
 93  5 10  3  3 30.0000000  0  5 20 16 17  3 24                      0.000576090
 -27309431.350 8 -11467797.957 9  20957880.742        2150.067
 -12247363.623 7  -9590477.539 8  21644006.855        1499.974
   6036638.251 6  -7883773.348 6  22418087.301       -1926.477
  -1567399.842 7  -8999310.030 7  22409130.551       -1413.794
  15960446.847 5  12293149.385 5  24288743.204        3220.059
 93  5 10  3  4  0.0000000  0  5 20 16 17  3 24                      0.000583880
 -27244665.201 8 -11417330.844 9  20970205.298        2167.540
 -12202100.611 8  -9555207.655 8  21652620.204        1517.490
   5978963.613 6  -7928714.573 6  22407112.312       -1918.567
  -1609780.659 7  -9032334.029 7  22401065.644       -1411.947
  16057045.237 5  12368420.858 5  24307124.849        3219.608
 93  5 10  3  4 30.0000000  0  5 20 16 17  3 24                      0.000591650
 -27179374.866 8 -11366455.271 9  20982629.149        2185.155
 -12156303.775 7  -9519521.803 8  21661335.070        1535.747
   5921539.857 6  -7973460.306 6  22396184.430       -1909.789
  -1652103.073 7  -9065312.513 7  22393012.040       -1409.820
  16153622.925 5  12443676.184 5  24325503.062        3218.991
 93  5 10  3  5  0.0000000  0  5 20 16 17  3 24                      0.000599420
 -27113562.264 8 -11315172.738 9  20995152.740        2202.341
 -12109963.758 7  -9483412.690 8  21670152.994        1553.503
   5864365.911 6  -8018011.385 6  22385304.897       -1901.751
  -1694367.046 7  -9098245.464 7  22384969.449       -1408.044
  16250179.931 5  12518915.406 5  24343877.697        3218.205
 93  5 10  3  5 30.0000000  0  5 20 16 17  3 24                      0.000607180
 -27047230.376 8 -11263485.554 9  21007775.169        2219.787
 -12063086.486 7  -9446884.939 8  21679073.491        1571.728
   5807434.450 6  -8062373.500 6  22374471.116       -1893.741
  -1736572.637 7  -9131132.907 7  22376937.940       -1405.941
  16346721.962 5  12594142.948 5  24362248.463        3218.066
 93  5 10  3  6  0.0000000  0  5 20 16 17  3 24                      0.000614910
 -26980379.642 8 -11211394.085 9  21020496.513        2237.124
 -12015660.875 7  -9409929.895 8  21688098.232        1590.389
   5750734.416 6  -8106555.292 6  22363680.887       -1885.987
  -1778718.425 7  -9163973.757 7  22368917.630       -1403.831
  16443251.582 6  12669360.855 5  24380616.819        3217.466
 93  5 10  3  6 30.0000000  0  5 20 16 17  3 24                      0.000622620
 -26913015.128 8 -11158902.259 9  21033315.599        2254.002
 -11967678.157 7  -9372540.754 8  21697229.071        1608.605
   5694264.511 6  -8150557.761 6  22352935.366       -1878.593
  -1820807.424 7  -9196770.358 7  22360908.206       -1402.128
  16539752.800 6  12744556.607 5  24398981.029        3216.365
 93  5 10  3  7  0.0000000  0  5 20 16 17  3 24                      0.000630300
 -26845139.839 8 -11106012.439 9  21046232.105        2270.935
 -11919150.534 7  -9334727.000 8  21706463.457        1626.479
   5638019.627 6  -8194384.914 6  22342232.656       -1870.917
  -1862839.938 7  -9229522.927 7  22352909.943       -1400.345
  16636236.703 6  12819738.887 5  24417341.563        3215.762
 93  5 10  3  7 30.0000000  0  5 20 16 17  3 24                      0.000637980
 -26776753.227 8 -11052724.176 9  21059245.867        2288.278
 -11870079.384 7  -9296489.733 8  21715801.314        1645.009
   5582024.958 6  -8238017.056 6  22331576.781       -1861.926
  -1904813.207 7  -9262229.343 7  22344922.743       -1398.018
  16732712.377 6  12894914.695 5  24435700.596        3215.938
 93  5 10  3  8  0.0000000  0  5 20 16 17  3 24                      0.000645660
 -26707849.617 8 -10999033.058 9  21072357.579        2305.260
 -11820456.470 7  -9257822.507 8  21725244.476        1663.277
   5526310.796 6  -8281430.648 6  22320974.952       -1852.375
  -1946718.969 7  -9294883.149 7  22336948.402       -1395.917
  16829176.240 5  12970081.395 5  24454056.954        3214.852
 93  5 10  3  8 30.0000000  0  5 20 16 17  3 24                      0.000653350
 -26638438.808 8 -10944946.728 9  21085566.355        2322.117
 -11770288.182 7  -9218730.333 8  21734791.259        1681.264
   5470879.699 6  -8324623.659 6  22310426.985       -1843.043
  -1988564.622 7  -9327490.133 7  22328985.536       -1393.979
  16925604.852 6  13045220.518 5  24472406.886        3213.703
 93  5 10  3  9  0.0000000  0  5 20 16 17  3 24                      0.000661040
 -26568526.673 8 -10890469.744 9  21098870.126        2338.726
 -11719580.732 7  -9179218.014 8  21744440.577        1699.170
   5415735.048 6  -8367593.441 6  22299932.710       -1833.267
  -2030353.667 7  -9360052.981 7  22321033.081       -1392.175
  17021999.637 6  13120333.335 5  24490750.786        3212.498
 93  5 10  3  9 30.0000000  0  5 20 16 17  3 24                      0.000668720
 -26498111.253 8 -10835600.591 9  21112269.750        2355.637
 -11668333.227 7  -9139284.881 8  21754192.525        1717.176
   5360883.331 6  -8410334.993 6  22289494.752       -1823.754
  -2072081.867 7  -9392568.439 7  22313092.367       -1389.943
  17118355.831 5  13195416.093 5  24509086.429        3211.121
 93  5 10  3 10  0.0000000  0  5 20 16 17  3 24                      0.000676400
 -26427192.065 8 -10780338.899 9  21125765.238        2372.324
 -11616550.422 7  -9098934.627 8  21764046.363        1734.926
   5306307.427 6  -8452861.617 6  22279109.475       -1814.642
  -2113746.379 7  -9425034.262 7  22305163.935       -1387.925
  17214665.834 5  13270462.818 5  24527413.098        3209.605
 93  5 10  3 10 30.0000000  0  5 20 16 17  3 24                      0.000684060
 -26355769.641 8 -10724685.068 9  21139356.497        2388.961
 -11564237.712 7  -9058171.481 8  21774001.253        1752.204
   5252004.468 6  -8495175.535 6  22268775.878       -1805.769
  -2155344.658 7  -9457448.479 7  22297248.105       -1385.770
  17310946.582 5  13345486.743 5  24545734.225        3208.883
 93  5 10  3 11  0.0000000  0  5 20 16 17  3 24                      0.000691760
 -26283847.896 8 -10668642.157 9  21153042.545        2405.679
 -11511415.708 7  -9017011.470 8  21784052.904        1769.011
   5197974.376 6  -8537276.839 6  22258494.675       -1796.480
  -2196878.257 7  -9489812.306 7  22289344.257       -1383.508
  17407209.895 5  13420497.085 5  24564052.632        3208.402
 93  5 10  3 11 30.0000000  0  5 20 16 17  3 24                      0.000699470
 -26211428.231 8 -10612211.258 9  21166823.583        2422.141
 -11458096.081 7  -8975463.706 7  21794199.240        1785.491
   5144209.251 6  -8579171.696 6  22248263.220       -1788.002
  -2238345.991 7  -9522124.798 7  22281453.291       -1381.413
  17503448.569 5  13495488.254 5  24582366.331        3207.423
 93  5 10  3 12  0.0000000  0  5 20 16 17  3 24                      0.000707190
 -26138518.457 8 -10555398.454 9  21180697.629        2438.449
 -11404282.456 7  -8933530.996 7  21804439.901        1802.003
   5090700.026 6  -8620867.142 6  22238080.468       -1779.230
  -2279752.919 7  -9554389.896 7  22273573.896       -1379.359
  17599652.447 5  13570452.280 5  24600673.552        3206.099
 93  5 10  3 12 30.0000000  0  5 20 16 17  3 24                      0.000714910
 -26065115.190 8 -10498201.114 9  21194665.499        2455.031
 -11349964.870 7  -8891205.614 7  21814776.096        1819.161
   5037458.877 6  -8662353.692 6  22227948.883       -1770.257
  -2321092.763 7  -9586602.742 7  22265706.873       -1376.938
  17695820.262 5  13645388.237 5  24618973.528        3204.987
 93  5 10  3 13  0.0000000  0  5 20 16 17  3 24                      0.000722620
 -25991218.043 8 -10440618.927 9  21208727.822        2471.536
 -11295124.599 7  -8848472.949 7  21825211.703        1837.032
   4984487.384 7  -8703630.115 6  22217868.919       -1761.064
  -2362362.578 7  -9618761.019 7  22257853.647       -1374.514
  17791943.103 5  13720289.100 5  24637265.196        3203.173
 93  5 10  3 13 30.0000000  0  5 20 16 17  3 24                      0.000730290
 -25916832.698 8 -10382656.330 9  21222883.165        2487.539
 -11239744.406 8  -8805319.558 7  21835750.564        1854.979
   4931783.986 6  -8744697.636 6  22207840.284       -1752.402
  -2403565.547 7  -9650867.211 7  22250013.147       -1372.512
  17888003.775 5  13795141.577 5  24655545.322        3200.904
 93  5 10  3 14  0.0000000  0  5 20 16 17  3 24                      0.000737910
 -25841963.880 8 -10324316.999 9  21237130.131        2503.603
 -11183827.047 7  -8761747.594 7  21846390.929        1872.817
   4879345.850 7  -8785558.435 6  22197861.362       -1743.461
  -2444703.604 7  -9682922.817 7  22242184.934       -1370.355
  17984002.056 5  13869945.386 5  24673812.585        3199.025
 93  5 10  3 14 30.0000000  0  5 20 16 17  3 24                      0.000745510
 -25766612.030 8 -10265601.291 9  21251469.533        2519.830
 -11127369.846 7  -8717754.985 7  21857134.642        1890.903
   4827179.832 7  -8826207.243 6  22187934.613       -1734.443
  -2485774.570 7  -9714926.158 7  22234369.296       -1367.929
  18079957.615 5  13944715.948 5  24692072.181        3198.129
 93  5 10  3 15  0.0000000  0  5 20 16 17  3 24                      0.000753110
 -25690776.964 8 -10206509.039 9  21265900.433        2535.939
 -11070382.539 7  -8673349.282 7  21867978.844        1908.310
   4775278.745 7  -8866649.569 6  22178058.239       -1725.610
  -2526775.078 7  -9746874.568 7  22226567.099       -1365.560
  18175882.786 5  14019462.795 5  24710326.596        3197.092
 93  5 10  3 15 30.0000000  0  5 20 16 17  3 24                      0.000760700
 -25614460.988 8 -10147042.049 9  21280422.532        2551.801
 -11012884.088 7  -8628545.309 7  21878920.279        1924.879
   4723626.544 7  -8906897.988 6  22168229.214       -1717.959
  -2567704.559 7  -9778767.652 7  22218778.521       -1363.304
  18271786.891 5  14094193.253 5  24728576.581        3196.533
 93  5 10  3 16  0.0000000  0  5 20 16 17  3 24                      0.000768290
 -25537669.488 8 -10087204.520 9  21295035.534        2567.575
 -10954890.160 7  -8583355.226 7  21889956.108        1941.407
   4672200.942 7  -8946969.827 6  22158442.610       -1710.425
  -2608565.671 7  -9810607.435 7  22211002.953       -1361.091
  18367681.008 5  14168915.929 5  24746825.021        3196.379
 93  5 10  3 16 30.0000000  0  5 20 16 17  3 24                      0.000775900
 -25460401.201 8 -10026995.491 9  21309739.554        2583.505
 -10896395.070 7  -8537774.643 7  21901087.463        1958.132
   4621005.109 7  -8986862.640 6  22148700.605       -1702.864
  -2649354.560 7  -9842390.967 7  22203241.077       -1358.557
  18463572.429 5  14243636.479 5  24765072.774        3196.067
 93  5 10  3 17  0.0000000  0  5 20 16 17  3 24                      0.000783490
 -25382658.488 8  -9966416.771 9  21324533.771        2599.218
 -10837401.894 7  -8491805.946 7  21912313.572        1974.760
   4570032.524 7  -9026581.497 6  22139000.958       -1695.363
  -2690070.606 7  -9874117.744 7  22195492.872       -1356.172
  18559437.005 5  14318336.081 5  24783314.483        3194.862
 93  5 10  3 17 30.0000000  0  5 20 16 17  3 24                      0.000791070
 -25304445.076 8  -9905471.260 9  21339417.119        2615.001
 -10777904.438 7  -8445444.286 7  21923635.643        1991.640
   4519285.661 7  -9066124.457 6  22129344.454       -1687.615
  -2730714.637 7  -9905788.381 7  22187758.493       -1353.637
  18655271.203 5  14393012.060 5  24801551.474        3193.920
 93  5 10  3 18  0.0000000  0  5 20 16 17  3 24                      0.000798630
 -25225767.766 8  -9844164.284 9  21354388.835        2630.301
 -10717907.473 7  -8398693.406 7  21935052.610        2008.174
   4468784.060 7  -9105476.302 6  22119734.445       -1678.955
  -2771289.985 7  -9937405.504 7  22180037.470       -1351.493
  18751056.628 5  14467650.063 5  24819779.454        3192.001
 93  5 10  3 18 30.0000000  0  5 20 16 17  3 24                      0.000806170
 -25146629.639 8  -9782498.207 9  21369448.130        2645.562
 -10657412.206 7  -8351554.249 7  21946564.469        2024.764
   4418551.139 7  -9144618.780 6  22110175.664       -1669.884
  -2811797.188 8  -9968969.535 7  22172329.026       -1349.234
  18846778.980 5  14542238.888 5  24837995.014        3189.558
 93  5 10  3 19  0.0000000  0  5 20 16 17  3 24                      0.000813680
 -25067032.687 8  -9720474.640 9  21384594.984        2661.033
 -10596420.997 7  -8304028.637 7  21958170.834        2041.336
   4368596.618 7  -9183544.314 6  22100669.368       -1660.172
  -2852235.215 7 -10000479.669 7  22164634.002       -1346.707
  18942434.247 5  14616775.398 5  24856197.130        3187.759
 93  5 10  3 19 30.0000000  0  5 20 16 17  3 24                      0.000821210
 -24986974.310 8  -9658091.492 9  21399829.547        2676.178
 -10534937.471 7  -8256119.405 7  21969870.794        2057.493
   4318938.417 7  -9222238.988 6  22091219.138       -1650.369
  -2892597.996 7 -10031931.163 7  22156953.310       -1344.429
  19038042.281 5  14691275.156 5  24874390.544        3185.982
 93  5 10  3 20  0.0000000  0  5 20 16 17  3 24                      0.000828740
 -24906463.149 8  -9595355.545 9  21415150.171        2691.159
 -10472969.494 7  -8207832.674 7  21981662.983        2073.684
   4269578.434 7  -9260701.254 6  22081825.840       -1640.583
  -2932891.723 7 -10063328.844 7  22149285.487       -1342.161
  19133597.775 5  14765733.920 5  24892573.941        3184.357
 93  5 10  3 20 30.0000000  0  5 20 16 17  3 24                      0.000836290
 -24825499.529 8  -9532267.019 9  21430557.405        2706.431
 -10410508.989 7  -8159162.164 7  21993548.702        2090.351
   4220504.856 7  -9298940.356 6  22072487.464       -1630.993
  -2973113.042 8 -10094670.094 7  22141631.677       -1339.460
  19229111.724 5  14840160.371 5  24910750.110        3183.290
 93  5 10  3 21  0.0000000  0  5 20 16 17  3 24                      0.000843840
 -24744081.681 8  -9468824.559 9  21446050.857        2721.629
 -10347556.547 7  -8110108.306 7  22005528.120        2106.733
   4171706.890 7  -9336964.686 6  22063201.474       -1622.051
  -3013257.166 8 -10125951.191 7  22133992.426       -1336.804
  19324592.091 5  14914560.615 5  24928919.659        3182.180
 93  5 10  3 21 30.0000000  0  5 20 16 17  3 24                      0.000851390
 -24662210.366 8  -9405028.761 9  21461630.424        2736.410
 -10284102.773 7  -8060663.828 7  22017603.051        2123.358
   4123170.757 7  -9374784.996 6  22053965.457       -1613.766
  -3053321.615 7 -10157170.207 7  22126368.524       -1334.450
  19420035.527 5  14988932.072 5  24947081.847        3180.593
 93  5 10  3 22  0.0000000  0  5 20 16 17  3 24                      0.000858910
 -24579896.082 7  -9340887.768 8  21477293.860        2751.270
 -10220152.675 7  -8010832.572 7  22029772.425        2139.985
   4074884.351 7  -9412410.714 6  22044777.138       -1605.299
  -3093313.849 7 -10188332.962 7  22118758.114       -1331.884
  19515427.305 5  15063263.316 5  24965234.370        3178.908
 93  5 10  3 22 30.0000000  0  5 20 16 17  3 24                      0.000866400
 -24497135.225 7  -9276398.814 8  21493042.717        2766.119
 -10155705.683 7  -7960614.144 7  22042036.126        2156.403
   4026852.720 7  -9449837.900 6  22035636.535       -1596.736
  -3133227.319 8 -10219434.338 7  22111162.720       -1329.212
  19610766.907 5  15137553.888 5  24983376.799        3177.125
 93  5 10  3 23  0.0000000  0  4 20 16 17  3                         0.000874110
 -24413933.016 8  -9211565.940 8  21508876.323        2780.845
 -10090769.701 7  -7910014.682 7  22054393.232        2172.737
   3979071.694 7  -9487069.817 6  22026544.138       -1588.433
  -3173063.651 8 -10250475.606 7  22103582.278       -1326.628
 93  5 10  3 23 30.0000000  0  4 20 16 17  3                         0.000881770
 -24330289.307 7  -9146389.048 8  21524792.617        2795.394
 -10025347.935 7  -7859036.702 7  22066842.512        2188.558
   3931548.838 7  -9524100.555 7  22017500.931       -1579.759
  -3212819.732 8 -10281454.332 7  22096016.875       -1323.985
 93  5 10  3 24  0.0000000  0  4 20 16 17  3                         0.000889360
 -24246210.975 7  -9080873.488 8  21540791.959        2809.723
  -9959468.956 7  -7807702.431 7  22079378.734        2203.369
   3884282.902 7  -9560931.101 7  22008506.707       -1571.435
  -3252499.155 7 -10312373.328 7  22088466.024       -1321.580
 93  5 10  3 24 30.0000000  0  4 20 16 17  3                         0.000896770
 -24161695.626 7  -9015017.388 8  21556875.145        2824.366
  -9893136.300 7  -7756014.664 7  22092001.615        2218.491
   3837268.641 7  -9597565.531 7  21999560.221       -1563.131
  -3292096.052 8 -10343228.033 7  22080930.891       -1318.681
 93  5 10  3 25  0.0000000  0  4 20 16 17  3                         0.000903930
 -24076745.642 7  -8948822.614 8  21573040.505        2838.789
  -9826356.239 7  -7703978.254 7  22104709.118        2233.357
   3790498.229 7  -9634009.956 7  21990660.005       -1554.923
  -3331609.648 8 -10374017.823 7  22073411.894       -1315.956
 93  5 10  3 25 30.0000000  0  4 20 16 17  3                         0.000910930
 -23991368.157 7  -8882294.731 8  21589287.277        2853.396
  -9759137.258 7  -7651599.839 7  22117500.704        2248.328
   3743981.558 7  -9670256.650 7  21981807.972       -1545.849
  -3371043.428 8 -10404745.415 7  22065907.978       -1312.898
 93  5 10  3 26  0.0000000  0  4 20 16 17  3                         0.000917860
 -23905555.056 7  -8815427.399 8  21605616.673        2867.549
  -9691466.265 7  -7598869.207 7  22130377.779        2263.317
   3697740.921 7  -9706288.278 7  21973008.623       -1536.746
  -3410386.288 8 -10435402.173 7  22058421.094       -1310.135
 93  5 10  3 26 30.0000000  0  4 20 16 17  3                         0.000924860
 -23819314.869 7  -8748227.264 8  21622027.561        2881.614
  -9623329.025 7  -7545775.261 7  22143343.682        2278.923
   3651779.716 7  -9742102.159 7  21964262.139       -1527.516
  -3449643.154 8 -10465991.895 7  22050950.762       -1307.361
 93  5 10  3 27  0.0000000  0  4 20 16 17  3                         0.000932020
 -23732648.477 7  -8680695.044 8  21638519.865        2895.883
  -9554717.307 7  -7492311.581 7  22156400.074        2295.018
   3606106.522 7  -9777691.595 7  21955570.826       -1517.551
  -3488811.512 8 -10496512.675 7  22043497.306       -1304.257
 93  5 10  3 27 30.0000000  0  4 20 16 17  3                         0.000939420
 -23645560.108 7  -8612833.998 8  21655092.303        2909.848
  -9485627.109 7  -7438475.090 7  22169547.461        2310.905
   3560722.026 7  -9813056.096 7  21946934.355       -1508.410
  -3527892.252 8 -10526965.182 7  22036060.402       -1301.481
 93  5 10  3 28  0.0000000  0  4 20 16 17  3                         0.000946890
 -23558052.481 7  -8544646.257 8  21671744.423        2923.882
  -9416052.432 7  -7384261.055 7  22182787.057        2327.226
   3515599.647 7  -9848216.328 7  21938348.058       -1499.921
  -3566884.254 8 -10557348.522 7  22028640.400       -1298.342
 93  5 10  3 28 30.0000000  0  4 20 16 17  3                         0.000954300
 -23470131.280 7  -8476136.250 8  21688475.840        2937.584
  -9345995.404 7  -7329671.186 7  22196118.793        2343.131
   3470719.896 7  -9883187.522 7  21929807.831       -1492.043
  -3605790.004 8 -10587664.683 8  22021236.944       -1295.558
 93  5 10  3 29  0.0000000  0  4 20 16 17  3                         0.000961580
 -23381795.596 7  -8407303.269 8  21705285.793        2951.444
  -9275460.690 7  -7274709.050 7  22209541.217        2359.261
   3426078.851 7  -9917972.712 7  21921312.982       -1483.969
  -3644604.865 8 -10617910.001 8  22013850.729       -1292.362
 93  5 10  3 29 30.0000000  0  4 20 16 17  3                         0.000968690
 -23293045.477 7  -8338147.355 8  21722174.512        2965.231
  -9204444.507 7  -7219371.769 7  22223054.956        2375.075
   3381676.243 7  -9952572.115 7  21912863.120       -1476.184
  -3683325.193 8 -10648081.666 8  22006482.529       -1289.231
 93  5 10  3 30  0.0000000  0  4 20 16 17  3                         0.000975710
 -23203881.622 7  -8268669.042 8  21739141.535        2978.912
  -9132958.180 7  -7163668.124 7  22236658.553        2390.429
   3337523.044 7  -9986977.148 7  21904461.267       -1467.272
  -3721948.569 8 -10678177.772 8  21999132.657       -1286.030
 93  5 10  3 30 30.0000000  0  4 20 16 17  3                         0.000982810
 -23114307.600 7  -8198871.129 8  21756186.895        2992.499
  -9061014.707 7  -7107608.268 7  22250349.013        2405.537
   3293649.749 7 -10021164.088 7  21896112.208       -1457.916
  -3760474.808 8 -10708198.191 8  21991801.153       -1282.795
 93  5 10  3 31  0.0000000  0  4 20 16 17  3                         0.000990040
 -23024330.961 7  -8128759.471 8  21773308.671        3005.899
  -8988625.789 7  -7051201.308 7  22264124.029        2420.381
   3250056.049 7 -10055133.159 7  21887816.628       -1448.316
  -3798907.947 8 -10738146.068 8  21984487.635       -1279.671
 93  5 10  3 31 30.0000000  0  4 20 16 17  3                         0.000997480
 -22933949.270 7  -8058332.208 8  21790507.466        3019.300
  -8915795.898 7  -6994450.740 7  22277983.133        2434.752
   3206757.586 7 -10088872.182 7  21879577.204       -1438.483
  -3837241.536 8 -10768016.379 8  21977192.986       -1276.339
 93  5 10  3 32  0.0010000  0  4 20 16 17  3                         0.001005100
 -22843167.915 7  -7987593.509 8  21807782.586        3032.692
  -8842536.283 7  -6937365.312 7  22291924.100        2449.251
   3163748.606 7 -10122385.626 7  21871392.531       -1428.600
  -3875481.809 8 -10797813.972 8  21969915.924       -1273.019
 93  5 10  3 32 30.0010000  0  4 20 16 17  3                         0.001012930
 -22751993.699 7  -7916548.681 8  21825132.455        3045.748
  -8768841.876 7  -6879941.081 7  22305947.854        2463.847
   3121026.831 7 -10155675.274 7  21863262.989       -1419.657
  -3913623.097 8 -10827534.435 8  21962657.758       -1269.864
 93  5 10  3 33  0.0010000  0  4 20 16 17  3                         0.001020720
 -22660427.926 7  -7845198.746 8  21842556.973        3058.692
  -8694710.274 7  -6822176.184 7  22320054.320        2478.313
   3078564.200 7 -10188763.003 7  21855182.973       -1411.138
  -3951667.578 8 -10857179.456 8  21955418.269       -1266.614
 93  5 10  3 33 30.0010000  0  5 20 16 17 26  3                      0.001029180
 -22568466.242 7  -7773540.314 8  21860056.669        3071.807
  -8620138.223 7  -6764068.091 7  22334244.864        2492.865
   3036358.018 7 -10221650.901 7  21847151.411       -1402.837
    -11506.14015    -24470.47111  24520761.701       -2092.906
  -3989607.219 8 -10886742.802 8  21948198.728       -1263.153
 93  5 10  3 34  0.0010000  0  5 20 16 17 26  3                      0.001036550
 -22476119.872 7  -7701582.114 8  21877629.971        3084.716
  -8545134.941 7  -6705623.942 7  22348517.592        2507.426
   2994399.863 7 -10254345.521 7  21839167.180       -1394.232
    -74256.917 5    -73367.208 2  24508819.010       -2090.576
  -4027449.441 8 -10916230.223 8  21940997.623       -1259.770
 93  5 10  3 34 30.0010000  0  5 20 16 17 26  3                      0.001043920
 -22383391.171 7  -7629326.009 8  21895275.866        3097.181
  -8469700.766 7  -6646844.052 7  22362872.385        2521.407
   2952691.983 7 -10286845.126 7  21831230.314       -1386.414
   -136944.218 5   -122214.428 3  24496890.725       -2088.615
  -4065192.926 8 -10945640.702 8  21933815.066       -1256.675
 93  5 10  3 35  0.0010000  0  5 20 16 17 26  3                      0.001051210
 -22290282.159 7  -7556773.546 8  21912994.149        3110.035
  -8393841.241 7  -6587732.700 7  22377308.092        2535.758
   2911232.958 7 -10319150.816 7  21823340.527       -1377.463
   -199564.718 5   -171009.554 5  24484973.923       -2086.162
  -4102835.575 8 -10974972.626 8  21926652.195       -1253.135
 93  5 10  3 35 30.0010000  0  5 20 16 17 26  3                      0.001058480
 -22196794.688 7  -7483926.183 7  21930784.274        3122.520
  -8317559.931 7  -6528292.695 7  22391823.805        2549.648
   2870045.885 7 -10351244.610 7  21815502.892       -1368.185
   -262110.339 5   -219746.381 5  24473072.510       -2083.490
  -4140375.604 8 -11004224.568 8  21919508.530       -1249.746
 93  5 10  3 36  0.0010000  0  6 20 16 22 17 26  3                   0.001065870
 -22102928.963 7  -7410784.089 7  21948646.280        3135.086
  -8240862.243 7  -6468528.235 7  22406418.849        2563.362
  -4170067.85015  -3260587.83915  25074761.234       -2525.374
   2829142.536 7 -10383117.312 7  21807719.391       -1358.948
   -324561.561 5   -268409.612 5  24461189.323       -2080.121
  -4177809.259 8 -11033393.625 8  21912385.122       -1246.186
 93  5 10  3 36 30.0010000  0  6 20 16 22 17 26  3                   0.001073140
 -22008690.323 7  -7337351.387 7  21966579.101        3147.581
  -8163756.040 7  -6408445.451 7  22421091.390        2577.012
  -4245707.889 5  -3319528.031 5  25060366.960       -2517.210
   2788504.288 7 -10414783.429 7  21799986.034       -1350.267
   -386910.898 5   -316993.491 5  24449324.674       -2076.426
  -4215138.033 8 -11062480.949 8  21905281.799       -1242.574
 93  5 10  3 37  0.0010000  0  6 20 16 22 17 26  3                   0.001080400
 -21914078.802 7  -7263628.159 7  21984582.800        3159.797
  -8086247.036 7  -6348048.812 7  22435841.050        2590.233
  -4321095.335 5  -3378271.442 5  25046021.102       -2508.699
   2748128.179 7 -10446245.306 7  21792302.576       -1341.462
   -449149.406 5   -365490.969 5  24437481.993       -2072.877
  -4252358.259 8 -11091483.715 8  21898198.872       -1239.097
 93  5 10  3 37 30.0010000  0  6 20 16 22 17 26  3                   0.001087640
 -21819102.256 7  -7189620.468 7  22002656.267        3171.891
  -8008341.709 7  -6287343.317 7  22450665.796        2603.423
  -4396225.582 5  -3436814.425 5  25031724.022       -2499.951
   2708007.562 7 -10477508.086 7  21784668.199       -1333.449
   -511272.497 5   -413898.561 5  24425660.282       -2068.723
  -4289473.871 8 -11120404.948 8  21891135.990       -1235.572
 93  5 10  3 38  0.0010000  0  6 20 16 22 17 26  3                   0.001094890
 -21723760.999 7  -7115328.599 7  22020798.778        3184.194
  -7930029.101 7  -6226320.470 7  22465568.203        2617.606
  -4471086.160 5  -3495147.260 5  25017478.688       -2490.630
   2668126.238 7 -10508584.400 7  21777079.161       -1325.229
   -573262.328 5   -462202.256 5  24413863.996       -2064.042
  -4326481.243 8 -11149241.829 8  21884093.785       -1231.783
 93  5 10  3 38 30.0010000  0  6 20 16 22 17 26  3                   0.001102140
 -21628055.319 7  -7040752.757 7  22039011.239        3196.173
  -7851285.186 7  -6164961.539 7  22480552.499        2632.042
  -4545665.775 5  -3553261.174 5  25003285.957       -2481.211
   2628493.212 7 -10539467.227 7  21769537.432       -1316.940
   -635122.139 5   -510404.637 5  24402091.834       -2059.811
  -4363377.033 8 -11177991.774 8  21877072.637       -1228.202
 93  5 10  3 39  0.0010000  0  6 20 16 22 17 26  3                   0.001109380
 -21531988.882 7  -6965895.805 7  22057292.114        3208.325
  -7772099.482 7  -6103258.362 7  22495620.915        2647.194
  -4619955.553 5  -3611149.209 5  24989148.976       -2471.390
   2589113.893 7 -10570152.375 7  21762043.599       -1308.270
   -696848.674 5   -558503.216 5  24390344.774       -2055.129
  -4400160.423 8 -11206654.123 8  21870073.054       -1224.214
 93  5 10  3 39 30.0010000  0  6 20 16 22 17 26  3                   0.001116630
 -21435563.719 7  -6890759.344 7  22075641.231        3220.075
  -7692461.753 7  -6041202.950 7  22510775.404        2662.009
  -4693959.863 5  -3668814.866 5  24975066.583       -2462.236
   2549989.678 7 -10600638.751 7  21754598.396       -1299.915
   -758430.956 5   -606489.331 5  24378625.887       -2050.351
  -4436829.913 8 -11235227.735 8  21863095.034       -1220.559
 93  5 10  3 40  0.0010000  0  6 20 16 22 17 26  3                   0.001123870
 -21338781.764 7  -6815344.849 7  22094057.903        3231.811
  -7612374.574 7  -5978797.323 7  22526015.706        2676.703
  -4767687.709 5  -3726265.029 5  24961036.972       -2453.201
   2511131.349 7 -10630917.920 7  21747203.273       -1290.793
   -819874.147 5   -654367.076 5  24366933.604       -2046.019
  -4473383.202 8 -11263710.776 8  21856139.161       -1216.755
 93  5 10  3 40 30.0010000  0  6 20 16 22 17 26  3                   0.001131090
 -21241647.038 7  -6739655.469 7  22112542.174        3243.798
  -7531864.241 7  -5916061.969 7  22541336.297        2690.360
  -4841142.242 5  -3783502.283 5  24947059.291       -2443.776
   2472545.708 7 -10660984.614 7  21739860.330       -1281.675
   -881187.844 5   -702143.927 5  24355265.932       -2041.521
  -4509820.270 8 -11292103.287 8  21849205.200       -1212.662
 93  5 10  3 41  0.0010000  0  6 20 16 22 17 26  3                   0.001138300
 -21144156.992 7  -6663689.219 7  22131093.930        3255.544
  -7450962.610 7  -5853021.691 7  22556731.359        2702.980
  -4914313.815 5  -3840519.006 5  24933135.020       -2434.361
   2434229.353 7 -10690841.491 7  21732569.088       -1272.637
   -942364.101 5   -749813.688 5  24343624.227       -2036.875
  -4546134.845 8 -11320400.323 8  21842294.814       -1208.553
 93  5 10  3 41 30.0010000  0  6 20 16 22 17 26  3                   0.001145490
 -21046318.845 7  -6587451.724 7  22149712.282        3267.255
  -7369691.246 7  -5789693.327 7  22572197.064        2715.129
  -4987211.316 5  -3897322.171 5  24919262.585       -2425.070
   2396191.331 7 -10720481.464 7  21725330.397       -1262.873
  -1003403.994 5   -797377.207 5  24332008.496       -2032.329
  -4582329.736 8 -11348604.122 8  21835407.092       -1204.430
 93  5 10  3 42  0.0010000  0  7 20 16 22 23 17 26  3                0.001152700
 -20948135.880 7  -6510945.547 7  22168395.839        3278.470
  -7288064.463 7  -5726088.008 7  22587729.910        2726.791
  -5059821.129 5  -3953901.196 5  24905445.940       -2415.215
   -301416.97615   -227985.90311  24128469.508       -3111.513
   2358448.198 7 -10749891.668 7  21718148.449       -1253.200
  -1064317.426 5   -844842.111 5  24320417.065       -2028.339
  -4618404.344 8 -11376714.180 8  21828542.396       -1200.545
 93  5 10  3 42 30.0010000  0  7 20 16 22 23 17 26  3                0.001159870
 -20849611.356 7  -6434173.203 7  22187144.100        3289.840
  -7206078.610 7  -5662202.891 7  22603331.370        2739.121
  -5132122.304 5  -4010239.677 5  24891687.404       -2404.792
   -394707.352 5   -300681.764 1  24110716.880       -3107.839
   2320992.297 7 -10779078.047 7  21711020.492       -1243.871
  -1125107.295 5   -892210.756 5  24308849.058       -2024.380
  -4654357.724 8 -11404729.772 8  21821700.611       -1196.493
 93  5 10  3 43  0.0010000  0  7 20 16 22 23 17 26  3                0.001167020
 -20750744.738 7  -6357134.286 7  22205957.796        3301.196
  -7123701.911 7  -5598013.230 7  22619007.206        2752.803
  -5204106.087 5  -4066330.911 5  24877990.467       -2394.251
   -487882.464 5   -373284.501 2  24092985.766       -3103.739
   2283816.389 7 -10808046.260 7  21703946.390       -1234.516
  -1185773.525 5   -939483.034 5  24297305.636       -2020.172
  -4690185.290 8 -11432647.321 8  21814882.861       -1192.264
 93  5 10  3 43 30.0010000  0  7 20 16 22 23 17 26  3                0.001174150
 -20651543.562 7  -6279834.701 7  22224835.343        3312.228
  -7040912.053 7  -5533501.607 7  22634761.771        2766.545
  -5275777.413 5  -4122178.618 5  24864350.513       -2383.693
   -580929.245 5   -445788.329 5  24075278.921       -3099.182
   2246922.860 7 -10836794.432 7  21696925.780       -1225.146
  -1246320.326 5   -986662.204 5  24285783.248       -2016.242
  -4725890.326 8 -11460469.406 8  21808088.463       -1188.231
 93  5 10  3 44  0.0010000  0  7 20 16 22 23 17 26  3                0.001181280
 -20552010.513 7  -6202276.513 7  22243775.806        3323.411
  -6957702.814 7  -5468663.214 7  22650595.480        2780.874
  -5347124.186 5  -4177773.434 5  24850774.523       -2372.840
   -673827.762 5   -518176.625 5  24057600.752       -3093.987
   2210295.003 7 -10865335.586 7  21689955.846       -1216.739
  -1306746.600 5  -1033747.458 5  24274284.355       -2011.942
  -4761471.543 8 -11488195.019 8  21801317.542       -1183.978
 93  5 10  3 44 30.0010000  0  7 20 16 22 23 17 26  3                0.001188410
 -20452144.755 7  -6124459.043 7  22262779.668        3334.434
  -6874068.132 7  -5403493.316 7  22666510.914        2794.817
  -5418160.436 5  -4233126.271 5  24837256.838       -2362.937
   -766573.212 5   -590445.695 5  24039951.766       -3088.963
   2173908.564 7 -10893688.615 8  21683031.569       -1208.919
  -1367033.228 5  -1080723.921 5  24262813.005       -2006.962
  -4796924.090 8 -11515820.347 8  21794571.234       -1179.673
 93  5 10  3 45  0.0010000  0  7 20 16 22 23 17 26  3                0.001195520
 -20351948.690 7  -6046384.207 7  22281846.598        3345.477
  -6790025.782 7  -5338005.741 7  22682503.482        2808.032
  -5488897.980 5  -4288246.363 5  24823794.204       -2352.687
   -859167.708 5   -662597.090 5  24022331.760       -3083.802
   2137758.968 7 -10921857.094 8  21676152.653       -1200.754
  -1427158.918 5  -1127574.920 5  24251371.839       -2001.268
  -4832246.284 8 -11543344.103 9  21787849.654       -1175.253
 93  5 10  3 45 30.0010000  0  7 20 16 22 23 17 26  3                0.001202640
 -20251428.159 7  -5968056.549 7  22300975.247        3356.109
  -6705607.658 7  -5272225.362 7  22698567.760        2819.961
  -5559328.745 5  -4343127.409 5  24810391.834       -2342.419
   -951610.133 5   -734630.020 5  24004740.968       -3078.999
   2101855.359 7 -10949833.899 8  21669320.340       -1192.917
  -1487112.165 5  -1174291.589 5  24239962.534       -1995.523
  -4867439.461 8 -11570767.336 8  21781152.761       -1171.024
 93  5 10  3 46  0.0010000  0  7 20 16 22 23 17 26  3                0.001209770
 -20150580.126 7  -5889473.687 7  22320166.419        3366.948
  -6620823.304 7  -5206159.615 6  22714701.428        2832.148
  -5629446.196 5  -4397764.310 5  24797049.578       -2332.243
  -1043903.682 5   -806546.922 5  23987178.011       -3074.039
   2066178.854 7 -10977633.759 8  21662531.652       -1185.587
  -1546878.914 5  -1220862.888 5  24228589.248       -1989.120
  -4902496.349 8 -11598084.369 8  21774481.261       -1166.473
 93  5 10  3 46 30.0010000  0  7 20 16 22 23 17 26  3                0.001216900
 -20049409.808 7  -5810639.673 7  22339418.523        3377.531
  -6535686.111 7  -5139818.905 6  22730902.855        2843.470
  -5699259.029 5  -4452163.866 5  24783765.277       -2321.922
  -1136051.506 5   -878350.288 5  23969642.370       -3069.210
   2030726.938 7 -11005258.564 8  21655784.553       -1178.008
  -1606449.490 5  -1267281.352 5  24217252.624       -1982.626
  -4937417.798 8 -11625295.857 8  21767836.240       -1162.038
 93  5 10  3 47  0.0010000  0  7 20 16 22 23 17 26  3                0.001224030
 -19947931.150 7  -5731565.410 7  22358729.064        3387.783
  -6450210.407 7  -5073214.440 6  22747168.601        2855.048
  -5768755.529 5  -4506316.885 5  24770539.571       -2311.154
  -1228049.759 5   -950037.097 5  23952135.360       -3063.923
   1995503.636 7 -11032705.274 8  21649082.263       -1170.050
  -1665839.774 5  -1313559.334 5  24205950.811       -1976.715
  -4972213.685 8 -11652409.498 9  21761214.474       -1157.828
 93  5 10  3 47 30.0010000  0  7 20 16 22 23 17 26  3                0.001231160
 -19846141.223 7  -5652248.622 7  22378098.706        3398.129
  -6364374.213 7  -5006329.084 6  22763502.215        2867.287
  -5837928.617 5  -4560217.950 5  24757375.745       -2300.529
  -1319876.860 5  -1021590.561 5  23934660.570       -3058.132
   1960525.682 7 -11059960.780 8  21642426.618       -1162.031
  -1725053.498 5  -1359699.766 5  24194682.729       -1970.929
  -5006877.017 8 -11679419.870 9  21754617.832       -1153.381
 93  5 10  3 48  0.0010000  0  7 20 16 22 23 17 26  3                0.001238290
 -19744039.087 7  -5572688.520 7  22397528.213        3408.675
  -6278164.827 7  -4939152.922 6  22779907.287        2879.969
  -5906789.584 5  -4613875.741 5  24744272.247       -2290.092
  -1411526.045 5  -1093005.394 5  23917220.322       -3051.760
   1925797.298 7 -11087021.832 8  21635818.004       -1152.944
  -1784092.273 5  -1405703.844 5  24183447.852       -1964.921
  -5041402.720 8 -11706322.974 9  21748047.700       -1148.551
 93  5 10  3 48 30.0010000  0  7 20 16 22 23 17 26  3                0.001245410
 -19641622.786 7  -5492883.620 7  22417017.500        3419.092
  -6191576.468 7  -4871681.457 6  22796384.642        2892.799
  -5975330.156 5  -4667283.915 5  24731229.245       -2279.096
  -1502987.474 5  -1164273.944 5  23899814.865       -3045.692
   1891356.119 7 -11113859.094 8  21629263.824       -1143.017
  -1842949.258 5  -1451566.309 5  24172247.437       -1958.958
  -5075783.973 8 -11733113.539 8  21741505.409       -1143.717
 93  5 10  3 49  0.0010000  0  7 20 16 22 23 17 26  3                0.001252510
 -19538898.994 7  -5412839.103 7  22436565.298        3429.243
  -6104595.484 7  -4803904.045 6  22812936.322        2906.004
  -6043548.749 5  -4720441.198 5  24718248.441       -2268.752
  -1594278.186 5  -1235409.403 5  23882443.256       -3040.274
   1857222.422 7 -11140456.737 8  21622768.030       -1132.533
  -1901632.511 5  -1497293.394 5  24161079.812       -1953.214
  -5110023.452 8 -11759793.604 9  21734989.830       -1139.040
 93  5 10  3 49 30.0010000  0  7 20 16 22 23 17 26  3                0.001259590
 -19435873.385 7  -5332559.441 7  22456170.727        3439.254
  -6017224.331 7  -4735822.617 6  22829562.772        2918.629
  -6111455.873 6  -4773355.752 5  24705326.041       -2258.280
  -1685412.265 5  -1306422.848 5  23865101.017       -3035.387
   1823398.990 7 -11166812.624 8  21616331.554       -1122.437
  -1960138.485 5  -1542882.360 5  24149947.119       -1947.035
  -5144122.758 8 -11786364.484 9  21728500.782       -1134.292
 93  5 10  3 50  0.0010000  0  7 20 16 22 23 17 26  3                0.001266650
 -19332545.369 7  -5252044.101 7  22475833.695        3449.282
  -5929480.260 7  -4667450.588 6  22846259.621        2930.930
  -6179038.802 6  -4826017.700 5  24692465.422       -2247.075
  -1776394.994 6  -1377318.380 5  23847787.112       -3030.108
   1789877.309 7 -11192933.375 8  21609953.040       -1112.332
  -2018448.840 5  -1588318.866 5  24138850.798       -1940.091
  -5178076.586 8 -11812821.988 9  21722039.575       -1129.431
 93  5 10  3 50 30.0010000  0  7 20 16 22 23 17 26  3                0.001273700
 -19228918.979 7  -5171296.273 7  22495553.154        3459.112
  -5841371.081 7  -4598794.079 6  22863026.408        2943.103
  -6246276.590 6  -4878410.710 5  24679670.210       -2235.305
  -1867221.298 6  -1448091.992 5  23830504.439       -3025.029
   1756650.222 7 -11218824.593 8  21603629.648       -1102.996
  -2076544.567 5  -1633588.188 5  24127796.224       -1932.961
  -5211885.067 8 -11839166.227 9  21715606.418       -1124.602
 93  5 10  3 51  0.0010000  0  7 20 16 22 23 17 26  3                0.001280760
 -19124996.422 7  -5090317.658 7  22515328.513        3469.082
  -5752897.158 7  -4529853.343 6  22879862.773        2955.035
  -6313156.081 6  -4930524.516 5  24666943.171       -2223.227
  -1957890.616 5  -1518743.306 5  23813250.191       -3019.484
   1723694.929 7 -11244504.010 8  21597359.009       -1094.196
  -2134425.600 5  -1678690.174 5  24116782.123       -1925.633
  -5245545.554 8 -11865395.155 9  21709200.963       -1119.549
 93  5 10  3 51 30.0010000  0  7 20 16 22 23 17 26  3                0.001287840
 -19020779.401 7  -5009109.602 7  22535160.133        3478.882
  -5664078.582 7  -4460644.056 6  22896764.171        2966.183
  -6379667.227 6  -4982351.339 5  24654286.892       -2210.743
  -2048392.856 5  -1589264.441 5  23796028.392       -3013.815
   1690981.621 7 -11269994.858 8  21591133.800       -1086.533
  -2192086.404 5  -1723620.583 5  24105809.149       -1918.163
  -5279055.781 8 -11891507.009 9  21702824.398       -1114.519
 93  5 10  3 52  0.0010000  0  7 20 16 22 23 17 26  3                0.001294940
 -18916269.052 7  -4927672.981 7  22555047.597        3488.431
  -5574923.470 7  -4391172.533 6  22913729.674        2977.487
  -6445803.707 6  -5033886.184 5  24641702.043       -2198.257
  -2138718.458 6  -1659647.895 5  23778840.731       -3007.889
   1658503.044 7 -11295302.811 8  21584953.618       -1078.664
  -2249525.476 5  -1768378.183 5  24094878.461       -1911.130
  -5312412.417 8 -11917499.165 9  21696476.602       -1109.484
 93  5 10  3 52 30.0010000  0  7 20 16 22 23 17 26  3                0.001302050
 -18811471.497 7  -4846012.548 7  22574989.979        3497.968
  -5485424.645 7  -4321433.179 6  22930760.852        2989.036
  -6511567.478 6  -5085130.618 5  24629187.230       -2186.030
  -2228869.788 6  -1729895.581 5  23761684.907       -3002.183
   1626261.627 7 -11320425.967 8  21578817.676       -1070.824
  -2306759.056 5  -1812975.682 5  24083987.003       -1904.719
  -5345616.975 8 -11943372.813 9  21690158.166       -1104.360
 93  5 10  3 53  0.0010000  0  7 20 16 22 23 17 26  3                0.001309160
 -18706390.332 7  -4764131.125 7  22594986.157        3507.568
  -5395589.302 7  -4251431.618 6  22947856.352        2999.991
  -6576977.622 6  -5136099.475 5  24616739.936       -2174.388
  -2318847.763 6  -1800008.165 5  23744562.648       -2996.138
   1594251.783 7 -11345368.655 8  21572726.495       -1062.825
  -2363811.947 5  -1857432.353 5  24073130.178       -1898.500
  -5378668.511 8 -11969127.238 9  21683868.539       -1099.086
 93  5 10  3 53 30.0010000  0  7 20 16 22 23 17 26  3                0.001316250
 -18601026.049 7  -4682029.078 6  22615036.147        3516.928
  -5305429.543 7  -4181177.256 6  22965013.012        3010.786
  -6642045.882 6  -5186801.970 5  24604357.188       -2163.417
  -2408641.304 5  -1869977.048 5  23727475.480       -2989.894
   1562485.910 8 -11370121.266 8  21566682.055       -1054.532
  -2420673.541 5  -1901739.978 5  24062310.021       -1892.064
  -5411563.214 8 -11994759.458 9  21677608.683       -1093.882
 93  5 10  3 54  0.0010000  0  7 20 16 22 23 17 26  3                0.001323320
 -18495381.466 7  -4599708.629 6  22635139.589        3526.068
  -5214936.504 7  -4110663.212 6  22982232.813        3022.207
  -6706784.671 6  -5237247.707 5  24592038.225       -2152.478
  -2498242.780 6  -1939796.299 5  23710424.774       -2983.620
   1530985.256 7 -11394667.194 8  21560687.606       -1045.518
  -2477344.627 5  -1945899.110 5  24051525.516       -1885.892
  -5444299.414 8 -12020268.160 9  21671379.236       -1088.705
 93  5 10  3 54 30.0010000  0  7 20 16 22 23 17 26  3                0.001330360
 -18389459.168 7  -4517171.781 6  22655296.472        3535.296
  -5124095.474 7  -4039877.995 6  22999519.379        3033.803
  -6771194.127 6  -5287436.866 5  24579781.791       -2141.491
  -2587650.362 6  -2009464.438 5  23693410.613       -2977.092
   1499758.237 7 -11418999.905 8  21554744.872       -1036.350
  -2533820.268 5  -1989906.015 5  24040778.617       -1879.329
  -5476875.498 8 -12045652.096 9  21665180.247       -1083.300
 93  5 10  3 55  0.0010000  0  7 20 16 22 23 17 26  3                0.001337380
 -18283264.769 6  -4434422.924 6  22675504.985        3544.258
  -5032903.118 7  -3968819.014 6  23016873.181        3045.572
  -6835273.128 6  -5337368.483 5  24567587.643       -2130.431
  -2676866.073 6  -2078983.100 5  23676433.794       -2970.811
   1468808.347 7 -11443116.671 8  21548855.216       -1026.810
  -2590091.729 5  -2033753.800 5  24030070.231       -1872.009
  -5509292.118 8 -12070911.766 9  21659011.607       -1078.071
 93  5 10  3 55 30.0010000  0  7 20 16 22 23 17 26  3                0.001344370
 -18176806.108 7  -4351468.118 6  22695763.536        3553.192
  -4941351.768 7  -3897480.316 6  23034294.769        3058.047
  -6899012.140 6  -5387035.206 5  24555458.190       -2118.523
  -2765897.882 6  -2148358.450 5  23659491.201       -2964.568
   1438152.338 7 -11467004.439 8  21543021.547       -1016.718
  -2646141.811 5  -2077429.083 5  24019404.310       -1864.488
  -5541553.121 8 -12096050.204 9  21652872.799       -1072.652
 93  5 10  3 56  0.0010000  0  7 20 16 22 23 17 26  3                0.001351350
 -18070077.094 7  -4268302.662 6  22716072.659        3561.960
  -4849424.003 7  -3825848.299 6  23051787.681        3070.284
  -6962383.955 6  -5436415.793 5  24543398.458       -2106.134
  -2854741.454 6  -2217587.091 5  23642584.579       -2958.612
   1407800.788 7 -11490654.971 8  21537245.813       -1006.898
  -2701970.195 5  -2120931.580 5  24008780.787       -1857.258
  -5573647.622 8 -12121058.865 9  21646765.457       -1067.296
 93  5 10  3 56 30.0010000  0  7 20 16 22 23 17 26  3                0.001358330
 -17963088.863 7  -4184935.220 6  22736432.198        3570.374
  -4757143.484 6  -3753941.392 6  23069347.946        3081.436
  -7025372.610 6  -5485497.794 5  24531412.027       -2093.269
  -2943418.502 6  -2286685.996 5  23625709.610       -2953.234
   1377734.585 7 -11514083.162 8  21531524.597        -997.629
  -2757569.765 5  -2164255.856 5  23998200.813       -1849.521
  -5605582.321 8 -12145943.039 9  21640688.402       -1062.069
 93  5 10  3 57  0.0010000  0  7 20 16 22 23 17 26  3                0.001365320
 -17855840.019 6  -4101364.685 6  22756841.238        3579.286
  -4664526.371 7  -3681772.198 6  23086972.382        3092.629
  -7087968.091 6  -5534273.436 5  24519499.563       -2079.988
  -3031917.391 6  -2355646.096 5  23608869.280       -2946.761
   1347952.312 7 -11537290.091 8  21525856.520        -988.111
  -2812924.126 5  -2207388.995 5  23987667.502       -1840.846
  -5637351.249 8 -12170698.012 9  21634642.998       -1056.283
 93  5 10  3 57 30.0010000  0  7 20 16 22 23 17 26  3                0.001372310
 -17748334.900 6  -4017594.464 6  22777298.256        3587.724
  -4571595.866 7  -3609358.828 6  23104656.634        3102.716
  -7150178.841 6  -5582749.312 5  24507661.518       -2067.257
  -3120221.740 6  -2424454.591 5  23592065.834       -2940.101
   1318434.918 7 -11560290.629 8  21520239.457        -979.829
  -2868028.098 5  -2250327.065 5  23977181.293       -1832.684
  -5668953.825 8 -12195323.376 9  21628628.992       -1050.754
 93  5 10  3 58  0.0010000  0  7 20 16 22 23 17 26  3                0.001379320
 -17640573.157 6  -3933624.287 6  22797804.518        3596.265
  -4478367.803 6  -3536713.591 6  23122397.190        3112.436
  -7212001.115 6  -5630922.461 5  24495897.952       -2054.422
  -3208320.276 6  -2493102.715 5  23575300.620       -2933.157
   1289157.809 8 -11583103.924 8  21514668.496        -972.123
  -2922871.130 5  -2293061.825 5  23966744.108       -1823.526
  -5700385.717 8 -12219815.735 9  21622647.542       -1044.998
 93  5 10  3 58 30.0010000  0  7 20 16 22 23 17 26  3                0.001386340
 -17532559.117 6  -3849457.507 6  22818359.549        3604.623
  -4384852.253 6  -3463844.344 6  23140192.468        3121.966
  -7273451.450 6  -5678805.801 5  24484204.751       -2042.445
  -3296205.761 6  -2561584.812 5  23558576.019       -2925.706
   1260106.210 8 -11605741.513 8  21509140.083        -964.723
  -2977435.356 5  -2335579.329 5  23956360.517       -1814.314
  -5731646.514 8 -12244174.777 9  21616698.951       -1039.302
 93  5 10  3 59  0.0010000  0  7 20 16 22 23 17 26  3                0.001393360
 -17424294.699 6  -3765095.630 6  22838961.466        3613.260
  -4291053.196 7  -3390754.150 6  23158041.847        3131.600
  -7334552.745 6  -5726417.133 5  24472577.227       -2030.599
  -3383855.365 6  -2629883.110 5  23541896.821       -2917.554
   1231273.209 8 -11628208.754 8  21503653.740        -957.370
  -3031733.916 5  -2377889.828 5  23946028.592       -1805.342
  -5762733.725 8 -12268398.564 9  21610783.425       -1033.154
 93  5 10  3 59 30.0010000  0  7 20 16 22 23 17 26  3                0.001400370
 -17315780.817 6  -3680539.384 6  22859611.230        3621.161
  -4196971.279 6  -3317443.575 6  23175945.175        3140.772
  -7395301.765 5  -5773754.015 5  24461016.742       -2019.067
  -3471278.763 6  -2698005.168 5  23525261.044       -2910.712
   1202651.249 8 -11650511.559 9  21498206.781        -950.556
  -3085778.817 5  -2420002.646 5  23935743.492       -1797.366
  -5793643.716 8 -12292484.245 9  21604901.477       -1027.575
 93  5 10  4  0  0.0010000  0  7 20 16 22 23 17 26  3                0.001407370
 -17207027.242 6  -3595796.335 6  22880306.015        3629.093
  -4102606.181 6  -3243912.344 6  23193902.106        3150.344
  -7455691.026 6  -5820810.555 5  24449526.015       -2006.917
  -3558499.709 6  -2765969.467 5  23508662.652       -2903.934
   1174243.760 8 -11672647.250 9  21492801.303        -943.107
  -3139577.218 5  -2461923.408 5  23925506.187       -1789.234
  -5824381.497 8 -12316435.749 9  21599052.098       -1021.789
 93  5 10  4  0 30.0010000  0  7 20 16 22 23 17 26  3                0.001414350
 -17098037.079 6  -3510868.943 6  22901045.996        3636.842
  -4007942.012 6  -3170148.069 6  23211916.197        3160.620
  -7515717.587 6  -5867584.447 5  24438103.046       -1994.810
  -3645515.402 6  -2833773.811 5  23492103.894       -2897.098
   1146072.958 8 -11694598.506 9  21487440.346        -934.850
  -3193138.056 5  -2503659.030 5  23915313.961       -1781.704
  -5854945.703 8 -12340251.984 9  21593236.015       -1016.070
 93  5 10  4  1  0.0010000  0  7 20 16 22 23 17 26  3                0.001421320
 -16988812.492 6  -3425758.868 6  22921830.808        3644.989
  -3912961.941 6  -3096137.614 6  23229990.385        3171.827
  -7575363.657 6  -5914061.829 5  24426753.143       -1981.387
  -3732320.197 6  -2901413.818 5  23475585.831       -2889.782
   1118159.026 7 -11716349.594 9  21482128.653        -925.763
  -3246469.271 5  -2545215.729 5  23905164.825       -1773.342
  -5885334.097 8 -12363931.243 9  21587453.256       -1009.814
 93  5 10  4  1 30.0010000  0  7 20 16 22 23 17 26  3                0.001428300
 -16879343.312 6  -3340458.219 6  22942661.986        3652.841
  -3817629.289 6  -3021852.429 6  23248131.703        3183.667
  -7634599.458 6  -5960219.594 5  24415481.254       -1967.887
  -3818910.385 6  -2968886.604 5  23459108.368       -2882.851
   1090533.188 8 -11737876.206 9  21476871.580        -915.868
  -3299538.373 5  -2586568.195 5  23895066.072       -1764.629
  -5915531.254 8 -12387461.474 9  21581706.817       -1003.621
 93  5 10  4  2  0.0010000  0  7 20 16 22 23 17 26  3                0.001435280
 -16769640.426 6  -3254975.455 6  22963537.872        3660.539
  -3721939.055 6  -2947288.613 6  23266341.529        3195.443
  -7693435.224 6  -6006065.627 5  24404285.605       -1954.690
  -3905277.644 6  -3036185.658 5  23442673.200       -2874.909
   1063211.475 8 -11759165.829 9  21471672.421        -905.736
  -3352343.290 6  -2627714.826 5  23885017.323       -1755.972
  -5945543.438 8 -12410847.561 9  21575995.799        -997.521
 93  5 10  4  2 30.0010000  0  7 20 16 22 23 17 26  3                0.001442240
 -16659711.252 6  -3169316.359 6  22984456.622        3668.061
  -3625903.039 7  -2872455.343 6  23284616.065        3206.660
  -7751883.715 6  -6051609.819 5  24393162.796       -1941.818
  -3991403.601 6  -3103296.727 5  23426284.143       -2866.829
   1036187.245 8 -11780223.656 9  21466529.863        -896.085
  -3404893.085 6  -2668662.619 5  23875018.438       -1747.247
  -5975373.771 8 -12434091.956 9  21570319.148        -991.442
 93  5 10  4  3  0.0010000  0  7 20 16 22 23 17 26  3                0.001449210
 -16549555.343 6  -3083480.599 6  23005418.643        3675.817
  -3529543.242 6  -2797369.802 6  23302952.301        3217.271
  -7809936.111 6  -6096845.434 5  24382115.475       -1928.323
  -4077290.035 6  -3170221.143 5  23409940.627       -2858.849
   1009444.608 8 -11801062.057 9  21461440.984        -886.806
  -3457172.962 5  -2709400.113 5  23865068.867       -1737.956
  -6005016.818 8 -12457190.418 9  21564678.113        -984.930
 93  5 10  4  3 30.0010000  0  7 20 16 22 23 17 26  3                0.001456170
 -16439173.230 6  -2997468.579 6  23026423.840        3683.250
  -3432879.930 7  -2722047.714 6  23321347.146        3226.931
  -7867591.167 6  -6141771.403 5  24371144.009       -1915.250
  -4162947.116 6  -3236966.849 6  23393640.706       -2851.345
    982975.828 8 -11821687.072 9  21456404.110        -877.608
  -3509178.303 5  -2749923.695 5  23855172.528       -1728.991
  -6034468.742 8 -12480139.943 9  21559073.743        -978.590
 93  5 10  4  4  0.0010000  0  7 20 16 22 23 17 26  3                0.001463120
 -16328568.216 6  -2911282.842 6  23047471.465        3690.521
  -3335940.359 7  -2646510.395 6  23339794.306        3235.689
  -7924849.510 6  -6186388.276 5  24360248.265       -1901.809
  -4248371.068 6  -3303530.879 6  23377385.262       -2843.565
    956775.654 8 -11842102.786 9  21451418.643        -869.015
  -3560916.357 6  -2790238.996 5  23845327.432       -1720.146
  -6063728.031 8 -12502939.361 9  21553505.966        -972.208
 93  5 10  4  4 30.0010000  0  7 20 16 22 23 17 26  3                0.001470050
 -16217748.562 6  -2824929.882 6  23068559.718        3697.512
  -3238745.381 6  -2570774.057 6  23358289.971        3244.053
  -7981704.657 6  -6230690.929 5  24349428.680       -1888.386
  -4333578.201 6  -3369925.963 6  23361170.540       -2837.037
    930826.246 8 -11862323.078 9  21446480.521        -860.779
  -3612388.195 5  -2830346.845 5  23835532.216       -1711.083
  -6092798.240 8 -12525591.457 9  21547974.208        -966.013
 93  5 10  4  5  0.0010000  0  7 20 16 22 23 17 26  3                0.001476980
 -16106715.400 6  -2738410.547 6  23089689.249        3704.744
  -3141287.490 6  -2494832.848 6  23376835.300        3253.181
  -8038149.656 6  -6274674.032 5  24338687.598       -1874.631
  -4418584.785 6  -3436164.784 6  23344994.168       -2830.074
    905140.343 8 -11882338.067 9  21441592.505        -851.646
  -3663585.340 5  -2870240.679 5  23825789.958       -1702.080
  -6121676.217 8 -12548093.754 9  21542478.762        -959.446
 93  5 10  4  5 30.0010000  0  7 20 16 22 23 17 26  3                0.001483890
 -15995473.621 6  -2651728.644 6  23110857.925        3711.397
  -3043555.732 6  -2418678.221 6  23395433.110        3262.229
  -8094196.355 6  -6318346.765 5  24328022.753       -1861.668
  -4503380.367 6  -3502239.197 6  23328858.010       -2822.903
    879726.904 8 -11902140.703 9  21436756.453        -842.694
  -3714514.862 5  -2909925.919 5  23816098.138       -1693.137
  -6150361.965 8 -12570446.261 9  21537020.230        -953.181
 93  5 10  4  6  0.0010000  0  7 20 16 22 23 17 26  3                0.001490790
 -15884028.590 6  -2564888.368 6  23132064.717        3718.304
  -2945548.576 6  -2342309.011 6  23414083.259        3271.566
  -8149837.018 6  -6361703.060 5  24317434.201       -1847.710
  -4587944.003 6  -3568132.866 6  23312765.979       -2814.737
    854579.402 8 -11921736.165 9  21431970.825        -833.953
  -3765167.932 5  -2949395.794 5  23806459.142       -1683.641
  -6178855.813 8 -12592649.247 9  21531597.876        -946.591
 93  5 10  4  6 30.0010000  0  7 20 16 22 23 17 26  3                0.001497690
 -15772383.299 6  -2477892.040 6  23153310.096        3724.909
  -2847267.113 6  -2265726.076 6  23432785.451        3280.696
  -8205062.779 6  -6404736.110 5  24306924.688       -1833.844
  -4672270.882 6  -3633842.048 6  23296718.619       -2806.871
    829685.826 8 -11941133.732 9  21427234.025        -825.457
  -3815528.600 6  -2988637.809 5  23796875.575       -1673.559
  -6207156.066 8 -12614701.362 9  21526212.542        -940.129
 93  5 10  4  7  0.0010000  0  7 20 16 22 23 17 26  3                0.001504590
 -15660539.673 6  -2390741.165 6  23174593.359        3731.312
  -2748713.896 6  -2188931.350 6  23451539.827        3289.444
  -8259870.934 6  -6447443.751 5  24296494.276       -1820.125
  -4756347.668 6  -3699356.356 6  23280718.697       -2798.317
    805040.399 8 -11960337.959 9  21422544.211        -817.779
  -3865583.580 6  -3027641.666 5  23787350.709       -1663.467
  -6235260.129 8 -12636600.604 9  21520864.545        -933.695
 93  5 10  4  7 30.0010000  0  7 20 16 22 23 17 26  3                0.001511520
 -15548500.123 6  -2303437.620 6  23195913.741        3737.932
  -2649896.149 6  -2111930.520 6  23470344.269        3298.318
  -8314259.674 6  -6489824.557 5  24286144.751       -1805.825
  -4840168.103 6  -3764670.912 6  23264768.684       -2789.775
    780622.750 8 -11979364.674 9  21417897.720        -810.117
  -3915324.504 6  -3066400.737 5  23777884.964       -1652.713
  -6263165.412 8 -12658344.960 9  21515554.362        -926.916
 93  5 10  4  8  0.0010000  0  7 20 16 22 23 17 26  3                0.001518450
 -15436264.887 6  -2215981.610 6  23217270.669        3744.175
  -2550814.302 6  -2034723.918 6  23489198.855        3306.892
  -8368221.893 6  -6531873.012 5  24275876.549       -1792.093
  -4923744.326 6  -3829795.191 6  23248864.767       -2782.257
    756434.917 8 -11998212.336 9  21413294.584        -802.593
  -3964739.586 6  -3104905.972 5  23768481.877       -1641.918
  -6290867.864 8 -12679931.275 9  21510282.671        -920.356
 93  5 10  4  8 30.0010000  0  7 20 16 22 23 17 26  3                0.001525390
 -15323836.866 6  -2128375.356 6  23238664.299        3750.922
  -2451465.954 6  -1957309.628 6  23508104.139        3316.242
  -8421775.045 6  -6573602.703 5  24265686.273       -1778.318
  -5007096.994 6  -3894745.232 6  23233003.438       -2774.688
    732485.461 8 -12016874.227 9  21408737.509        -794.155
  -4013828.314 6  -3143156.865 5  23759140.479       -1630.928
  -6318365.342 8 -12701357.851 9  21505050.174        -913.192
 93  5 10  4  9  0.0010000  0  7 20 16 22 23 17 26  3                0.001532310
 -15211218.594 6  -2040620.873 6  23260095.234        3757.033
  -2351842.984 6  -1879681.333 6  23527061.927        3325.389
  -8474927.034 6  -6615019.859 5  24255571.798       -1765.259
  -5090224.808 6  -3959520.098 6  23217184.514       -2767.117
    708780.640 8 -12035345.504 9  21404226.613        -786.166
  -4062608.876 6  -3181167.658 5  23749857.318       -1621.111
  -6345655.698 8 -12722623.046 9  21499857.037        -906.363
 93  5 10  4  9 30.0010000  0  7 20 16 22 23 17 26  3                0.001539210
 -15098412.443 6  -1952719.981 6  23281561.661        3763.273
  -2251940.805 6  -1801835.498 6  23546072.526        3334.655
  -8527684.912 6  -6656129.842 5  24245531.748       -1751.874
  -5173120.069 6  -4024113.746 6  23201410.041       -2759.091
    685331.868 8 -12053617.267 9  21399764.392        -777.026
  -4111095.856 6  -3218949.660 5  23740630.674       -1611.371
  -6372736.520 8 -12743724.963 9  21494703.738        -899.282
 93  5 10  4 10  0.0010000  0  7 20 16 22 23 17 26  3                0.001546090
 -14985424.646 6  -1864677.546 6  23303062.419        3769.238
  -2151768.399 6  -1723779.086 6  23565134.276        3343.400
  -8580041.931 6  -6696927.518 5  24235568.794       -1738.534
  -5255770.242 6  -4088516.391 6  23185681.878       -2750.717
    662156.076 8 -12071676.312 9  21395354.243        -768.089
  -4159297.707 6  -3256509.504 5  23731458.392       -1602.029
  -6399609.284 8 -12764664.763 9  21489589.917        -892.436
 93  5 10  4 10 30.0010000  0  7 20 16 22 23 17 26  3                0.001552950
 -14872254.398 6  -1776492.936 6  23324598.236        3775.382
  -2051339.764 6  -1645522.984 6  23584245.198        3351.769
  -8631983.476 6  -6737401.414 5  24225684.938       -1724.238
  -5338149.214 6  -4152707.734 6  23170005.783       -2741.214
    639252.620 8 -12089523.136 9  21390995.822        -758.917
  -4207220.616 6  -3293851.977 5  23722339.056       -1592.808
  -6426268.512 8 -12785438.160 9  21484516.958        -885.136
 93  5 10  4 11  0.0010000  0  7 20 16 22 23 17 26  3                0.001559790
 -14758912.279 6  -1688174.403 6  23346165.965        3780.770
  -1950673.529 6  -1567081.772 6  23603401.324        3359.326
  -8683502.876 6  -6777546.386 5  24215880.195       -1710.351
  -5420248.918 6  -4216681.462 6  23154382.924       -2732.090
    616611.916 8 -12107165.231 9  21386687.563        -750.317
  -4254872.134 6  -3330982.995 5  23713271.515       -1583.680
  -6452719.906 8 -12806049.613 9  21479483.334        -878.451
 93  5 10  4 11 30.0010000  0  7 20 16 22 23 17 26  3                0.001566620
 -14645403.552 6  -1599726.061 6  23367765.993        3786.409
  -1849778.339 6  -1488462.153 6  23622601.222        3366.949
  -8734592.673 6  -6817356.576 5  24206158.134       -1695.554
  -5502076.320 6  -4280443.016 6  23138812.109       -2723.184
    594238.897 8 -12124598.734 9  21382430.212        -741.323
  -4302231.351 6  -3367886.244 5  23704259.384       -1573.528
  -6478963.654 8 -12826499.261 9  21474489.290        -871.430
 93  5 10  4 12  0.0010000  0  7 20 16 22 23 17 26  3                0.001573440
 -14531730.604 6  -1511149.754 6  23389397.726        3792.124
  -1748654.927 6  -1409664.687 6  23641844.701        3374.969
  -8785236.939 6  -6856819.634 5  24196521.306       -1680.562
  -5583644.116 6  -4344002.271 6  23123289.557       -2714.479
    572121.948 8 -12141832.710 9  21378221.385        -732.892
  -4349282.715 6  -3404549.620 5  23695305.760       -1562.739
  -6504997.910 8 -12846785.669 9  21469535.050        -864.072
 93  5 10  4 12 30.0010000  0  7 20 16 22 23 17 26  3                0.001580270
 -14417889.674 6  -1422442.523 6  23411061.129        3797.490
  -1647292.333 6  -1330680.852 6  23661133.549        3382.999
  -8835436.475 6  -6895936.143 5  24186968.732       -1665.934
  -5664962.281 6  -4407367.013 6  23107815.400       -2706.567
    550252.414 8 -12158873.875 9  21374059.907        -724.771
  -4396009.992 6  -3440960.423 5  23686413.568       -1551.987
  -6530813.796 8 -12866901.954 9  21464622.442        -856.956
 93  5 10  4 13  0.0010000  0  7 20 16 22 23 17 26  3                0.001587100
 -14303884.140 6  -1333607.048 6  23432755.820        3802.960
  -1545672.400 6  -1251496.495 6  23680470.688        3391.759
  -8885197.080 6  -6934710.612 5  24177499.406       -1651.386
  -5746037.576 6  -4470542.507 6  23092387.232       -2698.433
    528631.740 8 -12175721.140 9  21369945.485        -716.529
  -4442399.384 6  -3477107.995 5  23677585.988       -1540.636
  -6556409.646 8 -12886846.742 9  21459751.612        -849.593
 93  5 10  4 13 30.0010000  0  7 20 16 22 23 17 26  3                0.001593940
 -14189722.434 6  -1244649.877 6  23454479.851        3808.045
  -1443789.918 6  -1172107.578 6  23699857.910        3400.572
  -8934522.399 6  -6973145.951 5  24168113.004       -1636.775
  -5826878.580 6  -4533535.461 6  23077003.433       -2690.627
    507251.463 8 -12192381.076 9  21365876.791        -708.698
  -4488458.401 6  -3512998.102 5  23668821.595       -1529.826
  -6581789.219 8 -12906623.010 9  21454922.087        -842.373
 93  5 10  4 14  0.0010000  0  7 20 16 22 23 17 26  3                0.001600770
 -14075402.922 6  -1155569.745 6  23476234.417        3813.341
  -1341642.944 6  -1092512.549 6  23719295.973        3409.245
  -8983418.420 6  -7011246.728 5  24158808.404       -1622.975
  -5907471.459 6  -4596335.021 6  23061666.671       -2682.090
    486112.415 8 -12208853.031 9  21361854.189        -700.429
  -4534188.560 6  -3548631.979 5  23660119.728       -1518.711
  -6606946.323 8 -12926225.920 9  21450134.591        -834.904
 93  5 10  4 14 30.0010000  0  7 20 16 22 23 17 26  3                0.001607600
 -13960923.110 6  -1066364.696 6  23498019.528        3818.589
  -1239236.495 6  -1012715.346 6  23738783.610        3417.764
  -9031895.264 6  -7049020.895 5  24149583.944       -1609.007
  -5987799.327 6  -4658928.111 6  23046381.552       -2673.068
    465231.350 8 -12225123.959 9  21357880.396        -691.694
  -4579575.178 6  -3583998.127 5  23651482.659       -1507.178
  -6631873.291 8 -12945649.512 9  21445391.255        -827.251
 93  5 10  4 15  0.0010000  0  7 20 16 22 23 17 26  3                0.001614410
 -13846286.271 6   -977037.292 6  23519834.218        3823.919
  -1136572.933 6   -932717.771 6  23758319.787        3426.393
  -9079951.906 6  -7086467.620 5  24140439.040       -1594.700
  -6067845.912 6  -4721302.035 6  23031148.966       -2663.530
    444616.948 8 -12241187.096 9  21353957.412        -682.668
  -4624609.377 6  -3619089.693 5  23642912.378       -1495.106
  -6656568.821 8 -12964892.768 9  21440691.789        -819.310
 93  5 10  4 15 30.0010000  0  7 20 16 22 23 17 26  3                0.001621220
 -13731489.444 6   -887585.222 6  23541679.305        3829.033
  -1033658.885 6   -852525.036 5  23777903.869        3434.255
  -9127574.983 6  -7123576.547 5  24131376.008       -1580.377
  -6147608.065 6  -4783454.328 6  23015970.934       -2653.925
    424269.832 8 -12257041.967 9  21350085.733        -673.990
  -4669274.758 6  -3653893.884 5  23634412.455       -1482.628
  -6681025.068 8 -12983949.557 9  21436037.779        -811.475
 93  5 10  4 16  0.0010000  0  7 20 16 22 23 17 26  3                0.001628020
 -13616543.134 6   -798016.669 6  23563552.228        3833.926
   -930523.081 6   -772159.465 5  23797529.709        3441.251
  -9174774.518 6  -7160355.361 5  24122394.556       -1566.192
  -6227076.941 6  -4845378.054 6  23000848.424       -2644.087
    404177.264 8 -12272698.487 9  21346262.119        -665.738
  -4713565.719 6  -3688406.293 5  23625984.132       -1470.216
  -6705247.460 8 -13002824.112 9  21431428.448        -803.766
 93  5 10  4 16 30.0010000  0  7 20 16 22 23 17 26  3                0.001634830
 -13501449.504 6   -708333.341 6  23585453.660        3838.931
   -827172.358 6   -691626.470 5  23817196.757        3448.818
  -9221524.213 6  -7196783.711 5  24113498.354       -1550.428
  -6306247.332 6  -4907069.231 6  22985782.754       -2633.959
    384327.649 8 -12288165.694 9  21342484.895        -657.684
  -4757480.785 6  -3722625.817 5  23617627.648       -1457.737
  -6729233.554 8 -13021514.557 9  21426864.080        -795.577
 93  5 10  4 17  0.0010000  0  7 20 16 22 23 17 26  3                0.001641650
 -13386209.870 6   -618536.226 6  23607383.309        3843.767
   -723599.440 6   -610920.288 5  23836906.091        3456.117
  -9267799.004 6  -7232842.029 5  24104692.688       -1534.422
  -6385126.286 6  -4968533.304 6  22970772.005       -2624.490
    364708.117 8 -12303453.602 9  21338751.650        -650.206
  -4801034.202 6  -3756563.496 5  23609339.896       -1445.830
  -6752979.839 8 -13040018.153 9  21422345.258        -787.565
 93  5 10  4 17 30.0010000  0  7 20 16 22 23 17 26  3                0.001648480
 -13270829.307 6   -528629.299 6  23629339.858        3848.276
   -619817.975 6   -530051.629 5  23856655.181        3462.684
  -9313592.406 6  -7268525.159 5  24095978.291       -1518.521
  -6463720.884 6  -5029775.808 6  22955815.951       -2615.037
    345310.004 8 -12318568.991 9  21335060.194        -642.742
  -4844243.654 6  -3790233.208 5  23601117.146       -1434.651
  -6776486.564 8 -13058335.045 9  21417872.027        -779.642
 93  5 10  4 18  0.0010000  0  7 20 16 22 23 17 26  3                0.001655330
 -13155313.789 6   -438617.242 6  23651321.883        3852.670
   -515839.714 6   -449029.625 5  23876441.754        3469.388
  -9358907.801 6  -7303835.889 5  24087355.720       -1502.451
  -6542036.112 6  -5090800.597 6  22940913.474       -2606.143
    326144.259 8 -12333503.314 9  21331412.980        -634.950
  -4887123.192 6  -3823645.819 5  23592957.213       -1423.962
  -6799754.413 8 -13076465.832 9  21413444.321        -771.774
 93  5 10  4 18 30.0010000  0  7 20 16 22 23 17 26  3                0.001662180
 -13039664.956 6   -348501.267 6  23673328.536        3857.094
   -411639.325 6   -367834.542 5  23896270.007        3477.228
  -9403734.486 6  -7338765.758 5  24078825.443       -1486.367
  -6620093.546 6  -5151624.526 6  22926059.860       -2597.781
    307224.581 8 -12348245.891 9  21327812.723        -626.327
  -4929677.365 6  -3856804.885 5  23584859.741       -1413.098
  -6822780.726 8 -13094408.388 9  21409062.564        -763.636
 93  5 10  4 19  0.0010000  0  7 20 16 22 23 17 26  3                0.001669020
 -12923888.867 6   -258286.142 6  23695360.314        3861.256
   -307216.412 6   -286466.042 5  23916141.299        3484.249
  -9448104.519 6  -7373339.808 5  24070381.341       -1471.577
  -6697897.225 6  -5212250.715 6  22911254.330       -2589.116
    288568.286 8 -12362783.227 9  21324262.540        -617.278
  -4971904.185 6  -3889708.906 5  23576824.063       -1401.876
  -6845566.258 8 -13112163.325 9  21404726.416        -755.656
 93  5 10  4 19 30.0010000  0  7 20 16 22 23 17 26  3                0.001675840
 -12807988.397 6   -167974.079 5  23717414.925        3865.228
   -202580.459 6   -204931.557 5  23936052.956        3491.297
  -9492023.195 6  -7407562.152 5  24062023.485       -1456.554
  -6775432.978 6  -5272668.134 6  22896499.920       -2580.159
    270196.579 8 -12377098.824 9  21320766.350        -607.700
  -5013784.542 6  -3922342.888 5  23568854.337       -1390.312
  -6868109.330 8 -13129729.330 9  21400436.548        -747.652
 93  5 10  4 20  0.0010000  0  7 20 16 22 23 17 26  3                0.001682650
 -12691970.050 6    -77570.190 5  23739492.825        3869.245
    -97726.961 6   -123227.568 5  23956005.912        3498.942
  -9535492.741 6  -7441434.525 5  24053751.496       -1441.456
  -6852700.831 6  -5332876.803 6  22881796.762       -2571.013
    252104.293 8 -12391196.678 9  21317323.344        -598.618
  -5055315.704 6  -3954704.817 5  23560951.690       -1378.359
  -6890411.371 8 -13147107.528 9  21396192.535        -739.437
 93  5 10  4 20 30.0010000  0  7 20 16 22 23 17 26  3                0.001689440
 -12575837.102 6     12922.996 5  23761591.481        3873.115
      7345.634 6    -41352.820 5  23976000.742        3505.834
  -9578516.900 6  -7474959.861 5  24045564.552       -1426.812
  -6929685.993 6  -5392865.195 6  22867146.784       -2561.039
    234277.498 8 -12405087.662 9  21313931.103        -589.661
  -5096486.770 6  -3986786.176 5  23553116.997       -1366.075
  -6912471.005 8 -13164296.843 9  21391994.779        -731.214
 93  5 10  4 21  0.0010000  0  7 20 16 22 23 17 26  3                0.001696220
 -12459586.788 6    103507.648 5  23783714.048        3876.914
    112614.198 6     40674.617 5  23996032.501        3512.162
  -9621094.493 6  -7508137.236 5  24037462.762       -1411.418
  -7006359.999 6  -5452611.150 6  22852555.323       -2550.525
    216717.087 8 -12418771.077 9  21310589.575        -581.065
  -5137277.404 6  -4018571.059 5  23545355.060       -1353.292
  -6934280.274 8 -13181291.063 9  21387844.465        -722.936
 93  5 10  4 21 30.0010000  0  7 20 16 22 23 17 26  3                0.001703000
 -12343222.377 6    194181.160 5  23805857.866        3880.632
    218087.415 6    122861.474 5  24016103.108        3519.193
  -9663199.678 6  -7540946.418 5  24029450.588       -1395.811
  -7082717.141 6  -5512110.177 6  22838025.166       -2539.927
    199408.707 8 -12432258.115 9  21307295.814        -573.042
  -5177688.032 6  -4050059.847 5  23537664.693       -1340.775
  -6955837.943 8 -13198089.229 9  21383742.525        -714.516
 93  5 10  4 22  0.0010000  0  7 20 16 22 23 17 26  3                0.001709770
 -12226750.519 6    284938.507 5  23828021.173        3884.155
    323765.754 6    205208.191 5  24036213.026        3526.110
  -9704850.608 6  -7573401.731 5  24021524.156       -1380.863
  -7158752.022 6  -5571358.098 6  22823555.771       -2529.066
    182330.146 8 -12445566.049 9  21304045.917        -565.421
  -5217721.543 6  -4081254.761 5  23530046.759       -1327.958
  -6977145.632 8 -13214692.595 9  21379687.589        -706.170
 93  5 10  4 22 30.0010000  0  7 20 16 22 23 17 26  3                0.001716550
 -12110172.534 6    375778.448 5  23850206.315        3887.739
    429654.257 6    287718.653 5  24056362.604        3533.055
  -9746050.203 6  -7605505.341 5  24013684.316       -1365.727
  -7234459.758 6  -5630351.104 6  22809149.357       -2518.158
    165488.619 8 -12458689.312 9  21300841.215        -557.341
  -5257362.933 6  -4112144.133 5  23522503.502       -1314.854
  -6998199.714 8 -13231098.376 9  21375681.063        -697.617
 93  5 10  4 23  0.0010000  0  7 20 16 22 23 17 26  3                0.001723330
 -11993497.203 6    466694.275 5  23872408.855        3890.788
    535749.084 6    370389.928 5  24076551.908        3539.967
  -9786794.788 6  -7637254.351 5  24005930.968       -1350.465
  -7309854.356 6  -5689100.091 6  22794801.926       -2507.996
    148879.157 8 -12471631.724 9  21297680.551        -549.908
  -5296623.145 6  -4142736.499 5  23515032.533       -1302.459
  -7019004.032 8 -13247309.505 9  21371722.304        -689.408
 93  5 10  4 23 30.0010000  0  7 20 16 22 23 17 26  3                0.001730100
 -11876723.522 6    557686.740 5  23894630.243        3894.073
    642052.510 6    453223.682 5  24096781.114        3546.677
  -9827079.057 6  -7668644.706 5  23998265.237       -1335.422
  -7384935.910 6  -5747605.168 6  22780514.479       -2497.507
    132496.819 8 -12484397.160 9  21294563.040        -542.401
  -5335510.939 6  -4173038.662 5  23507631.949       -1290.022
  -7039552.688 8 -13263321.442 9  21367812.272        -680.795
 93  5 10  4 24  0.0010000  0  7 20 16 22 23 17 26  3                0.001736860
 -11759856.672 6    648751.809 5  23916868.679        3896.922
    748542.319 6    536202.668 5  24117046.116        3552.535
  -9866918.580 6  -7699688.504 5  23990684.235       -1320.413
  -7459713.812 6  -5805873.616 6  22766284.568       -2487.862
    116337.111 8 -12496989.121 9  21291488.141        -534.967
  -5374031.503 6  -4203054.669 5  23500301.818       -1277.991
  -7059846.294 8 -13279134.627 9  21363950.506        -672.444
 93  5 10  4 24 30.0010000  0  7 20 16 22 23 17 26  3                0.001743610
 -11642897.913 6    739888.529 5  23939125.027        3900.122
    855203.780 6    619315.446 5  24137343.337        3558.042
  -9906290.250 6  -7730367.680 5  23983191.742       -1304.469
  -7534200.262 6  -5863914.957 6  22752110.074       -2478.059
    100410.140 8 -12509399.715 9  21288457.357        -527.028
  -5412182.906 6  -4232782.973 5  23493042.038       -1265.621
  -7079881.212 8 -13294746.216 9  21360138.025        -663.574
 93  5 10  4 25  0.0010000  0  7 20 16 22 23 17 26  3                0.001750350
 -11525852.110 6    831093.027 5  23961397.964        3903.053
    962020.156 6    702548.916 5  24157669.415        3563.103
  -9945194.866 6  -7760682.997 5  23975788.297       -1288.930
  -7608403.350 6  -5921735.532 7  22737989.895       -2468.570
     84710.639 8 -12521633.076 9  21285469.626        -519.399
  -5449973.811 6  -4262230.434 5  23485849.964       -1253.461
  -7099657.047 8 -13310155.949 9  21356374.779        -654.860
 93  5 10  4 25 30.0010000  0  7 20 16 22 23 17 26  3                0.001757060
 -11408720.039 6    922364.731 5  23983687.390        3905.743
   1068988.495 6    785900.802 5  24178024.155        3568.253
  -9983636.475 6  -7790637.497 5  23968473.431       -1273.838
  -7682320.538 6  -5979333.297 7  22723923.815       -2459.322
     69246.183 8 -12533683.279 9  21282526.905        -511.464
  -5487391.690 6  -4291387.186 5  23478729.853       -1240.882
  -7119170.031 8 -13325360.852 9  21352661.360        -646.203
 93  5 10  4 26  0.0010000  0  7 20 16 22 23 17 26  3                0.001763760
 -11291501.434 6   1013703.900 5  24005992.925        3908.809
   1176121.012 6    869380.684 5  24198410.859        3573.874
 -10021615.919 6  -7820231.856 5  23961246.207       -1258.034
  -7755957.018 6  -6036712.323 7  22709910.828       -2449.686
     54035.741 8 -12545535.559 9  21279632.466        -502.388
  -5524415.828 6  -4320237.109 5  23471684.580       -1227.215
  -7138414.807 8 -13340356.768 9  21348999.225        -637.054
 93  5 10  4 26 30.0010000  0  7 20 16 22 23 17 26  3                0.001770440
 -11174199.133 5   1105108.281 5  24028314.155        3911.494
   1283414.316 6    952985.835 5  24218828.632        3579.366
 -10059126.859 6  -7849461.173 5  23954107.787       -1242.745
  -7829304.473 6  -6093866.166 7  22695953.258       -2439.997
     39100.821 8 -12557173.150 9  21276790.342        -493.117
  -5561028.741 6  -4348766.644 5  23464716.966       -1213.549
  -7157389.288 8 -13355142.060 9  21345388.665        -628.033
 93  5 10  4 27  0.0010000  0  7 20 16 22 23 17 26  3                0.001777100
 -11056811.250 5   1196579.352 5  24050652.910        3914.216
   1390884.991 6   1036729.232 5  24239279.688        3585.263
 -10096176.625 6  -7878331.110 5  23947056.816       -1227.392
  -7902352.292 7  -6150786.499 7  22682053.410       -2429.969
     24453.803 8 -12568586.397 9  21274003.176        -483.471
  -5597229.378 6  -4376974.920 5  23457828.504       -1199.924
  -7176086.945 8 -13369711.652 9  21341830.778        -618.865
 93  5 10  4 27 30.0010000  0  7 20 16 22 23 17 26  3                0.001783730
 -10939351.779 5   1288106.158 5  24073004.355        3916.453
   1498523.407 6   1120603.270 5  24259762.835        3590.727
 -10132770.482 6  -7906845.777 5  23940093.178       -1212.159
  -7975106.121 6  -6207477.769 7  22668209.408       -2420.090
     10089.017 8 -12579779.718 9  21271269.456        -474.137
  -5633021.032 6  -4404864.477 5  23451018.195       -1186.191
  -7194516.691 8 -13384072.483 9  21338323.548        -609.946
 93  5 10  4 28  0.0010000  0  7 20 16 22 23 17 26  3                0.001790350
 -10821822.109 5   1379687.682 5  24095370.039        3918.677
   1606330.760 6   1204608.994 5  24280278.020        3596.212
 -10168895.462 6  -7934995.141 5  23933219.246       -1196.189
  -8047548.269 6  -6263926.167 7  22654423.387       -2409.461
     -3996.573 8 -12590755.488 9  21268589.074        -465.082
  -5668402.573 6  -4432434.517 5  23444285.828       -1172.667
  -7212675.171 8 -13398221.923 9  21334868.147        -600.968
 93  5 10  4 28 30.0010000  0  7 20 16 22 23 17 26  3                0.001796970
 -10704222.822 5   1471323.495 5  24117748.919        3921.138
   1714306.994 6   1288746.330 5  24300825.599        3602.127
 -10204530.849 6  -7962762.968 5  23926437.976       -1179.652
  -8119671.421 6  -6320125.998 7  22640698.633       -2398.998
    -17818.150 8 -12601525.527 9  21265958.994        -456.764
  -5703381.724 6  -4459690.972 5  23437628.997       -1159.484
  -7230558.144 8 -13412156.690 9  21331464.864        -591.589
 93  5 10  4 29  0.0010000  0  7 20 16 22 23 17 26  3                0.001803590
 -10586557.977 5   1563010.350 5  24140139.897        3923.145
   1822452.434 6   1373015.493 5  24321404.660        3607.356
 -10239667.532 6  -7990142.194 5  23919751.747       -1162.785
  -8191491.175 7  -6376089.414 7  22627031.851       -2388.998
    -31411.729 8 -12612117.909 9  21263372.012        -449.698
  -5737971.969 6  -4486644.376 5  23431046.636       -1146.531
  -7248164.935 8 -13425876.261 9  21328114.553        -582.503
 93  5 10  4 29 30.0010000  0  7 20 16 22 23 17 26  3                0.001810230
 -10468828.294 5   1654747.725 5  24162544.285        3925.293
   1930755.792 6   1457407.742 5  24342014.511        3612.502
 -10274286.056 6  -8017117.658 5  23913163.837       -1145.316
  -8262997.971 7  -6431808.963 7  22613424.961       -2378.237
    -44796.234 8 -12622547.354 9  21260825.128        -442.885
  -5772161.340 6  -4513285.407 5  23424540.591       -1132.997
  -7265491.099 8 -13439377.147 9  21324817.447        -573.020
 93  5 10  4 30  0.0010000  0  7 20 16 22 23 17 26  3                0.001816880
 -10351039.561 5   1746531.100 5  24184957.701        3927.373
   2039200.509 6   1541910.064 5  24362650.726        3617.206
 -10308381.073 6  -8043685.188 5  23906676.119       -1127.687
  -8334183.245 7  -6487277.962 7  22599879.101       -2367.466
    -57989.853 8 -12632828.076 9  21258314.307        -436.579
  -5805955.916 6  -4539618.829 5  23418109.379       -1119.728
  -7282537.891 8 -13452660.341 9  21321573.432        -563.533
 93  5 10  4 30 30.0010000  0  7 20 16 22 23 17 26  3                0.001823540
 -10233190.627 5   1838361.416 5  24207382.599        3929.221
   2147786.649 5   1626522.620 5  24383314.059        3621.821
 -10341952.928 6  -8069845.099 5  23900287.444       -1110.587
  -8405049.600 7  -6542498.482 7  22586392.666       -2356.789
    -70994.192 8 -12642961.311 9  21255839.718        -430.495
  -5839354.470 6  -4565643.658 5  23411754.228       -1106.699
  -7299298.583 8 -13465720.608 9  21318383.930        -554.073
 93  5 10  4 31  0.0010000  0  7 20 16 22 23 17 26  3                0.001830220
 -10115282.321 6   1930237.998 5  24229820.243        3931.195
   2256513.345 6   1711244.701 5  24404004.053        3626.635
 -10375010.776 6  -8095604.444 5  23893996.863       -1093.395
  -8475574.497 7  -6597452.917 7  22572972.147       -2344.870
    -83806.852 8 -12652945.177 9  21253401.555        -423.556
  -5872341.433 6  -4591347.742 5  23405476.765       -1092.469
  -7315769.680 8 -13478555.214 9  21315249.650        -544.323
 93  5 10  4 31 30.0010000  0  7 20 16 22 23 17 26  3                0.001836900
  -9997316.930 6   2022159.063 5  24252269.071        3933.039
   2365387.717 6   1796081.871 5  24424722.488        3631.482
 -10407560.361 6  -8120967.741 5  23887802.749       -1076.735
  -8545739.321 7  -6652126.792 7  22559620.310       -2332.984
    -96397.239 8 -12662755.849 9  21251005.684        -415.835
  -5904899.271 6  -4616717.473 5  23399281.404       -1078.304
  -7331947.971 8 -13491161.654 9  21312171.062        -534.574
 93  5 10  4 32  0.0010000  0  7 20 16 22 23 17 26  3                0.001843570
  -9879298.746 6   2114121.237 5  24274727.608        3934.843
   2474418.007 6   1881040.501 5  24445469.920        3637.267
 -10439612.559 6  -8145943.479 5  23881703.572       -1060.306
  -8615556.943 7  -6706530.089 7  22546334.968       -2321.674
   -108752.433 8 -12672383.248 9  21248654.413        -407.616
  -5937040.025 6  -4641762.179 5  23393165.220       -1064.308
  -7347833.520 8 -13503539.983 9  21309148.044        -524.699
 93  5 10  4 32 30.0010000  0  7 20 16 22 23 17 26  3                0.001850240
  -9761230.374 6   2206122.549 5  24297195.193        3936.405
   2583619.581 6   1966132.593 5  24466250.268        3642.825
 -10471181.768 6  -8170542.847 5  23875696.685       -1044.411
  -8685041.412 7  -6760673.808 7  22533112.232       -2310.643
   -120849.220 8 -12681809.307 9  21246352.207        -398.962
  -5968755.611 6  -4666475.616 5  23387129.896       -1050.062
  -7363424.425 8 -13515688.724 9  21306181.228        -514.951
 93  5 10  4 33  0.0010000  0  7 20 16 22 23 17 26  3                0.001856910
  -9643113.566 6   2298161.600 5  24319671.691        3938.113
   2692994.110 6   2051359.408 5  24487063.490        3648.972
 -10502271.650 6  -8194768.711 5  23869780.117       -1028.162
  -8754195.558 7  -6814560.123 7  22519953.022       -2299.742
   -132675.083 8 -12691024.235 9  21244101.725        -389.189
  -6000037.702 6  -4690851.256 5  23381177.170       -1035.449
  -7378717.163 8 -13527605.136 9  21303271.043        -504.747
 93  5 10  4 33 30.0010000  0  7 20 16 22 23 17 26  3                0.001863560
  -9524949.157 6   2390237.734 5  24342157.330        3939.494
   2802545.587 5   2136724.183 5  24507910.288        3654.502
 -10532884.894 6  -8218623.194 5  23863954.814       -1012.595
  -8823032.711 7  -6868199.428 7  22506853.671       -2289.356
   -144207.033 8 -12700010.160 9  21241907.403        -379.824
  -6030893.787 6  -4714894.908 5  23375305.282       -1021.733
  -7393707.753 8 -13539286.096 9  21300418.407        -494.847
 93  5 10  4 34  0.0010000  0  7 20 16 22 23 17 26  3                0.001870210
  -9406741.912 6   2482347.248 5  24364651.342        3940.773
   2912274.648 6   2222227.341 5  24528790.930        3660.406
 -10563026.418 6  -8242110.081 5  23858219.788        -997.055
  -8891551.995 7  -6921591.047 7  22493815.096       -2278.738
   -155462.377 8 -12708780.526 9  21239765.666        -370.669
  -6061329.592 6  -4738611.098 5  23369513.453       -1007.329
  -7408395.974 8 -13550731.446 9  21297623.402        -484.714
 93  5 10  4 34 30.0010000  0  7 20 16 22 23 17 26  3                0.001876840
  -9288498.644 5   2574484.846 5  24387152.556        3942.069
   3022162.083 6   2307853.855 5  24549701.674        3665.436
 -10592704.904 6  -8265236.159 5  23852571.571        -981.430
  -8959750.525 7  -6974732.733 7  22480836.820       -2267.738
   -166452.035 8 -12717343.885 9  21237674.494        -362.114
  -6091328.396 6  -4761986.752 5  23363804.827        -992.665
  -7422783.871 8 -13561942.784 9  21294885.408        -474.703
 93  5 10  4 35  0.0010000  0  7 20 16 22 23 17 26  3                0.001883470
  -9170217.498 5   2666651.938 5  24409660.869        3943.337
   3132203.635 6   2393600.487 5  24570642.217        3670.515
 -10621905.140 6  -8287989.586 5  23847014.288        -965.287
  -9027605.614 7  -7027606.792 7  22467924.330       -2255.956
   -177184.716 8 -12725706.995 9  21235632.078        -353.417
  -6120883.487 6  -4785016.680 5  23358180.537        -977.777
  -7436864.889 8 -13572914.993 9  21292205.832        -464.284
 93  5 10  4 35 30.0010000  0  7 20 16 22 23 17 26  3                0.001890080
  -9051905.888 5   2758842.761 5  24432175.413        3944.306
   3242383.816 6   2479455.140 5  24591608.664        3674.874
 -10650626.239 6  -8310369.632 5  23841548.970        -949.132
  -9095111.366 7  -7080208.653 7  22455078.442       -2244.155
   -187673.989 8 -12733880.438 9  21233636.090        -345.784
  -6149996.004 6  -4807701.703 5  23352640.366        -962.748
  -7450641.308 8 -13583649.847 9  21289584.157        -454.129
 93  5 10  4 36  0.0010000  0  7 20 16 22 23 17 26  3                0.001896690
  -8933568.235 5   2851053.927 5  24454694.148        3944.887
   3352681.640 6   2565401.488 5  24612597.506        3678.142
 -10678860.495 6  -8332370.331 5  23836175.838        -933.054
  -9162270.776 7  -7132540.634 7  22442298.269       -2233.073
   -197940.763 8 -12741880.491 9  21231682.273        -338.460
  -6178652.293 6  -4830031.283 5  23347187.059        -947.574
  -7464112.755 8 -13594147.062 9  21287020.743        -444.129
 93  5 10  4 36 30.0010000  0  7 20 16 22 23 17 26  3                0.001903280
  -8815207.222 5   2943283.224 5  24477217.323        3945.888
   3463073.536 5   2651421.083 5  24633604.491        3681.624
 -10706596.886 6  -8353983.087 5  23830898.402        -915.848
  -9229087.468 7  -7184605.563 7  22429583.423       -2221.236
   -207977.818 8 -12749701.564 9  21229772.166        -330.588
  -6206850.144 6  -4852003.589 5  23341821.353        -932.306
  -7477277.209 8 -13604405.085 9  21284515.617        -433.635
 93  5 10  4 37  0.0010000  0  7 20 16 22 23 17 26  3                0.001909860
  -8696822.100 5   3035531.334 5  24499744.280        3946.428
   3573574.110 5   2737525.421 5  24654631.817        3685.045
 -10733819.678 6  -8375195.633 5  23825718.090        -898.975
  -9295558.596 7  -7236401.200 7  22416934.587       -2210.280
   -217784.715 8 -12757343.284 9  21227905.915        -323.221
  -6234600.297 6  -4873627.053 5  23336540.659        -917.624
  -7490128.911 8 -13614419.378 9  21282069.959        -423.377
 93  5 10  4 37 30.0010000  0  7 20 16 22 23 17 26  3                0.001916440
  -8578420.278 5   3127792.403 5  24522275.995        3947.060
   3684176.475 6   2823709.049 5  24675678.406        3688.477
 -10760531.498 6  -8396010.012 5  23820634.131        -881.630
  -9361702.989 7  -7287942.261 7  22404347.503       -2199.266
   -227371.582 8 -12764813.546 9  21226081.499        -315.723
  -6261906.740 6  -4894904.819 5  23331344.368        -902.725
  -7502670.679 8 -13624192.183 9  21279683.291        -412.868
 93  5 10  4 38  0.0010000  0  7 20 16 22 23 17 26  3                0.001923010
  -8460002.013 5   3220066.335 5  24544810.211        3947.200
   3794884.016 6   2909974.657 5  24696745.430        3691.864
 -10786720.268 6  -8416416.824 5  23815651.218        -864.527
  -9427515.712 7  -7339224.872 7  22391823.963       -2188.337
   -236729.915 8 -12772105.737 9  21224300.792        -308.331
  -6288772.299 6  -4915839.002 5  23326232.117        -888.509
  -7514897.662 8 -13633719.678 9  21277356.601        -402.708
 93  5 10  4 38 30.0010000  0  7 20 16 22 23 17 26  3                0.001929580
  -8341571.695 5   3312349.694 5  24567346.640        3947.805
   3905704.007 6   2996327.834 5  24717833.927        3695.939
 -10812388.863 6  -8436418.341 5  23810766.560        -847.030
  -9492984.760 7  -7390239.680 7  22379365.774       -2176.643
   -245857.676 8 -12779218.259 9  21222563.886        -300.575
  -6315206.620 6  -4936437.130 5  23321202.039        -874.078
  -7526810.156 8 -13643002.136 9  21275089.722        -392.032
 93  5 10  4 39  0.0010000  0  7 20 16 22 23 17 26  3                0.001936160
  -8223131.145 5   3404640.983 5  24589885.635        3948.385
   4016644.055 6   3082774.651 5  24738945.451        3700.051
 -10837538.923 6  -8456015.751 5  23805980.534        -829.508
  -9558106.035 7  -7440983.492 7  22366973.416       -2164.680
   -254755.911 8 -12786151.926 9  21220870.718        -292.405
  -6341205.714 6  -4956696.156 5  23316254.602        -858.874
  -7538404.486 8 -13652036.670 9  21272883.349        -381.100
 93  5 10  4 39 30.0010000  0  7 20 16 22 23 17 26  3                0.001942730
  -8104683.941 5   3496937.420 5  24612425.112        3948.167
   4127694.125 6   3169307.157 5  24760077.802        3703.211
 -10862172.204 6  -8475210.491 5  23801292.977        -812.580
  -9622874.637 7  -7491452.517 7  22354648.409       -2153.140
   -263406.868 8 -12792892.922 9  21219224.446        -284.354
  -6366753.297 6  -4976603.344 5  23311393.098        -844.258
  -7549679.700 8 -13660822.547 9  21270737.835        -370.795
 93  5 10  4 40  0.0010000  0  7 20 16 22 23 17 26  3                0.001949290
  -7986235.849 5   3589234.625 5  24634963.997        3948.405
   4238847.383 5   3255920.075 5  24781230.190        3707.018
 -10886291.645 6  -8494004.827 5  23796703.426        -795.383
  -9687282.726 7  -7541640.600 7  22342391.785       -2140.801
   -271810.102 8 -12799440.881 9  21217625.284        -275.981
  -6391852.476 6  -4996161.126 5  23306616.007        -828.868
  -7560636.796 8 -13669360.534 9  21268652.868        -359.954
 93  5 10  4 40 30.0010000  0  7 20 16 22 23 17 26  3                0.001955850
  -7867785.242 5   3681533.704 5  24657504.913        3948.297
   4350116.563 5   3342623.394 5  24802404.614        3711.006
 -10909892.773 6  -8512395.302 5  23792212.321        -777.969
  -9751326.352 7  -7591544.687 7  22330204.600       -2128.792
   -279966.496 8 -12805796.483 9  21216073.298        -267.753
  -6416488.674 6  -5015358.147 5  23301928.532        -813.525
  -7571269.486 8 -13677645.737 9  21266629.357        -349.116
 93  5 10  4 41  0.0010000  0  7 20 16 22 23 17 26  3                0.001962410
  -7749335.655 5   3773832.021 5  24680045.256        3948.229
   4461504.991 5   3429419.558 5  24823600.382        3714.742
 -10932970.216 6  -8530377.691 5  23787820.885        -760.590
  -9815007.395 7  -7641166.244 7  22318086.412       -2116.550
   -287873.517 8 -12811957.780 9  21214568.579        -259.394
  -6440659.896 6  -5034192.829 5  23297329.033        -798.050
  -7581576.328 8 -13685677.034 9  21264668.235        -338.305
 93  5 10  4 41 30.0010000  0  7 20 16 22 23 17 26  3                0.001968970
  -7630890.912 5   3866126.590 5  24702584.798        3948.046
   4573008.888 5   3516305.718 5  24844818.260        3718.638
 -10955520.912 6  -8547949.654 5  23783528.966        -742.818
  -9878312.625 7  -7690494.980 7  22306039.529       -2103.687
   -295532.573 8 -12817925.860 9  21213111.169        -251.405
  -6464373.090 6  -5052670.655 5  23292816.419        -782.880
  -7591556.435 8 -13693453.743 9  21262769.031        -327.270
 93  5 10  4 42  0.0010000  0  7 20 16 22 23 17 26  3                0.001975530
  -7512449.537 5   3958418.479 5  24725124.084        3947.943
   4684622.237 5   3603277.127 5  24866057.487        3722.133
 -10977542.218 6  -8565109.112 5  23779338.448        -725.231
  -9941228.770 7  -7739520.508 7  22294067.048       -2090.847
   -302958.080 8 -12823711.957 9  21211698.187        -243.614
  -6487625.482 6  -5070789.388 5  23288391.562        -767.377
  -7601203.414 8 -13700970.852 9  21260933.243        -316.100
 93  5 10  4 42 30.0010000  0  7 20 16 22 23 17 26  3                0.001982090
  -7394013.800 5   4050705.990 5  24747661.169        3947.442
   4796340.173 5   3690330.073 5  24887316.931        3725.280
 -10999032.020 6  -8581854.384 5  23775248.586        -707.868
 -10003767.250 7  -7788251.756 7  22282166.228       -2078.636
   -310146.772 8 -12829313.516 9  21210330.293        -235.791
  -6510418.827 6  -5088550.401 5  23284054.225        -752.415
  -7610515.169 8 -13708226.765 9  21259161.289        -305.131
 93  5 10  4 43  0.0010000  0  7 20 16 22 23 17 26  3                0.001988630
  -7275597.513 5   4142978.382 5  24770195.394        3947.041
   4908127.656 5   3777437.206 5  24908589.234        3727.469
 -11020021.825 6  -8598210.046 5  23771255.223        -691.356
 -10065941.633 7  -7836699.304 7  22270335.119       -2066.333
   -317104.467 8 -12834735.077 9  21209006.191        -227.865
  -6532765.941 6  -5105963.720 5  23279801.509        -737.153
  -7619500.448 8 -13715228.260 9  21257451.351        -293.958
 93  5 10  4 43 30.0010000  0  7 20 16 22 23 17 26  3                0.001995150
  -7157195.604 5   4235239.531 5  24792726.376        3946.516
   5019985.726 5   3864599.312 5  24929875.395        3729.909
 -11040520.183 6  -8614182.780 5  23767354.273        -675.057
 -10127762.123 7  -7884871.079 8  22258570.881       -2054.965
   -323824.661 8 -12839971.575 9  21207727.296        -220.144
  -6554650.395 6  -5123016.524 6  23275636.699        -721.590
  -7628149.609 8 -13721967.867 9  21255805.611        -282.744
 93  5 10  4 44  0.0020000  0  7 20 16 22 23 17 26  3                0.002001660
  -7038804.221 5   4327492.476 5  24815255.939        3945.993
   5131924.618 5   3951824.416 5  24951176.837        3732.642
 -11060535.627 6  -8629779.247 5  23763545.663        -659.089
 -10189249.465 7  -7932783.258 8  22246870.631       -2044.068
   -330312.561 8 -12845027.060 9  21206492.651        -212.295
  -6576062.662 6  -5139701.372 6  23271562.542        -705.939
  -7636458.107 8 -13728442.011 9  21254224.435        -271.370
 93  5 10  4 44 30.0020000  0  7 20 16 22 23 17 26  3                0.002008140
  -6920437.053 5   4419726.577 5  24837780.373        3945.130
   5243947.960 5   4039115.346 5  24972493.436        3735.574
 -11080069.417 6  -8645000.353 5  23759829.430        -643.330
 -10250406.620 7  -7980438.157 8  22235232.719       -2032.942
   -336562.857 8 -12849897.409 9  21205303.333        -204.402
  -6597014.160 6  -5156027.218 6  23267576.062        -690.716
  -7644426.446 8 -13734651.118 9  21252708.048        -260.126
 93  5 10  4 45  0.0020000  0  7 20 16 22 23 17 26  3                0.002014620
  -6802091.413 5   4511943.884 5  24860301.042        3944.403
   5356074.519 5   4126486.742 5  24993830.404        3739.517
 -11099122.530 6  -8659846.914 5  23756203.606        -626.648
 -10311214.515 7  -8027820.896 8  22223661.190       -2021.083
   -342567.272 8 -12854576.156 9  21204160.834        -196.102
  -6617496.648 6  -5171987.567 6  23263677.913        -674.886
  -7652051.362 8 -13740592.574 9  21251257.201        -248.582
 93  5 10  4 45 30.0020000  0  7 20 16 22 23 17 26  3                0.002021100
  -6683769.303 5   4604142.831 5  24882817.115        3943.607
   5468327.944 5   4213956.931 5  25015191.810        3743.776
 -11117656.355 6  -8674288.849 5  23752676.733        -608.872
 -10371668.248 7  -8074927.678 8  22212157.252       -2009.069
   -348327.729 8 -12859064.821 9  21203064.723        -188.197
  -6637503.002 6  -5187576.951 6  23259870.564        -659.054
  -7659330.222 8 -13746264.393 9  21249871.981        -236.990
 93  5 10  4 46  0.0020000  0  7 20 16 22 23 17 26  3                0.002027600
  -6565477.082 5   4696318.536 5  24905327.652        3942.677
   5580696.870 5   4301517.197 5  25036575.349        3747.622
 -11135652.864 6  -8688312.098 5  23749251.211        -590.797
 -10431748.989 7  -8121743.817 8  22200724.498       -1996.283
   -353854.770 8 -12863371.587 9  21202012.890        -180.133
  -6657042.470 6  -5202802.477 6  23256152.439        -643.486
  -7666264.673 8 -13751667.864 9  21248552.393        -225.477
 93  5 10  4 46 30.0020000  0  7 20 16 22 23 17 26  3                0.002034110
  -6447213.832 5   4788471.610 5  24927831.994        3941.662
   5693182.580 5   4389168.432 5  25057980.625        3751.411
 -11153096.672 6  -8701904.640 5  23745932.001        -572.224
 -10491441.196 7  -8168257.183 8  22189365.465       -1983.183
   -359132.809 8 -12867484.327 9  21201008.557        -171.765
  -6676102.950 6  -5217654.791 6  23252525.642        -627.012
  -7672849.509 8 -13756798.897 9  21247299.470        -213.688
 93  5 10  4 47  0.0020000  0  7 20 16 22 23 17 26  3                0.002040640
  -6328982.794 5   4880599.575 5  24950330.233        3940.477
   5805768.588 5   4476897.782 5  25079405.028        3754.310
 -11169986.030 6  -8715065.168 5  23742718.066        -553.557
 -10550752.761 7  -8214473.971 8  22178078.645       -1970.809
   -364172.028 8 -12871410.980 9  21200049.612        -164.261
  -6694662.340 6  -5232116.635 6  23248993.357        -610.126
  -7679082.959 8 -13761656.130 9  21246113.332        -201.992
 93  5 10  4 47 30.0020000  0  7 20 16 22 23 17 26  3                0.002047170
  -6210786.344 5   4972700.607 5  24972822.313        3938.993
   5918430.740 5   4564686.606 5  25100843.865        3755.998
 -11186326.112 6  -8727797.699 5  23739609.042        -536.190
 -10609692.891 7  -8260401.323 8  22166862.780       -1958.657
   -368996.365 8 -12875170.179 9  21199131.778        -157.643
  -6712712.753 6  -5246181.887 6  23245558.846        -593.555
  -7684962.747 8 -13766237.776 9  21244994.136        -190.419
 93  5 10  4 48  0.0020000  0  7 20 16 22 23 17 26  3                0.002053680
  -6092628.963 5   5064771.200 5  24995307.299        3938.034
   6031141.934 5   4652513.602 5  25122291.809        3757.937
 -11202153.643 6  -8740130.804 5  23736597.017        -519.198
 -10668258.039 7  -8306036.461 8  22155718.224       -1946.053
   -373613.182 8 -12878767.683 9  21198252.875        -150.270
  -6730258.346 6  -5259853.756 6  23242220.474        -576.302
  -7690488.681 8 -13770543.692 9  21243943.024        -178.326
 93  5 10  4 48 30.0020000  0  7 20 16 22 23 17 26  3                0.002060180
  -5974512.685 5   5156809.770 5  25017784.983        3936.500
   6143899.203 5   4740376.491 5  25143749.046        3759.233
 -11217480.899 6  -8752074.089 5  23733680.026        -502.592
 -10726467.263 7  -8351394.272 8  22144641.383       -1934.430
   -378018.158 8 -12882200.114 9  21197414.945        -143.458
  -6747288.843 6  -5273124.264 6  23238979.350        -559.162
  -7695658.407 8 -13774572.035 9  21242958.945        -166.445
 93  5 10  4 49  0.0020000  0  7 20 16 22 23 17 26  3                0.002066660
  -5856435.594 5   5248817.751 5  25040253.879        3935.282
   6256695.358 5   4828269.636 5  25165213.694        3760.657
 -11232308.121 6  -8763627.769 5  23730858.020        -485.878
 -10784318.039 7  -8396472.771 8  22133632.625       -1922.197
   -382215.471 8 -12885470.736 9  21196615.508        -136.261
  -6763809.009 6  -5285997.112 6  23235835.637        -542.374
  -7700465.479 8 -13778317.794 9  21242044.658        -154.248
 93  5 10  4 49 30.0020000  0  7 20 16 22 23 17 26  3                0.002073120
  -5738403.484 5   5340790.714 5  25062714.375        3933.501
   6369537.420 5   4916198.562 5  25186686.693        3762.228
 -11246640.310 6  -8774795.697 5  23728130.905        -469.503
 -10841802.713 7  -8441265.982 8  22122693.878       -1910.130
   -386189.568 8 -12888567.416 9  21195859.859        -128.490
  -6779846.607 6  -5298493.914 6  23232783.767        -526.840
  -7704910.577 8 -13781781.505 9  21241198.025        -142.309
 93  5 10  4 50  0.0020000  0  7 20 16 22 23 17 26  3                0.002079570
  -5620416.753 5   5432728.339 5  25085165.948        3932.114
   6482442.406 5   5004176.583 5  25208170.829        3764.882
 -11260458.497 6  -8785563.080 6  23725501.607        -451.692
 -10898917.959 7  -8485771.357 8  22111824.862       -1897.697
   -389911.598 8 -12891467.681 9  21195151.672        -119.608
  -6795410.866 6  -5310621.903 6  23229821.810        -510.964
  -7708989.648 8 -13784959.982 9  21240421.760        -129.952
 93  5 10  4 50 30.0020000  0  7 20 16 22 23 17 26  3                0.002086020
  -5502484.730 5   5524623.286 5  25107607.990        3930.207
   6595421.224 5   5092212.105 5  25229669.699        3767.327
 -11273747.684 6  -8795918.292 5  23722973.190        -434.056
 -10955670.950 7  -8529994.439 8  22101025.099       -1885.310
   -393375.425 8 -12894166.750 9  21194491.889        -111.209
  -6810518.560 6  -5322394.113 6  23226947.991        -496.090
  -7712707.483 8 -13787856.998 9  21239714.661        -117.946
 93  5 10  4 51  0.0020000  0  7 20 16 22 23 17 26  3                0.002092470
  -5384602.448 5   5616479.511 5  25130039.824        3928.402
   6708491.772 5   5180319.118 5  25251186.628        3770.620
 -11286492.808 6  -8805849.533 5  23720547.797        -415.776
 -11012022.413 7  -8573904.637 8  22090301.713       -1871.739
   -396573.431 8 -12896658.697 9  21193882.888        -102.166
  -6825169.755 6  -5333810.604 6  23224159.278        -480.747
  -7716054.458 8 -13790465.021 9  21239078.250        -105.571
 93  5 10  4 51 30.0020000  0  7 20 16 22 23 17 26  3                0.002098940
  -5266773.865 5   5708293.874 5  25152462.717        3926.943
   6821666.220 5   5268507.017 5  25272723.278        3774.304
 -11298691.406 6  -8815354.917 5  23718226.735        -397.156
 -11067972.533 7  -8617502.109 8  22079654.653       -1858.143
   -399506.668 8 -12898944.305 9  21193324.617         -93.342
  -6839353.664 6  -5344862.993 6  23221460.141        -464.517
  -7719030.047 8 -13792783.688 9  21238512.104         -92.820
 93  5 10  4 52  0.0020000  0  7 20 16 22 23 17 26  3                0.002105420
  -5148997.503 5   5800067.552 5  25174875.742        3924.887
   6934934.503 5   5356768.117 5  25294277.789        3776.863
 -11310332.000 6  -8824425.484 5  23716011.176        -378.961
 -11123517.659 7  -8660783.989 8  22069085.151       -1844.903
   -402188.288 8 -12901033.884 9  21192814.083         -85.522
  -6853048.259 6  -5355534.090 6  23218853.439        -448.424
  -7721628.294 8 -13794808.262 9  21238017.667         -80.646
 93  5 10  4 52 30.0020000  0  7 20 16 22 23 17 26  3                0.002111910
  -5031285.158 5   5891791.332 5  25197275.959        3922.623
   7048274.089 5   5445084.763 5  25315845.067        3778.940
 -11321428.202 6  -8833071.867 5  23713899.628        -360.966
 -11178661.999 7  -8703753.587 8  22058591.277       -1831.487
   -404641.811 8 -12902945.704 9  21192347.053         -78.287
  -6866247.069 6  -5365818.863 6  23216341.111        -431.368
  -7723856.377 8 -13796544.415 9  21237593.760         -68.261
 93  5 10  4 53  0.0020000  0  7 20 16 22 23 17 26  3                0.002118390
  -4913637.345 5   5983464.846 5  25219662.794        3920.684
   7161672.229 5   5533447.036 5  25337423.647        3780.995
 -11331983.647 6  -8841296.874 5  23711891.107        -342.695
 -11233407.999 7  -8746412.769 8  22048173.338       -1818.326
   -406878.247 8 -12904688.368 9  21191922.205         -70.735
  -6878917.628 6  -5375691.995 6  23213930.637        -413.154
  -7725709.942 8 -13797988.745 9  21237240.806         -55.503
 93  5 10  4 53 30.0020000  0  6 20 22 23 17 26  3                   0.002124820
  -4796054.658 5   6075087.546 5  25242039.025        3918.200
 -11341996.224 6  -8849098.869 5  23709985.780        -324.848
 -11287770.159 7  -8788772.867 8  22037828.250       -1805.783
   -408895.312 8 -12906260.102 9  21191539.032         -63.713
  -6891046.894 6  -5385143.374 6  23211622.724        -395.545
  -7727185.396 8 -13799138.449 9  21236959.328         -43.077
 93  5 10  4 54  0.0020000  0  6 20 22 23 17 26  3                   0.002131310
  -4678545.208 5   6166653.192 5  25264400.330        3915.832
 -11351476.279 6  -8856485.899 5  23708181.340        -307.174
 -11341753.049 7  -8830837.428 8  22027555.590       -1793.000
   -410695.834 8 -12907663.080 9  21191195.811         -56.210
  -6902648.427 6  -5394183.537 6  23209415.405        -377.713
  -7728286.278 8 -13799996.273 9  21236750.294         -30.447
 93  5 10  4 54 30.0020000  0  6 20 22 23 17 26  3                   0.002137800
  -4561105.365 5   6258164.628 5  25286747.852        3913.382
 -11360430.471 6  -8863463.175 5  23706477.415        -290.069
 -11395351.015 7  -8872602.045 8  22017356.849       -1780.246
   -412269.178 8 -12908889.041 9  21190896.848         -48.716
  -6913706.068 6  -5402799.854 6  23207310.926        -359.676
  -7729004.213 8 -13800555.694 9  21236613.079         -17.770
 93  5 10  4 55  0.0020000  0  6 20 22 23 17 26  3                   0.002144290
  -4443741.186 5   6349617.070 5  25309081.795        3910.861
 -11368872.795 6  -8870041.583 5  23704870.370        -272.777
 -11448564.170 7  -8914066.807 8  22007230.493       -1767.198
   -413607.979 8 -12909932.245 9  21190641.923         -40.471
  -6924234.117 6  -5411003.517 6  23205307.600        -342.335
  -7729340.815 8 -13800817.970 9  21236549.423          -4.917
 93  5 10  4 55 30.0020000  0  6 20 22 23 17 26  3                   0.002150760
  -4326452.707 5   6441010.558 5  25331401.659        3908.263
 -11376800.633 6  -8876219.098 6  23703361.453        -255.765
 -11501382.388 7  -8955223.824 8  21997179.130       -1754.143
   -414695.937 8 -12910780.002 9  21190434.657         -32.147
  -6934254.884 6  -5418811.892 6  23203400.760        -325.787
  -7729291.793 8 -13800779.772 9  21236558.615           7.877
 93  5 10  4 56  0.0020000  0  7 20 22 23 21 17 26  3                0.002157230
  -4209246.473 5   6532339.873 5  25353705.474        3905.493
 -11384219.652 6  -8882000.141 6  23701950.621        -238.721
 -11553811.593 7  -8996077.725 8  21987202.286       -1741.012
   -216162.19815   -180225.73611  24873582.040       -3001.838
   -415535.797 8 -12911434.425 9  21190275.127         -23.869
  -6943774.690 6  -5426229.930 6  23201589.341        -308.899
  -7728859.086 8 -13800442.582 9  21236640.921          20.702
 93  5 10  4 56 30.0020000  0  7 20 22 23 21 17 26  3                0.002163650
  -4092125.227 5   6623603.047 5  25375992.366        3902.526
 -11391118.931 6  -8887376.186 6  23700637.760        -221.242
 -11605840.737 7  -9036619.891 8  21977301.442       -1727.792
   -306154.703 5   -250349.723 2  24856457.681       -2997.768
   -416125.349 8 -12911893.799 9  21190162.965         -15.533
  -6952789.493 6  -5433254.438 6  23199874.243        -292.358
  -7728041.259 8 -13799805.321 9  21236796.511          33.491
 93  5 10  4 57  0.0020000  0  7 20 22 23 21 17 26  3                0.002170060
  -3975094.517 5   6714795.623 5  25398263.243        3899.566
 -11397483.481 6  -8892335.554 6  23699426.078        -203.053
 -11657479.664 7  -9076857.992 8  21967474.774       -1714.880
   -396009.223 5   -320366.191 4  24839358.358       -2992.342
   -416465.724 8 -12912159.015 9  21190098.181          -7.294
  -6961314.989 6  -5439897.660 6  23198251.536        -275.994
  -7726839.119 8 -13798868.575 9  21237025.442          46.442
 93  5 10  4 57 30.0020000  0  7 20 22 23 21 17 26  3                0.002176480
  -3858151.009 5   6805920.266 5  25420515.917        3896.533
 -11403301.298 6  -8896868.897 5  23698319.128        -184.890
 -11708737.512 7  -9116799.128 8  21957720.845       -1702.444
   -485690.603 5   -390247.691 4  24822292.008       -2986.365
   -416565.676 8 -12912236.880 9  21190079.536           0.492
  -6969349.701 6  -5446158.454 6  23196722.500        -259.640
  -7725245.219 8 -13797626.557 9  21237328.723          59.497
 93  5 10  4 58  0.0020000  0  6 22 23 21 17 26  3                   0.002182840
 -11408579.647 6  -8900981.858 5  23697314.139        -167.055
 -11759622.213 7  -9156449.523 8  21948037.980       -1689.897
   -575190.345 5   -459987.688 4  24805260.535       -2980.315
   -416440.440 8 -12912139.276 9  21190103.238           7.923
  -6976892.554 6  -5452035.998 6  23195287.017        -243.283
  -7723261.744 8 -13796080.985 9  21237706.131          72.495
 93  5 10  4 58 30.0020000  0  6 22 23 21 17 26  3                   0.002189260
 -11413323.254 6  -8904678.170 5  23696411.854        -149.386
 -11810131.295 7  -9195807.220 8  21938426.223       -1677.586
   -664513.038 5   -529589.799 4  24788263.487       -2974.703
   -416087.747 8 -12911864.448 9  21190170.279          15.450
  -6983944.596 6  -5457531.101 6  23193945.231        -226.967
  -7720886.498 8 -13794230.136 9  21238158.129          85.592
 93  5 10  4 59  0.0020000  0  6 22 23 21 17 26  3                   0.002195680
 -11417547.061 6  -8907969.425 5  23695608.282        -132.233
 -11860275.538 7  -9234880.631 8  21928883.917       -1665.213
   -753670.922 5   -599063.441 5  24771297.740       -2969.178
   -415516.619 8 -12911419.394 9  21190278.797          22.657
  -6990513.552 6  -5462649.753 6  23192695.054        -210.848
  -7718118.707 8 -13792073.411 9  21238684.785          98.764
 93  5 10  4 59 30.0020000  0  6 22 23 21 17 26  3                   0.002202080
 -11421259.825 6  -8910862.463 5  23694902.061        -115.262
 -11910035.390 7  -9273654.514 8  21919415.176       -1652.012
   -842675.175 5   -668417.333 5  24754360.304       -2964.686
   -414722.904 8 -12910800.902 9  21190429.609          30.291
  -6996581.655 6  -5467378.151 6  23191540.382        -193.612
  -7714952.663 8 -13789606.357 9  21239287.267         112.040
 93  5 10  5  0  0.0020000  0  6 22 23 21 17 26  3                   0.002208450
 -11424468.159 6  -8913362.456 5  23694291.522         -98.400
 -11959391.982 7  -9312114.163 8  21910023.016       -1638.329
   -931555.725 5   -737674.903 5  24737445.606       -2960.769
   -413704.573 8 -12910007.389 9  21190623.349          37.668
  -7002125.616 6  -5471698.104 6  23190485.600        -175.911
  -7711392.172 8 -13786831.945 9  21239964.997         125.205
 93  5 10  5  0 30.0020000  0  6 22 23 21 17 26  3                   0.002214810
 -11427163.638 6  -8915462.808 5  23693778.712         -81.271
 -12008337.944 7  -9350253.855 9  21900708.814       -1624.679
  -1020312.493 5   -806835.949 5  24720555.276       -2956.395
   -412466.101 8 -12909042.322 9  21190859.145          44.887
  -7007135.624 6  -5475602.000 6  23189531.742        -158.080
  -7707432.378 8 -13783746.376 9  21240718.407         138.540
 93  5 10  5  1  0.0020000  0  6 22 23 21 17 26  3                   0.002221160
 -11429342.429 6  -8917160.543 5  23693364.067         -63.877
 -12056869.674 7  -9388070.762 9  21891473.498       -1610.788
  -1108932.810 5   -875890.692 5  24703692.324       -2951.655
   -411011.716 8 -12907909.031 9  21191135.962          52.092
  -7011604.112 6  -5479083.939 6  23188682.059        -139.652
  -7703070.497 8 -13780347.501 9  21241548.382         152.020
 93  5 10  5  1 30.0020000  0  6 22 23 21 17 26  3                   0.002227520
 -11430987.941 6  -8918442.746 5  23693051.109         -45.607
 -12104984.807 7  -9425563.042 9  21882317.456       -1596.790
  -1197410.025 5   -944833.942 5  24686855.445       -2946.576
   -409337.032 8 -12906604.048 9  21191454.681          59.653
  -7015511.525 6  -5482128.657 6  23187938.466        -120.815
  -7698300.909 8 -13776630.921 9  21242456.023         165.833
 93  5 10  5  2  0.0020000  0  6 22 23 21 17 26  3                   0.002233890
 -11432079.520 6  -8919293.304 5  23692843.593         -27.130
 -12152685.844 7  -9462732.672 9  21873240.381       -1583.465
  -1285724.306 5  -1013650.234 5  24670050.021       -2941.000
   -407441.161 8 -12905126.750 9  21191815.573          66.709
  -7018868.010 6  -5484744.100 6  23187299.367        -103.013
  -7693117.810 8 -13772592.154 9  21243442.272         179.495
 93  5 10  5  2 30.0020000  0  6 22 23 21 17 26  3                   0.002240290
 -11432617.048 6  -8919712.160 5  23692741.306          -8.835
 -12199999.471 7  -9499600.387 9  21864236.575       -1570.738
  -1373871.867 5  -1082336.569 5  24653275.437       -2935.437
   -405332.590 8 -12903483.679 9  21192216.626          73.980
  -7021700.774 6  -5486951.445 6  23186760.710         -85.697
  -7687528.179 8 -13768236.589 9  21244506.183         192.926
 93  5 10  5  3  0.0020000  0  6 22 23 21 17 26  3                   0.002246710
 -11432601.860 6  -8919700.295 5  23692743.795           9.984
 -12246918.193 7  -9536160.425 9  21855308.474       -1557.139
  -1461840.133 5  -1150883.227 5  24636535.677       -2929.264
   -402995.787 8 -12901662.796 9  21192661.246          81.750
  -7024004.336 6  -5488746.407 6  23186323.172         -67.836
  -7681528.480 8 -13763561.487 9  21245647.814         206.813
 93  5 10  5  3 30.0020000  0  6 22 23 21 17 26  3                   0.002253150
 -11432021.136 6  -8919247.763 5  23692854.480          28.579
 -12293425.966 7  -9572400.218 9  21846458.151       -1543.308
  -1549627.445 5  -1219288.876 5  24619830.270       -2923.206
   -400430.314 8 -12899663.700 9  21193149.557          89.258
  -7025775.857 6  -5490126.826 6  23185985.109         -50.232
  -7675114.727 8 -13758563.764 9  21246868.258         220.554
 93  5 10  5  4  0.0020000  0  6 22 23 21 17 26  3                   0.002259590
 -11430895.772 6  -8918370.832 5  23693068.620          46.324
 -12339513.529 7  -9608312.588 9  21837687.864       -1529.115
  -1637233.019 5  -1287552.887 5  24603159.828       -2917.093
   -397637.472 8 -12897487.456 9  21193680.930          96.923
  -7027019.645 6  -5491096.006 6  23185747.900         -32.470
  -7668289.916 8 -13753245.722 9  21248166.990         234.337
 93  5 10  5  4 30.0020000  0  6 22 23 21 17 26  3                   0.002266030
 -11429251.850 6  -8917089.848 5  23693381.594          63.217
 -12385168.179 7  -9643887.607 9  21829000.066       -1514.483
  -1724652.613 5  -1355671.987 5  24586524.996       -2910.875
   -394611.165 8 -12895129.280 9  21194256.681         104.902
  -7027727.482 6  -5491647.568 6  23185613.953         -14.617
  -7661046.212 8 -13747601.282 9  21249545.507         248.306
 93  5 10  5  5  0.0020000  0  6 22 23 21 17 26  3                   0.002272440
 -11427105.067 6  -8915417.011 5  23693790.189          79.768
 -12430390.512 7  -9679125.778 9  21820394.406       -1500.697
  -1811894.190 5  -1423652.383 5  24569923.480       -2905.611
   -391351.487 8 -12892589.268 9  21194876.982         112.189
  -7027901.201 6  -5491782.921 6  23185580.656           2.757
  -7653386.758 8 -13741632.870 9  21251003.095         261.884
 93  5 10  5  5 30.0020000  0  6 22 23 21 17 26  3                   0.002278820
 -11424457.225 6  -8913353.738 5  23694293.510          96.521
 -12475205.972 7  -9714046.885 9  21811866.599       -1487.170
  -1898978.589 5  -1491510.300 5  24553351.918       -2900.058
   -387860.809 8 -12889869.240 9  21195541.312         120.622
  -7027551.410 6  -5491510.377 6  23185645.421          20.389
  -7645311.979 8 -13735340.826 9  21252539.615         276.113
 93  5 10  5  6  0.0020000  0  6 22 23 21 17 26  3                   0.002285180
 -11421319.834 6  -8910909.008 5  23694890.714         112.619
 -12519632.038 7  -9748664.568 9  21803412.532       -1474.863
  -1985902.200 5  -1559242.924 5  24536811.968       -2894.983
   -384117.520 8 -12886952.386 9  21196253.588         128.799
  -7026685.930 6  -5490835.939 6  23185810.416          37.070
  -7636816.758 8 -13728721.164 9  21254156.264         289.853
 93  5 10  5  6 30.0020000  0  6 22 23 21 17 26  3                   0.002291520
 -11417676.602 6  -8908070.113 5  23695584.227         130.492
 -12563690.576 7  -9782995.891 9  21795028.126       -1462.421
  -2072668.519 5  -1626852.992 5  24520300.643       -2889.565
   -380117.063 8 -12883835.140 9  21197014.752         137.948
  -7025311.278 6  -5489764.813 6  23186072.334          54.680
  -7627901.937 8 -13721774.548 9  21255852.609         304.227
 93  5 10  5  7  0.0020000  0  6 22 23 21 17 26  3                   0.002297860
 -11413491.414 6  -8904808.900 5  23696380.358         148.470
 -12607379.780 7  -9817039.395 9  21786714.801       -1450.249
  -2159277.831 5  -1694340.671 5  24503818.440       -2884.393
   -375848.730 8 -12880509.159 9  21197827.038         146.356
  -7023404.747 6  -5488279.190 6  23186436.687          72.393
  -7618555.112 8 -13714491.302 9  21257631.268         318.578
 93  5 10  5  7 30.0020000  0  6 22 23 21 17 26  3                   0.002304210
 -11408771.001 6  -8901130.644 5  23697278.476         166.197
 -12650699.811 7  -9850795.242 9  21778470.949       -1437.558
  -2245728.988 5  -1761705.170 5  24487366.544       -2878.999
   -371335.945 8 -12876992.699 9  21198685.996         154.338
  -7020966.149 6  -5486378.973 6  23186900.495          90.282
  -7608782.815 8 -13706876.522 9  21259491.010         332.697
 93  5 10  5  8  0.0020000  0  6 22 23 21 17 26  3                   0.002310570
 -11403516.182 6  -8897035.990 5  23698278.852         184.454
 -12693627.534 7  -9884245.407 9  21770301.832       -1423.925
  -2332018.621 5  -1828943.757 5  24470945.530       -2873.551
   -366599.846 8 -12873302.213 9  21199587.124         161.405
  -7017982.681 6  -5484054.206 6  23187467.360         108.827
  -7598585.693 8 -13698930.715 9  21261431.437         347.048
 93  5 10  5  8 30.0020000  0  6 22 23 21 17 26  3                   0.002316940
 -11397713.282 6  -8892514.246 5  23699382.129         202.638
 -12736133.879 7  -9917367.208 9  21762213.014       -1409.416
  -2418153.337 5  -1896061.662 5  24454554.496       -2868.478
   -361665.823 8 -12869457.521 9  21200526.150         167.795
  -7014441.923 6  -5481295.180 6  23188140.337         127.402
  -7587960.657 8 -13690651.470 9  21263453.189         361.351
 93  5 10  5  9  0.0020000  0  6 22 23 21 17 26  3                   0.002323320
 -11391366.440 6  -8887568.633 5  23700590.004         220.534
 -12778194.070 7  -9950141.365 9  21754209.364       -1394.616
  -2504120.939 5  -1963049.363 5  24438194.902       -2862.611
   -356539.338 8 -12865462.840 9  21201501.836         173.981
  -7010349.393 6  -5478106.196 6  23188919.127         145.303
  -7576903.457 8 -13682035.464 9  21265557.253         375.581
 93  5 10  5  9 30.0020000  0  6 22 23 21 17 26  3                   0.002329680
 -11384473.657 6  -8882197.632 5  23701901.754         238.650
 -12819800.900 7  -9982562.248 9  21746291.726       -1379.522
  -2589901.337 5  -2029891.169 5  24421871.996       -2856.477
   -351211.751 8 -12861311.473 9  21202515.464         180.991
  -7005721.044 6  -5474499.688 6  23189799.774         162.782
  -7565412.237 8 -13673081.258 9  21267744.008         390.017
 93  5 10  5 10  0.0020000  0  6 22 23 21 17 26  3                   0.002336030
 -11377032.558 6  -8876399.375 5  23703317.523         257.012
 -12860953.184 7 -10014628.937 9  21738461.055       -1364.508
  -2675497.677 5  -2096589.583 5  24405583.807       -2850.102
   -345662.410 8 -12856987.306 9  21203571.332         188.762
  -7000571.886 6  -5470487.365 6  23190780.425         180.018
  -7553483.575 8 -13663786.207 9  21270014.016         404.634
 93  5 10  5 10 30.0020000  0  6 22 23 21 17 26  3                   0.002342360
 -11369049.876 6  -8870179.079 5  23704836.643         275.044
 -12901671.707 7 -10046357.634 9  21730712.261       -1350.225
  -2760895.615 5  -2163133.365 5  24389333.854       -2843.045
   -339869.572 8 -12852473.400 9  21204673.829         197.513
  -6994915.999 6  -5466080.181 6  23191857.423         197.082
  -7541118.340 8 -13654150.956 9  21272366.869         419.497
 93  5 10  5 11  0.0020000  0  6 22 23 21 17 26  3                   0.002348670
 -11360535.185 6  -8863544.261 5  23706457.457         292.444
 -12941977.878 7 -10077765.009 9  21723042.482       -1336.993
  -2846084.953 5  -2229514.644 5  24373123.526       -2836.408
   -333816.891 8 -12847757.011 9  21205825.423         205.934
  -6988746.600 6  -5461272.874 6  23193032.348         214.281
  -7528312.435 8 -13644172.323 9  21274803.728         434.030
 93  5 10  5 11 30.0020000  0  6 22 23 21 17 26  3                   0.002354970
 -11351505.917 6  -8856508.469 5  23708175.742         309.466
 -12981888.564 7 -10108864.229 9  21715447.737       -1323.674
  -2931088.552 5  -2295751.201 5  24356947.817       -2830.558
   -327507.444 8 -12842840.546 9  21207025.990         214.573
  -6982046.202 6  -5456051.786 6  23194307.565         232.467
  -7515066.748 8 -13633851.013 9  21277324.387         448.858
 93  5 10  5 12  0.0020000  0  6 22 23 21 17 26  3                   0.002361260
 -11341973.813 6  -8849080.860 5  23709989.636         326.057
 -13021405.034 7 -10139656.262 9  21707927.726       -1310.798
  -3015922.273 5  -2361855.319 5  24340804.676       -2824.839
   -320950.208 8 -12837730.992 9  21208274.018         222.424
  -6974791.790 6  -5450398.987 6  23195687.634         251.288
  -7501378.674 8 -13623184.965 9  21279929.082         463.475
 93  5 10  5 12 30.0020000  0  6 22 23 21 17 26  3                   0.002367550
 -11331952.326 6  -8841271.867 5  23711896.708         342.005
 -13060536.105 7 -10170147.975 9  21700481.269       -1297.855
  -3100592.066 5  -2427831.729 5  24324692.481       -2819.865
   -314170.981 8 -12832448.460 9  21209564.016         229.343
  -6966972.771 6  -5444306.250 6  23197175.576         270.001
  -7487254.570 8 -13612179.168 9  21282616.911         477.849
 93  5 10  5 13  0.0020000  0  6 22 23 21 17 26  3                   0.002373840
 -11321435.932 6  -8833077.282 5  23713897.799         359.238
 -13099259.033 7 -10200321.661 9  21693112.520       -1283.568
  -3185102.594 5  -2493684.095 5  24308610.233       -2814.134
   -307180.655 8 -12827001.445 9  21210894.305         236.803
  -6958582.978 6  -5437768.762 6  23198771.507         289.365
  -7472688.766 8 -13600829.206 9  21285388.631         493.078
 93  5 10  5 13 30.0020000  0  6 22 23 21 17 26  3                   0.002380130
 -11310410.783 5  -8824486.220 5  23715995.268         376.268
 -13137564.894 6 -10230170.363 9  21685822.798       -1269.680
  -3269448.044 5  -2559407.847 5  24292559.410       -2808.421
   -299970.099 6 -12821382.822 9  21212266.343         244.115
  -6949626.611 6  -5430789.861 6  23200476.203         308.050
  -7457676.467 7 -13589131.352 8  21288245.264         507.805
 93  5 10  5 14  0.0020000  0  6 22 23 21 17 26  3                   0.002386430
 -11298857.046 6  -8815483.283 5  23718193.947         393.950
 -13175445.431 6 -10259687.632 8  21678613.569       -1255.736
  -3353600.209 6  -2624980.882 5  24276545.936       -2801.902
   -292536.247 6 -12815590.187 9  21213681.086         251.245
  -6940105.658 6  -5423370.930 5  23202288.321         326.583
  -7442213.831 6 -13577082.528 8  21291187.737         522.640
 93  5 10  5 14 30.0020000  0  6 22 23 21 17 26  3                   0.002392730
 -11286768.112 5  -8806063.377 5  23720492.738         411.897
 -13212896.831 6 -10288870.511 7  21671486.978       -1241.283
  -3437557.211 5  -2690401.902 5  24260569.301       -2795.234
   -284877.636 6 -12809622.478 9  21215138.275         259.158
  -6930028.897 6  -5415518.934 5  23204205.447         344.950
  -7426303.779 7 -13564685.097 7  21294214.904         537.591
 93  5 10  5 15  0.0020000  0  6 22 23 21 17 26  3                   0.002399040
 -11274134.428 5  -8796218.990 5  23722897.107         430.556
 -13249921.303 6 -10317720.742 7  21664440.930       -1226.950
  -3521314.009 5  -2755666.840 5  24244628.940       -2788.356
   -276980.520 6 -12803468.886 9  21216640.944         267.542
  -6919404.437 6  -5407240.151 5  23206226.885         363.527
  -7409945.561 7 -13551938.429 7  21297327.607         552.874
 93  5 10  5 15 30.0020000  0  6 22 23 21 17 26  3                   0.002405360
 -11260948.667 6  -8785944.334 5  23725406.331         448.436
 -13286519.203 7 -10346238.558 7  21657477.129       -1213.043
  -3604866.381 5  -2820772.554 5  24228727.717       -2781.877
   -268835.662 8 -12797122.202 9  21218190.832         275.192
  -6908216.981 6  -5398522.582 5  23208355.277         382.050
  -7393131.905 8 -13538836.830 7  21300527.423         567.646
 93  5 10  5 16  0.0020000  0  6 22 23 21 17 26  3                   0.002411700
 -11247221.019 6  -8775247.456 5  23728019.184         466.685
 -13322693.773 7 -10374426.509 7  21650593.676       -1198.646
  -3688219.291 5  -2885722.773 5  24212866.812       -2775.134
   -260467.497 8 -12790601.544 9  21219783.379         282.700
  -6896471.850 6  -5389370.547 5  23210590.381         400.739
  -7375870.651 8 -13525386.506 7  21303812.448         582.899
 93  5 10  5 16 30.0020000  0  6 22 23 21 17 26  3                   0.002418040
 -11232955.429 6  -8764131.421 5  23730733.995         484.334
 -13358439.542 8 -10402280.346 8  21643791.854       -1184.643
  -3771376.960 6  -2950520.930 5  24197043.173       -2768.514
   -251872.837 8 -12783904.403 9  21221418.837         290.280
  -6884187.902 6  -5379798.645 5  23212928.045         418.131
  -7358154.407 8 -13511581.637 8  21307183.746         597.925
 93  5 10  5 17  0.0020000  0  6 22 23 21 17 26  3                   0.002424370
 -11218164.594 6  -8752606.098 5  23733548.757         501.895
 -13393776.516 8 -10429815.625 8  21637067.548       -1171.022
  -3854333.852 6  -3015162.590 5  24181258.670       -2762.089
   -243055.219 8 -12777033.532 9  21223096.736         297.610
  -6871385.197 6  -5369822.526 6  23215364.556         435.477
  -7339984.929 8 -13497423.610 8  21310641.190         613.190
 93  5 10  5 17 30.0020000  0  6 22 23 21 17 26  3                   0.002430680
 -11202853.505 6  -8740675.358 5  23736462.560         518.829
 -13428703.468 8 -10457031.417 9  21630421.421       -1157.561
  -3937096.665 5  -3079653.071 5  24165510.221       -2755.478
   -234016.335 8 -12769990.250 9  21224816.755         304.934
  -6858065.657 6  -5359443.681 6  23217899.261         452.322
  -7321357.291 8 -13482908.564 8  21314185.997         628.379
 93  5 10  5 18  0.0020000  0  6 22 23 21 17 26  3                   0.002436960
 -11187037.975 6  -8728351.585 5  23739471.728         535.313
 -13463225.227 8 -10483931.459 9  21623852.140       -1143.936
  -4019654.833 5  -3143984.075 5  24149799.013       -2748.538
   -224753.661 8 -12762772.582 9  21226579.225         312.585
  -6844244.873 6  -5348674.239 6  23220529.234         468.989
  -7302272.619 8 -13468037.402 8  21317817.820         643.667
 93  5 10  5 18 30.0020000  0  6 22 23 21 17 26  3                   0.002443190
 -11170733.067 6  -8715646.452 5  23742574.555         551.387
 -13497330.375 8 -10510506.889 9  21617362.270       -1130.106
  -4102002.352 5  -3208150.903 5  24134128.701       -2741.475
   -215249.826 8 -12755367.005 9  21228387.745         320.656
  -6829922.641 6  -5337514.063 6  23223254.856         485.721
  -7282726.896 8 -13452806.972 8  21321537.367         658.876
 93  5 10  5 19  0.0020000  0  6 22 23 21 17 26  3                   0.002449400
 -11153942.704 6  -8702563.076 5  23745769.807         567.997
 -13531017.675 8 -10536756.710 9  21610951.589       -1115.603
  -4184136.746 5  -3272151.662 5  24118499.353       -2734.213
   -205509.193 8 -12747776.900 9  21230241.120         328.637
  -6815073.293 6  -5325943.164 6  23226080.511         504.134
  -7262722.867 8 -13437219.409 8  21325343.723         674.474
 93  5 10  5 19 30.0020000  0  6 22 23 21 17 26  3                   0.002455600
 -11136654.241 6  -8689091.538 5  23749059.738         584.650
 -13564272.123 8 -10562669.241 9  21604623.711       -1101.264
  -4266049.221 5  -3335979.534 5  24102911.981       -2726.414
   -195533.827 8 -12740003.890 9  21232139.457         336.488
  -6799671.253 6  -5313941.593 6  23229011.369         522.756
  -7242254.109 8 -13421269.720 8  21329238.504         689.865
 93  5 10  5 20  0.0020000  0  6 22 23 21 17 26  3                   0.002461810
 -11118858.990 6  -8675225.115 5  23752446.444         601.534
 -13597089.959 8 -10588241.561 9  21598378.375       -1086.812
  -4347724.742 6  -3399622.737 5  24087369.502       -2718.906
   -185324.450 8 -12732048.523 9  21234082.421         343.877
  -6783697.554 6  -5301494.561 6  23232051.215         541.888
  -7221318.617 8 -13404956.361 8  21333222.437         705.417
 93  5 10  5 20 30.0020000  0  6 22 23 21 17 26  3                   0.002468040
 -11100543.102 6  -8660953.000 5  23755932.378         619.462
 -13629484.553 8 -10613484.096 9  21592213.760       -1073.188
  -4429183.377 5  -3463096.945 5  24071868.899       -2711.914
   -174893.779 8 -12723920.726 9  21236067.407         351.272
  -6767150.906 6  -5288601.076 6  23235200.235         561.124
  -7199918.031 8 -13388280.580 8  21337294.928         720.919
 93  5 10  5 21  0.0020000  0  6 22 23 21 17 26  3                   0.002474320
 -11081683.193 6  -8646256.950 5  23759521.483         637.741
 -13661481.140 8 -10638416.472 9  21586125.318       -1059.920
  -4510435.358 5  -3526410.136 5  24056407.084       -2705.093
   -164245.536 8 -12715623.397 9  21238093.813         358.575
  -6750023.523 6  -5275255.070 6  23238459.339         580.517
  -7178051.878 8 -13371242.025 8  21341455.917         736.533
 93  5 10  5 21 30.0020000  0  6 22 23 21 17 26  3                   0.002480620
 -11062282.025 6  -8631139.171 5  23763213.938         655.697
 -13693081.766 8 -10663040.304 9  21580111.700       -1046.596
  -4591486.639 5  -3589566.917 5  24040982.227       -2698.269
   -153373.323 8 -12707151.537 9  21240162.654         366.374
  -6732331.463 6  -5261469.059 6  23241825.708         599.053
  -7155721.059 8 -13353841.392 8  21345705.394         752.066
 93  5 10  5 22  0.0020000  0  6 22 23 21 17 26  3                   0.002486940
 -11042343.597 6  -8615602.726 5  23767007.821         673.380
 -13724274.279 8 -10687346.154 9  21574175.689       -1033.126
  -4672337.475 6  -3652567.536 5  24025595.793       -2691.883
   -142267.720 8 -12698497.820 9  21242275.938         373.804
  -6714080.151 6  -5247247.264 6  23245298.885         617.444
  -7132918.542 8 -13336073.208 8  21350044.732         767.780
 93  5 10  5 22 30.0020000  0  6 22 23 21 17 26  3                   0.002493270
 -11021876.509 6  -8599654.364 5  23770903.066         691.137
 -13755069.773 8 -10711342.622 9  21568315.886       -1019.564
  -4752990.264 6  -3715413.823 5  24010248.877       -2684.875
   -130933.814 8 -12689666.209 9  21244432.834         381.959
  -6695284.377 6  -5232601.229 6  23248875.290         635.845
  -7109646.678 8 -13317939.286 8  21354472.966         783.610
 93  5 10  5 23  0.0020000  0  6 22 23 21 17 26  3                   0.002499610
 -11000890.383 6  -8583301.519 5  23774896.893         707.893
 -13785444.593 8 -10735011.299 9  21562535.279       -1005.178
  -4833427.396 6  -3778092.083 5  23994943.060       -2677.547
   -119360.421 8 -12680647.981 9  21246635.112         389.741
  -6675934.514 6  -5217523.436 6  23252557.800         654.087
  -7085900.446 8 -13299435.742 8  21358991.876         799.373
 93  5 10  5 23 30.0020000  0  6 22 23 21 17 26  3                   0.002505920
 -10979411.670 6  -8566564.858 5  23778983.814         724.128
 -13815382.049 8 -10758339.177 9  21556838.762        -990.716
  -4913646.115 6  -3840600.091 5  23979677.955       -2670.370
   -107557.064 8 -12671450.567 9  21248881.206         397.195
  -6656042.301 6  -5202023.029 6  23256343.000         672.220
  -7061680.208 8 -13280562.831 8  21363600.967         815.157
 93  5 10  5 24  0.0020000  0  7 22 23 21 17 26  3 28                0.002512150
 -10957446.783 6  -8549449.375 5  23783162.848         739.881
 -13844893.750 8 -10781335.273 9  21551222.948        -977.094
  -4993652.288 6  -3902942.516 5  23964452.717       -2663.666
    -95534.323 8 -12662082.178 9  21251169.220         404.044
  -6635596.633 6  -5186091.349 6  23260233.846         690.515
  -7036983.610 8 -13261318.721 8  21368300.815         830.727
  -1832007.69615  -1093234.65115  25448514.271       -3271.789
 93  5 10  5 24 30.0020000  0  7 22 23 21 17 26  3 28                0.002518430
 -10935010.075 6  -8531966.246 5  23787432.015         755.778
 -13873987.422 8 -10804005.664 9  21545686.420        -962.462
  -5073453.077 6  -3965124.916 5  23949266.998       -2656.601
    -83294.166 8 -12652544.400 9  21253498.419         411.851
  -6614600.180 6  -5169730.504 6  23264229.287         709.280
  -7011812.995 8 -13241705.273 8  21373090.406         846.978
  -1930127.207 5  -1169691.385 5  25429843.942       -3269.480
 93  5 10  5 25  0.0020000  0  7 22 23 21 17 26  3 28                0.002524710
 -10912102.189 6  -8514115.954 5  23791791.134         771.437
 -13902643.469 8 -10826335.031 9  21540233.766        -948.139
  -5153051.214 6  -4027149.393 5  23934120.104       -2650.064
    -70833.913 8 -12642835.114 9  21255869.458         418.782
  -6593040.328 6  -5152930.633 6  23268331.499         727.820
  -6986162.195 8 -13221717.632 8  21377971.558         862.764
  -2028181.722 5  -1246097.362 5  25411184.126       -3267.578
 93  5 10  5 25 30.0020000  0  7 22 23 21 17 26  3 28                0.002531000
 -10888718.095 6  -8495894.583 5  23796240.975         787.846
 -13930878.467 8 -10848336.308 9  21534860.786        -934.197
  -5232453.769 6  -4089021.455 5  23919010.653       -2643.186
    -58160.279 8 -12632959.539 9  21258281.239         426.269
  -6570921.134 6  -5135694.911 6  23272540.814         746.841
  -6960035.081 8 -13201358.849 8  21382943.365         878.950
  -2126177.683 5  -1322457.789 5  25392535.414       -3265.362
 93  5 10  5 26  0.0020000  0  7 22 23 21 17 26  3 28                0.002537290
 -10864835.787 6  -8477285.011 5  23800785.478         804.382
 -13958703.982 8 -10870018.516 9  21529565.573        -920.557
  -5311647.346 6  -4150730.660 5  23903940.572       -2636.195
    -45261.499 8 -12622908.560 9  21260735.889         433.766
  -6548240.986 6  -5118022.083 6  23276856.847         765.206
  -6933428.035 8 -13180626.095 8  21388006.541         894.651
  -2224115.772 5  -1398773.100 5  25373897.067       -3263.864
 93  5 10  5 26 30.0020000  0  7 22 23 21 17 26  3 28                0.002543580
 -10840446.434 6  -8458280.340 5  23805426.639         821.673
 -13986101.865 8 -10891367.496 9  21524352.082        -906.195
  -5390618.373 6  -4212266.522 5  23888913.225       -2628.495
    -32123.427 8 -12612671.087 9  21263236.061         441.968
  -6525008.154 6  -5099918.594 6  23281278.107         783.619
  -6906342.375 8 -13159520.404 8  21393160.841         910.640
  -2322004.421 5  -1475049.938 5  25355269.422       -3262.278
 93  5 10  5 27  0.0020000  0  7 22 23 21 17 26  3 28                0.002549860
 -10815525.882 6  -8438861.725 5  23810167.846         839.393
 -14013071.254 8 -10912382.597 9  21519219.924        -892.034
  -5469352.415 6  -4273617.658 5  23873930.652       -2620.613
    -18739.028 8 -12602241.682 9  21265782.924         450.201
  -6501223.891 6  -5081385.429 6  23285804.324         801.548
  -6878774.846 8 -13138039.214 8  21398406.551         926.723
  -2419847.079 5  -1551290.857 5  25336651.492       -3260.853
 93  5 10  5 27 30.0020000  0  7 22 23 21 17 26  3 28                0.002556130
 -10790077.333 6  -8419031.710 5  23815010.340         857.072
 -14039616.480 8 -10933067.150 9  21514168.722        -877.719
  -5547845.114 6  -4334780.769 5  23858993.923       -2612.261
     -5098.385 8 -12591612.604 9  21268378.827         459.031
  -6476911.126 6  -5062440.424 6  23290431.038         819.178
  -6850723.930 8 -13116181.357 8  21403744.477         943.007
  -2517650.206 5  -1627500.993 5  25318040.469       -3259.429
 93  5 10  5 28  0.0020000  0  7 22 23 21 17 26  3 28                0.002562370
 -10764101.807 6  -8398791.030 5  23819953.810         874.416
 -14065725.067 8 -10953411.502 9  21509200.112        -862.821
  -5626087.299 6  -4395748.651 5  23844104.969       -2604.135
      8806.537 8 -12580777.596 9  21271024.706         467.783
  -6452070.516 6  -5043084.117 6  23295158.026         836.884
  -6822184.326 8 -13093942.698 8  21409175.246         959.284
  -2615411.084 5  -1703678.234 5  25299437.274       -3258.011
 93  5 10  5 28 30.0020000  0  7 22 23 21 17 26  3 28                0.002568580
 -10737612.911 6  -8378150.368 5  23824994.430         891.443
 -14091385.061 8 -10973406.296 9  21504316.973        -848.224
  -5704093.457 6  -4456532.651 5  23829259.919       -2596.361
     22964.204 8 -12569745.659 9  21273718.962         475.739
  -6426695.252 6  -5023311.220 6  23299986.506         854.612
  -6793156.901 8 -13071323.941 8  21414699.201         975.501
  -2713131.567 5  -1779824.034 5  25280842.435       -3256.772
 93  5 10  5 29  0.0020000  0  7 22 23 21 17 26  3 28                0.002574770
 -10710616.412 6  -8357114.145 5  23830131.632         908.024
 -14116606.164 8 -10993059.082 9  21499517.574        -833.304
  -5781869.839 6  -4517137.570 5  23814459.391       -2588.944
     37351.933 8 -12558534.438 9  21276456.907         483.237
  -6400785.584 6  -5003121.872 6  23304917.075         872.461
  -6763642.056 7 -13048325.368 8  21420315.526         991.778
  -2810807.723 5  -1855935.269 5  25262253.551       -3255.055
 93  5 10  5 29 30.0020000  0  7 22 23 21 17 26  3 28                0.002580950
 -10683126.963 6  -8335693.808 5  23835362.520         924.595
 -14141384.665 8 -11012367.003 9  21494802.227        -818.560
  -5859425.368 6  -4577570.416 5  23799701.356       -2581.457
     51957.580 8 -12547153.417 9  21279236.041         490.405
  -6374337.816 6  -4982513.276 6  23309949.846         890.992
  -6733641.531 8 -13024948.342 8  21426024.213        1008.142
  -2908429.686 5  -1932004.242 5  25243675.423       -3252.961
 93  5 10  5 30  0.0020000  0  7 22 23 21 17 26  3 28                0.002587130
 -10655147.830 6  -8313891.891 5  23840687.125         940.861
 -14165720.639 8 -11031330.073 9  21490171.673        -803.754
  -5936763.340 6  -4637833.716 5  23784984.660       -2574.348
     66770.746 8 -12535610.686 9  21282054.862         497.242
  -6347325.037 6  -4961464.342 6  23315090.067         909.929
  -6703150.321 8 -13001188.963 8  21431826.964        1024.484
  -3005981.340 5  -2008018.449 5  25225112.388       -3250.433
 93  5 10  5 30 30.0020000  0  7 22 23 21 17 26  3 28                0.002593330
 -10626680.690 6  -8291709.713 5  23846104.816         956.910
 -14189615.785 8 -11049949.661 9  21485624.482        -789.365
  -6013884.957 6  -4697928.436 5  23770309.329       -2566.916
     81791.564 8 -12523906.154 9  21284913.270         504.195
  -6319751.306 6  -4939978.329 6  23320337.566         928.388
  -6672165.903 8 -12977045.256 8  21437722.784        1040.910
  -3103450.311 5  -2083968.224 5  25206564.636       -3247.468
 93  5 10  5 31  0.0020000  0  7 22 23 21 17 26  3 28                0.002599530
 -10597731.891 6  -8269152.224 5  23851613.401         972.799
 -14213077.167 8 -11068231.234 9  21481159.875        -774.968
  -6090775.834 6  -4757843.400 5  23755677.422       -2559.472
     97028.731 8 -12512033.826 9  21287812.784         511.529
  -6291621.482 6  -4918059.027 6  23325690.471         946.752
  -6640687.729 8 -12952516.830 8  21443713.055        1057.225
  -3200826.959 5  -2159846.080 5  25188034.316       -3244.351
 93  5 10  5 31 30.0020000  0  7 22 23 21 17 26  3 28                0.002605730
 -10568305.760 6  -8246222.770 5  23857212.984         988.925
 -14236118.916 8 -11086185.821 9  21476775.099        -761.243
  -6167446.395 6  -4817586.629 5  23741087.219       -2551.813
    112485.841 8 -12499989.311 9  21290754.016         518.879
  -6262944.021 6  -4895712.968 6  23331147.444         965.044
  -6608719.643 8 -12927606.622 8  21449796.545        1073.683
  -3298108.843 5  -2235650.098 5  25169522.626       -3241.200
 93  5 10  5 32  0.0020000  0  7 22 23 21 17 26  3 28                0.002611940
 -10538402.264 6  -8222921.358 5  23862903.115        1005.268
 -14258750.486 8 -11103820.809 9  21472468.310        -747.193
  -6243887.850 6  -4877151.347 5  23726541.678       -2543.792
    128166.114 8 -12487770.918 9  21293738.112         526.842
  -6233721.357 6  -4872942.064 6  23336708.481         983.447
  -6576258.673 8 -12902312.380 8  21455973.508        1090.462
  -3395307.328 5  -2311389.201 5  25151027.416       -3238.418
 93  5 10  5 32 30.0020000  0  7 22 23 21 17 26  3 28                0.002618150
 -10508002.473 6  -8199233.221 5  23868688.269        1021.498
 -14280965.683 8 -11121131.328 9  21468240.726        -733.747
  -6320078.810 6  -4936520.873 5  23712042.555       -2535.623
    144086.847 8 -12475365.145 9  21296767.624         534.471
  -6203944.078 6  -4849738.993 6  23342375.031        1001.740
  -6543293.071 8 -12876624.892 8  21462246.895        1107.014
  -3492425.820 5  -2387065.870 5  25132545.464       -3236.195
 93  5 10  5 33  0.0020000  0  7 22 23 21 17 26  3 28                0.002624360
 -10477109.843 6  -8175161.078 5  23874567.510        1038.102
 -14302775.338 8 -11138125.852 9  21464090.559        -720.217
  -6396027.391 6  -4995701.581 5  23697589.189       -2527.597
    160234.278 8 -12462782.732 9  21299840.337         542.099
  -6173613.669 6  -4826104.935 6  23348146.624        1020.316
  -6509829.941 8 -12850549.733 8  21468614.448        1123.708
  -3589481.592 5  -2462693.712 5  25114075.865       -3234.106
 93  5 10  5 33 30.0020000  0  7 22 23 21 17 26  3 28                0.002630590
 -10445723.927 6  -8150704.515 5  23880539.929        1054.271
 -14324181.228 8 -11154805.740 9  21460017.200        -706.726
  -6471730.404 6  -5054690.875 5  23683183.421       -2519.088
    176610.517 8 -12450022.030 9  21302956.590         549.728
  -6142727.923 6  -4802038.130 6  23354023.685        1038.854
  -6475865.260 8 -12824083.752 8  21475077.382        1140.433
  -3686475.770 5  -2538273.541 5  25095618.386       -3232.166
 93  5 10  5 34  0.0020000  0  7 22 23 21 17 26  3 28                0.002636840
 -10413858.312 6  -8125874.194 5  23886604.092        1070.264
 -14345176.504 8 -11171165.686 9  21456022.007        -692.935
  -6547169.852 6  -5113474.816 5  23668828.191       -2510.168
    193225.514 8 -12437075.274 9  21306118.251         558.022
  -6111273.211 6  -4777527.985 6  23360009.602        1058.204
  -6441395.989 7 -12797224.590 8  21481637.291        1157.351
  -3783413.522 5  -2613809.398 5  25077171.800       -3230.177
 93  5 10  5 34 30.0020000  0  7 22 23 21 17 26  3 28                0.002643100
 -10381517.453 6  -8100673.544 5  23892758.727        1085.808
 -14365765.373 8 -11187208.943 9  21452103.987        -679.549
  -6622346.282 6  -5172053.821 5  23654522.842       -2501.477
    210079.868 8 -12423942.011 9  21309325.603         565.670
  -6079251.114 6  -4752575.711 6  23366102.995        1076.555
  -6406427.831 7 -12769976.674 8  21488291.236        1173.752
  -3880289.897 5  -2689297.428 5  25058736.932       -3228.077
 93  5 10  5 35  0.0020000  0  7 22 23 21 17 26  3 28                0.002649380
 -10348707.402 6  -8075107.287 5  23899002.597        1101.311
 -14385940.230 8 -11202929.600 9  21448264.624        -665.604
  -6697248.472 6  -5230419.109 5  23640269.162       -2492.294
    227173.839 8 -12410622.036 9  21312578.329         573.713
  -6046675.362 6  -4727192.021 6  23372301.952        1094.986
  -6370957.804 7 -12742337.696 8  21495040.942        1190.492
  -3977089.252 5  -2764725.444 5  25040318.066       -3225.341
 93  5 10  5 35 30.0020000  0  7 22 23 21 17 26  3 28                0.002655670
 -10315430.736 6  -8049177.421 5  23905335.068        1117.033
 -14405690.652 8 -11218319.513 9  21444506.685        -651.190
  -6771874.304 6  -5288569.064 5  23626068.293       -2483.035
    244507.951 8 -12397114.931 9  21315876.754         581.729
  -6013543.955 6  -4701375.343 6  23378606.778        1113.494
  -6334981.791 7 -12714304.437 8  21501887.095        1207.478
  -4073795.033 6  -2840080.567 5  25021916.137       -3221.821
 93  5 10  5 36  0.0020000  0  7 22 23 21 17 26  3 28                0.002661970
 -10281678.449 6  -8022876.966 5  23911757.058        1133.292
 -14425010.316 7 -11233373.777 9  21440830.324        -636.766
  -6846236.296 6  -5346513.446 5  23611917.451       -2474.564
    262079.280 8 -12383422.992 9  21319220.551         589.571
  -5979865.511 6  -4675132.440 6  23385015.348        1131.597
  -6298504.147 7 -12685880.307 8  21508828.399        1224.153
  -4170398.839 6  -2915356.209 5  25003532.674       -3218.290
 93  5 10  5 36 30.0020000  0  7 22 23 21 17 26  3 28                0.002668260
 -10247431.146 6  -7996190.776 5  23918273.374        1149.801
 -14443893.258 7 -11248087.745 9  21437236.719        -622.089
  -6920351.560 6  -5404265.569 5  23597813.486       -2466.549
    279878.124 8 -12369553.754 9  21322607.376         596.998
  -5945659.374 6  -4648478.312 6  23391524.592        1148.771
  -6261524.162 8 -12657064.743 8  21515865.645        1240.913
  -4266889.525 6  -2990543.713 5  24985170.476       -3214.427
 93  5 10  5 37  0.0020000  0  7 22 23 21 17 26  3 28                0.002674530
 -10212690.187 6  -7969119.888 5  23924884.645        1166.285
 -14462335.197 7 -11262458.063 9  21433727.218        -607.352
  -6994238.963 6  -5461840.136 5  23583753.140       -2459.325
    297904.843 8 -12355506.957 9  21326037.632         604.805
  -5910933.110 6  -4621418.892 6  23398132.770        1166.364
  -6224042.323 7 -12627858.111 8  21522998.318        1257.653
  -4363257.908 6  -3065635.893 5  24966832.291       -3210.207
 93  5 10  5 37 30.0020000  0  7 22 23 21 17 26  3 28                0.002680770
 -10177447.364 6  -7941658.003 5  23931591.693        1183.301
 -14480336.401 7 -11276484.959 9  21430301.851        -592.739
  -7067911.965 6  -5519247.616 5  23569733.603       -2452.046
    316174.530 8 -12341270.845 9  21329514.404         613.434
  -5875675.429 6  -4593945.414 6  23404842.217        1184.175
  -6186056.452 7 -12598258.745 8  21530226.816        1274.576
  -4459499.635 6  -3140629.408 5  24948517.639       -3205.854
 93  5 10  5 38  0.0020000  0  7 22 23 21 17 26  3 28                0.002686990
 -10141688.417 6  -7913793.898 5  23938395.662        1200.460
 -14497901.161 8 -11290171.769 9  21426959.405        -578.284
  -7141362.683 6  -5576481.929 5  23555756.281       -2444.776
    334711.251 8 -12326826.648 9  21333041.782         622.156
  -5839877.557 6  -4566050.976 6  23411654.588        1202.310
  -6147558.961 7 -12568260.716 7  21537552.463        1291.647
  -4555615.239 6  -3215524.606 5  24930227.511       -3201.999
 93  5 10  5 38 30.0020000  0  7 22 23 21 17 26  3 28                0.002693190
 -10105428.127 6  -7885539.125 5  23945296.087        1216.748
 -14515039.153 8 -11303526.032 9  21423698.181        -564.216
  -7214598.396 6  -5633548.674 5  23541819.252       -2437.407
    353502.592 8 -12312184.040 9  21336617.676         630.692
  -5803538.019 6  -4537734.483 6  23418569.758        1220.444
  -6108551.504 7 -12537865.294 8  21544975.473        1308.631
  -4651615.585 6  -3290330.026 5  24911959.058       -3197.943
 93  5 10  5 39  0.0020000  0  7 22 23 21 17 26  3 28                0.002699370
 -10068693.609 6  -7856914.868 5  23952286.595        1232.344
 -14531758.500 8 -11316554.080 9  21420516.716        -550.192
  -7287603.210 6  -5690435.531 6  23527927.724       -2429.327
    372550.747 8 -12297341.330 9  21340242.458         639.248
  -5766650.624 6  -4508991.058 6  23425588.982        1238.930
  -6069036.309 7 -12507074.235 7  21552494.748        1325.648
  -4747501.139 6  -3365046.004 5  24893712.463       -3194.344
 93  5 10  5 39 30.0020000  0  7 22 23 21 17 26  3 28                0.002705560
 -10031486.480 6  -7827922.295 5  23959366.936        1247.894
 -14548052.677 8 -11329250.828 9  21417416.071        -536.106
  -7360354.945 6  -5747125.181 6  23514083.820       -2420.740
    391848.481 8 -12282304.141 9  21343914.722         647.174
  -5729202.879 6  -4479811.009 6  23432714.930        1257.465
  -6029005.437 7 -12475881.353 7  21560112.426        1342.745
  -4843277.452 6  -3439676.822 5  24875487.082       -3190.895
 93  5 10  5 40  0.0020000  0  7 22 23 21 17 26  3 28                0.002711760
  -9993827.257 6  -7798577.456 5  23966533.605        1262.354
 -14563920.406 7 -11341615.266 9  21414396.532        -521.730
  -7432841.300 6  -5803607.996 6  23500290.098       -2411.682
    411374.865 8 -12267088.761 9  21347630.373         654.392
  -5691204.100 6  -4450201.597 6  23439945.902        1275.752
  -5988463.891 7 -12444290.564 7  21567827.344        1359.706
  -4938953.503 6  -3514229.506 5  24857280.345       -3187.535
 93  5 10  5 40 30.0020000  0  7 22 23 21 17 26  3 28                0.002717980
  -9955739.718 6  -7768898.890 5  23973780.787        1276.587
 -14579353.384 8 -11353640.950 9  21411459.526        -507.351
  -7505040.632 6  -5859867.196 6  23486550.890       -2401.690
    431123.253 8 -12251700.413 9  21351388.611         661.931
  -5652651.814 6  -4420160.868 6  23447282.206        1294.166
  -5947407.583 7 -12412298.623 7  21575640.184        1376.868
  -5034513.025 6  -3588691.430 5  24839095.951       -3183.408
 93  5 10  5 41  0.0020000  0  7 22 23 21 17 26  3 28                0.002724210
  -9917228.654 6  -7738890.305 5  23981109.753        1290.991
 -14594359.182 8 -11365333.772 9  21408603.961        -493.060
  -7576942.374 6  -5915894.502 6  23472868.392       -2391.897
    451089.629 8 -12236142.204 9  21355187.993         669.101
  -5613552.529 6  -4389693.914 6  23454722.671        1312.512
  -5905843.749 7 -12379911.241 7  21583549.350        1393.844
  -5129962.125 6  -3663067.293 5  24820933.024       -3179.873
 93  5 10  5 41 30.0020000  0  7 22 23 21 17 26  3 28                0.002730470
  -9878260.238 6  -7708525.324 5  23988524.928        1306.510
 -14608932.053 8 -11376689.237 9  21405830.942        -478.988
  -7648546.531 6  -5971689.914 6  23459241.913       -2382.010
    471279.112 8 -12220410.138 9  21359030.042         676.660
  -5573894.092 6  -4358791.255 6  23462269.459        1330.939
  -5863763.539 8 -12347121.483 7  21591556.826        1410.943
  -5225293.541 6  -3737351.440 5  24802791.733       -3175.822
 93  5 10  5 42  0.0020000  0  7 22 23 21 17 26  3 28                0.002736760
  -9838838.795 6  -7677807.310 5  23996027.115        1321.783
 -14623100.206 8 -11387729.345 9  21403134.806        -465.616
  -7719860.656 6  -6027259.327 6  23445671.768       -2372.429
    491696.122 8 -12204500.782 9  21362915.172         684.346
  -5533689.214 6  -4327462.792 6  23469920.513        1349.417
  -5821177.526 8 -12313937.570 7  21599660.748        1427.887
  -5320508.720 5  -3811545.008 5  24784673.036       -3171.873
 93  5 10  5 42 30.0020000  0  7 22 23 21 17 26  3 28                0.002743080
  -9798937.663 6  -7646715.543 5  24003619.720        1338.486
 -14636868.781 8 -11398458.086 9  21400514.454        -452.215
  -7790897.583 6  -6082612.736 6  23432154.318       -2363.391
    512346.377 8 -12188409.681 9  21366844.820         692.313
  -5492927.678 6  -4295700.569 6  23477677.152        1367.984
  -5778079.609 8 -12280354.782 7  21607862.179        1445.078
  -5415597.035 6  -3885639.744 5  24766578.675       -3167.557
 93  5 10  5 43  0.0020000  0  7 22 23 21 17 26  3 28                0.002749420
  -9758531.751 6  -7615230.445 5  24011308.485        1355.185
 -14650234.109 8 -11408872.620 9  21397971.004        -438.794
  -7861675.268 6  -6137764.162 6  23418685.264       -2355.149
    533230.461 8 -12172136.373 9  21370818.949         700.042
  -5451616.042 6  -4263509.696 6  23485538.578        1386.125
  -5734469.560 7 -12246372.937 7  21616161.033        1462.134
  -5510565.411 6  -3959641.047 5  24748506.683       -3163.489
 93  5 10  5 43 30.0020000  0  7 22 23 21 17 26  3 28                0.002755780
  -9717631.672 6  -7583360.265 5  24019092.117        1371.181
 -14663195.811 7 -11418972.631 9  21395504.730        -425.390
  -7932203.059 6  -6192720.845 6  23405263.783       -2346.851
    554354.640 8 -12155675.973 9  21374838.896         708.170
  -5409762.020 6  -4230896.185 6  23493502.954        1403.925
  -5690342.106 7 -12211987.931 7  21624558.150        1479.299
  -5605398.588 6  -4033536.986 5  24730460.339       -3158.842
 93  5 10  5 44  0.0020000  0  7 22 23 21 17 26  3 28                0.002762130
  -9676273.209 6  -7551132.905 5  24026962.231        1386.402
 -14675746.620 8 -11428752.479 9  21393116.155        -410.865
  -8002491.270 6  -6247490.844 6  23391889.074       -2338.898
    575716.916 8 -12139030.048 9  21378904.052         716.225
  -5367377.601 6  -4197869.388 6  23501568.843        1421.983
  -5645703.500 8 -12177204.606 7  21633052.229        1496.614
  -5700091.640 6  -4107323.697 5  24712440.337       -3153.783
 93  5 10  5 44 30.0020000  0  7 22 23 21 17 26  3 28                0.002768460
  -9634459.386 6  -7518550.741 5  24034918.375        1401.262
 -14687851.774 8 -11438185.043 9  21390812.591        -395.831
  -8072544.191 6  -6302077.499 6  23378557.920       -2330.833
    597316.292 8 -12122199.371 9  21383014.217         724.139
  -5324458.534 6  -4164425.975 6  23509735.799        1439.598
  -5600545.373 7 -12142016.469 7  21641645.540        1514.010
  -5794631.138 6  -4180990.778 5  24694450.524       -3148.486
 93  5 10  5 45  0.0020000  0  7 22 23 21 17 26  3 28                0.002774770
  -9592219.302 6  -7485636.389 5  24042956.888        1415.021
 -14699508.073 8 -11447267.853 9  21388594.595        -381.099
  -8142350.772 6  -6356472.202 6  23365274.291       -2322.594
    619153.655 8 -12105183.244 9  21387169.611         732.013
  -5281020.663 6  -4130578.314 6  23518001.606        1456.666
  -5554871.459 7 -12106426.402 7  21650336.954        1531.074
  -5889010.153 6  -4254532.845 5  24676490.965       -3142.974
 93  5 10  5 45 30.0020000  0  7 22 23 21 17 26  3 28                0.002781050
  -9549563.532 6  -7452398.155 5  24051075.235        1428.868
 -14710720.821 8 -11456005.058 9  21386460.682        -366.174
  -8211895.918 6  -6410663.209 6  23352040.337       -2313.558
    641236.575 8 -12087975.772 9  21391371.791         740.316
  -5237058.090 6  -4096321.756 6  23526367.274        1474.240
  -5508679.696 7 -12070432.828 7  21659126.848        1548.286
  -5983217.384 6  -4327941.033 5  24658562.974       -3137.368
 93  5 10  5 46  0.0020000  0  7 22 23 21 17 26  3 28                0.002787300
  -9506485.488 6  -7418830.887 5  24059272.805        1443.263
 -14721484.403 8 -11464392.260 9  21384412.698        -351.292
  -8281169.844 6  -6464642.844 6  23338858.468       -2304.517
    663561.034 8 -12070580.100 9  21395619.988         748.192
  -5192571.553 6  -4061656.965 6  23534832.845        1491.639
  -5461971.770 7 -12034037.059 7  21668015.476        1565.468
  -6077263.623 6  -4401223.726 5  24640666.172       -3132.292
 93  5 10  5 46 30.0020000  0  7 22 23 21 17 26  3 28                0.002793540
  -9462965.884 6  -7384919.510 5  24067554.201        1457.738
 -14731808.664 8 -11472437.128 9  21382448.068        -337.250
  -8350161.503 6  -6518402.559 6  23325729.466       -2295.090
    686131.370 8 -12052992.829 9  21399915.048         756.416
  -5147566.435 6  -4026588.053 6  23543397.227        1508.559
  -5414741.637 8 -11997234.368 7  21677003.133        1582.806
  -6171148.330 6  -4474380.628 5  24622799.864       -3126.893
 93  5 10  5 47  0.0020000  0  7 22 23 21 17 26  3 28                0.002799760
  -9419023.664 6  -7350678.821 5  24075915.859        1471.741
 -14741726.535 8 -11480165.312 9  21380560.796        -324.077
  -8418880.405 6  -6571949.696 6  23312652.635       -2286.300
    708951.149 8 -12035211.190 9  21404257.521         764.801
  -5102065.437 6  -3991132.749 6  23552055.408        1524.871
  -5366999.996 7 -11960033.103 7  21686088.094        1599.733
  -6264881.873 6  -4547419.706 5  24604963.936       -3122.062
 93  5 10  5 47 30.0020000  0  7 22 23 21 17 26  3 28                0.002805950
  -9374654.916 6  -7316105.788 5  24084358.517        1486.106
 -14751243.980 8 -11487581.512 9  21378749.520        -310.395
  -8487337.209 6  -6625292.627 6  23299626.235       -2277.726
    732027.164 8 -12017229.882 9  21408648.732         773.480
  -5056064.448 6  -3955287.846 6  23560809.390        1541.711
  -5318744.189 7 -11922431.177 7  21695270.725        1616.973
  -6358472.670 6  -4620347.599 5  24587154.386       -3117.283
 93  5 10  5 48  0.0020000  0  7 22 23 21 17 26  3 28                0.002812110
  -9329857.536 6  -7281198.787 5  24092882.714        1500.620
 -14760353.752 8 -11494680.017 9  21377015.981        -296.970
  -8555546.323 6  -6678442.564 6  23286646.272       -2269.519
    755356.468 8 -11999051.211 9  21413088.278         781.963
  -5009555.901 6  -3919047.427 6  23569659.637        1559.032
  -5269971.312 7 -11884426.348 7  21704551.993        1634.354
  -6451917.745 6  -4693161.910 5  24569372.098       -3112.113
 93  5 10  5 48 30.0020000  0  7 22 23 21 17 26  3 28                0.002818260
  -9284633.494 6  -7245959.259 5  24101488.792        1514.399
 -14769068.360 8 -11501470.601 9  21375357.388        -283.948
  -8623511.437 6  -6731402.343 6  23273712.945       -2261.471
    778945.048 8 -11980670.494 9  21417576.890         790.498
  -4962527.327 6  -3882401.808 6  23578608.927        1576.413
  -5220679.382 7 -11846017.055 7  21713931.918        1651.563
  -6545205.944 6  -4765854.010 5  24551619.710       -3107.044
 93  5 10  5 49  0.0020000  0  7 22 23 21 17 26  3 28                0.002824400
  -9238987.594 6  -7210391.061 5  24110174.765        1528.780
 -14777382.167 8 -11507948.884 9  21373775.302        -270.390
  -8691224.194 6  -6784165.499 6  23260827.586       -2252.715
    802784.807 8 -11962094.074 9  21422113.471         798.520
  -4914960.824 6  -3845337.030 6  23587660.774        1594.691
  -5170867.649 7 -11807202.741 7  21723410.486        1668.907
  -6638343.003 6  -4838428.333 5  24533896.462       -3102.230
 93  5 10  5 49 30.0020000  0  7 22 23 21 17 26  3 28                0.002830580
  -9192907.780 6  -7174484.728 5  24118943.497        1543.145
 -14785292.283 7 -11514112.590 9  21372269.963        -256.825
  -8758669.529 6  -6836720.280 6  23247992.808       -2243.626
    826844.961 8 -11943345.895 9  21426691.853         805.462
  -4866836.068 6  -3807837.245 6  23596818.640        1613.444
  -5120538.374 7 -11767985.127 7  21732988.016        1686.045
  -6731341.108 6  -4910894.307 5  24516199.938       -3097.680
 93  5 10  5 50  0.0020000  0  7 22 23 21 17 26  3 28                0.002836800
  -9146387.400 6  -7138235.098 5  24127796.114        1558.165
 -14792792.596 8 -11519956.980 9  21370842.813        -243.266
  -8825834.317 6  -6889056.429 6  23235211.708       -2233.907
    851110.900 8 -11924437.381 9  21431309.343         812.207
  -4818148.800 6  -3769899.126 6  23606083.262        1632.211
  -5069693.826 7 -11728365.994 7  21742663.576        1703.332
  -6824198.231 6  -4983250.510 5  24498529.512       -3092.882
 93  5 10  5 50 30.0020000  0  7 22 23 21 17 26  3 28                0.002843060
  -9099424.698 6  -7101640.795 5  24136732.768        1572.912
 -14799879.788 7 -11525479.457 9  21369494.235        -228.883
  -8892697.789 6  -6941157.802 6  23222488.605       -2223.515
    875579.309 8 -11905371.086 9  21435965.730         819.126
  -4768913.595 6  -3731534.041 6  23615452.411        1650.287
  -5018330.996 7 -11688343.026 7  21752437.761        1720.828
  -6916906.845 6  -5055490.957 5  24480888.003       -3087.599
 93  5 10  5 51  0.0020000  0  7 22 23 21 17 26  3 28                0.002849350
  -9052014.814 6  -7064698.073 5  24145755.178        1587.691
 -14806529.218 8 -11530660.821 9  21368228.875        -214.573
  -8959252.212 6  -6993018.354 6  23209823.421       -2213.511
    900253.267 8 -11886144.625 9  21440660.988         825.763
  -4719134.356 6  -3692745.035 6  23624925.377        1668.031
  -4966444.681 7 -11647912.139 7  21762311.307        1737.982
  -7009459.110 6  -5127609.569 5  24463276.235       -3082.571
 93  5 10  5 51 30.0020000  0  7 22 23 21 17 26  3 28                0.002855660
  -9004157.178 6  -7027406.411 5  24154862.587        1602.583
 -14812751.698 8 -11535509.491 9  21367044.843        -200.193
  -9025513.511 6  -7044650.495 6  23197214.034       -2204.122
    925137.424 8 -11866754.383 9  21445396.261         833.321
  -4668831.457 6  -3653547.970 6  23634497.825        1685.124
  -4914040.807 7 -11607077.952 7  21772283.252        1755.332
  -7101845.780 6  -5199599.171 5  24445695.271       -3076.454
 93  5 10  5 52  0.0020000  0  7 22 23 21 17 26  3 28                0.002861960
  -8955851.736 6  -6989765.811 5  24164054.435        1617.552
 -14818538.802 7 -11540018.900 9  21365943.586        -185.901
  -9091494.418 6  -7096064.141 6  23184658.683       -2194.700
    950263.097 8 -11847175.935 9  21450177.680         841.574
  -4618030.599 6  -3613962.905 6  23644164.724        1701.393
  -4861112.801 7 -11565835.358 7  21782355.059        1772.910
  -7194032.895 6  -5271433.247 5  24428152.551       -3069.427
 93  5 10  5 52 30.0020000  0  7 22 23 21 17 26  3 28                0.002868240
  -8907117.279 6  -6951790.929 5  24173327.914        1631.526
 -14823908.899 7 -11544203.394 9  21364921.533        -172.185
  -9157204.352 6  -7147266.671 6  23172154.548       -2185.886
    975632.174 8 -11827407.824 9  21455005.256         849.813
  -4566755.924 6  -3574008.654 6  23653922.052        1717.271
  -4807667.157 7 -11524189.421 7  21792525.429        1790.052
  -7286013.230 6  -5343106.207 5  24410649.381       -3062.485
 93  5 10  5 53  0.0020000  0  7 22 23 21 17 26  3 28                0.002874500
  -8857958.655 6  -6913485.536 5  24182682.697        1645.952
 -14828879.461 8 -11548076.540 9  21363975.600        -159.019
  -9222651.929 6  -7198264.735 6  23159699.985       -2176.894
   1001246.637 8 -11807448.502 9  21459879.534         858.146
  -4514989.908 6  -3533671.524 6  23663772.932        1733.986
  -4753706.582 7 -11482142.219 7  21802793.939        1807.371
  -7377786.476 6  -5414617.794 5  24393185.200       -3055.304
 93  5 10  5 53 30.0020000  0  7 22 23 21 17 26  3 28                0.002880750
  -8808374.888 6  -6874848.830 5  24192118.616        1659.736
 -14833458.371 7 -11551644.514 9  21363104.220        -146.058
  -9287831.922 6  -7249054.303 6  23147296.190       -2168.254
   1027116.020 8 -11787290.540 9  21464802.285         866.535
  -4462728.302 6  -3492948.217 6  23673718.356        1750.247
  -4699226.471 7 -11439690.192 7  21813161.193        1824.462
  -7469337.350 6  -5485956.138 5  24375763.351       -3047.997
 93  5 10  5 54  0.0020000  0  7 22 23 21 17 26  3 28                0.002887020
  -8758370.767 6  -6835884.611 5  24201633.221        1673.707
 -14837637.260 7 -11554900.775 9  21362309.110        -132.738
  -9352727.669 6  -7299622.390 6  23134946.547       -2158.238
   1053237.421 8 -11766936.203 9  21469773.205         874.722
  -4409959.263 6  -3451829.500 6  23683759.576        1767.838
  -4644223.539 7 -11396830.775 7  21823628.036        1842.042
  -7560663.230 6  -5557119.129 5  24358384.132       -3040.616
 93  5 10  5 54 30.0020000  0  7 22 23 21 17 26  3 28                0.002893310
  -8707957.128 6  -6796601.282 5  24211226.525        1687.264
 -14841422.753 8 -11557850.504 9  21361588.961        -119.626
  -9417328.206 6  -7349960.425 6  23122653.741       -2148.517
   1079597.021 8 -11746396.266 9  21474789.112         882.554
  -4356654.373 6  -3410293.229 6  23693903.154        1785.906
  -4588697.881 7 -11353564.045 7  21834194.012        1859.408
  -7651787.121 6  -5628124.719 5  24341044.098       -3034.307
 93  5 10  5 55  0.0020000  0  7 22 23 21 17 26  3 28                0.002899640
  -8657131.223 6  -6756996.666 5  24220898.670        1700.972
 -14844813.330 8 -11560492.485 9  21360943.657        -106.393
  -9481638.229 6  -7400072.094 6  23110415.813       -2139.019
   1106193.983 8 -11725671.354 9  21479850.320         890.544
  -4302800.594 6  -3368329.249 6  23704151.067        1803.856
  -4532652.071 7 -11309891.979 7  21844859.108        1876.647
  -7742726.151 6  -5698986.253 5  24323739.855       -3028.439
 93  5 10  5 55 30.0020000  0  7 22 23 21 17 26  3 28                0.002905980
  -8605892.433 6  -6717070.347 5  24230649.378        1714.537
 -14847800.041 8 -11562819.784 9  21360375.449         -93.050
  -9545664.382 6  -7449962.562 6  23098231.965       -2129.682
   1133040.130 8 -11704752.283 9  21484958.914         898.816
  -4248421.688 6  -3325956.128 6  23714499.206        1821.152
  -4476088.242 7 -11265816.286 7  21855622.857        1893.820
  -7833492.637 6  -5769713.367 5  24306467.754       -3022.941
 93  5 10  5 56  0.0020000  0  7 22 23 21 17 26  3 28                0.002912330
  -8554255.503 6  -6676833.813 5  24240475.488        1727.689
 -14850390.819 8 -11564838.571 9  21359882.280         -79.855
  -9609410.739 6  -7499634.978 6  23086101.473       -2120.497
   1160129.876 8 -11683643.384 9  21490114.055         907.116
  -4193519.993 6  -3283175.581 6  23724946.660        1838.812
  -4419009.135 7 -11221339.065 7  21866484.965        1911.051
  -7924090.486 6  -5840309.031 5  24289227.443       -3017.046
 93  5 10  5 56 30.0020000  0  7 22 23 21 17 26  3 28                0.002918660
  -8502228.750 6  -6636293.502 5  24250375.513        1740.815
 -14852582.030 8 -11566545.992 9  21359465.400         -66.250
  -9672894.239 6  -7549102.596 6  23074021.278       -2111.732
   1187479.999 8 -11662331.607 9  21495318.601         916.280
  -4138093.367 6  -3239986.008 6  23735493.630        1856.146
  -4361412.418 7 -11176458.538 7  21877445.191        1928.479
  -8014509.932 6  -5910765.713 5  24272021.711       -3010.764
 93  5 10  5 57  0.0020000  0  7 22 23 21 17 26  3 28                0.002924980
  -8449807.287 6  -6595445.600 5  24260351.828        1753.873
 -14854365.711 8 -11567935.867 9  21359126.144         -52.536
  -9736116.330 6  -7598366.537 6  23061990.224       -2103.096
   1215109.231 8 -11640802.335 9  21500576.390         925.598
  -4082155.570 6  -3196398.124 6  23746138.314        1872.947
  -4303293.389 7 -11131170.970 7  21888504.706        1945.879
  -8104731.444 6  -5981068.168 5  24254852.865       -3003.935
 93  5 10  5 57 30.0020000  0  7 22 23 21 17 26  3 28                0.002931280
  -8397003.924 6  -6554300.148 5  24270399.713        1766.450
 -14855739.544 8 -11569006.370 9  21358864.666         -38.864
  -9799073.534 6  -7647424.079 6  23050009.582       -2093.829
   1243004.306 8 -11619065.915 9  21505884.647         934.115
  -4025718.218 6  -3152420.995 6  23756878.352        1889.799
  -4244655.259 7 -11085478.946 7  21899663.108        1963.341
  -8194740.373 6  -6051204.989 5  24237724.242       -2996.440
 93  5 10  5 58  0.0020000  0  7 22 23 21 17 26  3 28                0.002937560
  -8343833.338 6  -6512868.571 5  24280517.692        1778.480
 -14856703.424 8 -11569757.434 9  21358681.322         -25.203
  -9861753.584 6  -7696265.615 6  23038081.757       -2084.661
   1271142.091 8 -11597140.361 9  21511239.109         941.935
  -3968780.118 6  -3108053.660 6  23767713.304        1906.251
  -4185498.065 7 -11039382.422 7  21910920.436        1980.447
  -8284529.698 6  -6121170.674 5  24220638.001       -2989.436
 93  5 10  5 58 30.0020000  0  7 22 23 21 17 26  3 28                0.002943820
  -8290292.559 6  -6471148.480 5  24290705.734        1791.143
 -14857251.604 8 -11570184.565 9  21358577.245         -11.229
  -9924145.268 6  -7744882.482 6  23026209.197       -2074.520
   1299513.119 8 -11575033.074 9  21516637.921         949.509
  -3911355.736 6  -3063307.357 6  23778640.978        1922.050
  -4125823.727 7 -10992882.953 7  21922276.163        1997.722
  -8374120.168 6  -6190981.416 5  24203589.253       -2983.129
 93  5 10  5 59  0.0020000  0  7 22 23 21 17 26  3 28                0.002950060
  -8236366.857 6  -6429128.454 5  24300967.247        1803.980
 -14857373.912 8 -11570279.858 9  21358553.832           3.134
  -9986225.164 6  -7793256.397 6  23014395.417       -2064.070
   1328097.158 8 -11552759.794 9  21522077.075         956.065
  -3853461.380 6  -3018194.881 6  23789658.166        1937.626
  -4065630.197 7 -10945978.913 7  21933730.343        2014.950
  -8463519.584 6  -6260643.302 5  24186576.751       -2976.691
 93  5 10  5 59 30.0020000  0  7 22 23 21 17 26  3 28                0.002956290
  -8182058.094 6  -6386809.974 5  24311301.075        1816.692
 -14857065.760 8 -11570039.717 9  21358612.160          17.324
 -10047994.159 6  -7841388.027 6  23002641.482       -2054.055
   1356873.445 8 -11530336.701 9  21527552.976         962.443
  -3795105.569 6  -2972722.825 6  23800762.737        1952.799
  -4004919.610 7 -10898671.970 7  21945283.406        2032.082
  -8552724.560 6  -6330153.679 5  24169601.954       -2970.314
 93  5 10  6  0  0.0020000  0  7 22 23 21 17 26  3 28                0.002962490
  -8127354.529 6  -6344183.862 5  24321711.446        1830.059
 -14856328.829 8 -11569465.492 9  21358752.532          31.597
 -10109468.420 7  -7889290.022 6  22990943.003       -2044.462
   1385858.575 8 -11507750.907 9  21533068.499         969.869
  -3736287.113 6  -2926890.280 6  23811955.254        1968.361
  -3943691.746 7 -10850961.974 7  21956934.799        2049.373
  -8641732.270 6  -6399510.334 5  24152664.189       -2963.512
 93  5 10  6  0 30.0020000  0  7 22 23 21 17 26  3 28                0.002968680
  -8072245.000 6  -6301241.362 5  24332199.819        1843.923
 -14855166.170 8 -11568559.512 9  21358973.991          45.857
 -10170659.523 7  -7936971.366 6  22979298.823       -2035.052
   1415075.255 8 -11484984.660 9  21538628.177         978.011
  -3676995.952 6  -2880689.383 6  23823237.513        1984.412
  -3881945.118 7 -10802847.704 7  21968684.716        2066.795
  -8730522.315 6  -6468697.336 5  24135768.115       -2955.678
 93  5 10  6  1  0.0020000  0  7 22 23 21 17 26  3 28                0.002974860
  -8016729.423 6  -6257982.500 5  24342763.586        1856.950
 -14853592.561 8 -11567333.305 9  21359273.332          58.744
 -10231584.820 7  -7984445.584 6  22967705.198       -2026.819
   1444532.958 8 -11462030.607 9  21544234.057         985.934
  -3617216.020 6  -2834107.635 6  23834613.700        2000.892
  -3819681.547 7 -10754330.646 7  21980532.994        2083.763
  -8819068.149 6  -6537694.067 5  24118917.622       -2947.472
 93  5 10  6  1 30.0020000  0  7 22 23 21 17 26  3 28                0.002981070
  -7960821.993 6  -6214418.289 5  24353401.780        1870.321
 -14851639.436 7 -11565811.385 9  21359644.824          71.431
 -10292258.330 7  -8031723.607 6  22956159.810       -2017.858
   1474255.411 8 -11438870.262 9  21549890.082         995.748
  -3556925.169 6  -2787127.761 6  23846086.817        2018.696
  -3756901.265 7 -10705410.968 7  21992479.643        2101.484
  -8907360.088 6  -6606492.981 5  24102116.014       -2938.619
 93  5 10  6  2  0.0020000  0  7 22 23 21 17 26  3 28                0.002987310
  -7904529.576 6  -6170554.061 5  24364114.474        1882.671
 -14849329.031 7 -11564011.056 9  21360084.062          83.047
 -10352665.648 7  -8078794.218 6  22944664.758       -2008.756
   1504257.823 8 -11415491.760 9  21555599.159        1004.625
  -3496105.592 6  -2739735.903 6  23857660.229        2036.152
  -3693602.441 7 -10656087.223 7  22004525.044        2118.537
  -8995400.752 6  -6675096.088 5  24085362.380       -2930.414
 93  5 10  6  2 30.0020000  0  7 22 23 21 17 26  3 28                0.002993580
  -7847874.820 6  -6126407.526 5  24374895.745        1894.528
 -14846663.696 8 -11561934.161 9  21360591.021          94.848
 -10412785.643 7  -8125640.941 6  22933224.117       -1999.085
   1534521.874 8 -11391909.385 9  21561358.363        1013.058
  -3434766.467 6  -2691939.200 6  23869332.479        2053.179
  -3629788.622 7 -10606362.172 7  22016668.560        2135.685
  -9083195.901 6  -6743507.891 5  24068655.607       -2922.514
 93  5 10  6  3  0.0020000  0  7 22 23 21 17 26  3 28                0.002999870
  -7790865.321 6  -6081984.537 5  24385743.662        1906.055
 -14843636.990 8 -11559575.684 9  21361167.302         107.003
 -10472610.430 7  -8172257.635 6  22921840.271       -1989.128
   1565035.827 8 -11368132.284 9  21567165.002        1021.207
  -3372917.864 6  -2643745.527 6  23881102.063        2070.027
  -3565455.860 7 -10556232.766 7  22028910.581        2152.943
  -9170750.977 6  -6811732.628 5  24051994.851       -2914.502
 93  5 10  6  3 30.0030000  0  7 22 23 21 17 26  3 28                0.003006180
  -7733509.163 6  -6037291.476 5  24396658.465        1917.373
 -14840238.645 7 -11556927.623 9  21361814.074         119.610
 -10532130.943 7  -8218637.219 6  22910513.293       -1978.888
   1595796.012 8 -11344163.318 9  21573018.619        1029.063
  -3310572.958 6  -2595165.108 6  23892965.803        2085.875
  -3500601.903 7 -10505697.216 7  22041251.830        2170.020
  -9258069.577 6  -6879773.077 5  24035378.990       -2906.664
 93  5 10  6  4  0.0030000  0  7 22 23 21 17 26  3 28                0.003012470
  -7675806.754 6  -5992328.546 5  24407639.033        1929.187
 -14836438.597 8 -11553966.538 9  21362537.114         133.719
 -10591331.836 7  -8264767.755 6  22899247.970       -1968.094
   1626785.481 8 -11320015.675 9  21578915.527        1036.679
  -3247757.672 6  -2546218.137 6  23904919.251        2101.564
  -3435231.043 7 -10454758.904 7  22053691.618        2187.598
  -9345140.716 6  -6947620.691 5  24018810.543       -2898.134
 93  5 10  6  4 30.0030000  0  7 22 23 21 17 26  3 28                0.003018740
  -7617761.338 6  -5947098.384 5  24418684.979        1940.815
 -14832220.080 8 -11550679.377 9  21363339.778         147.615
 -10650217.554 7  -8310652.688 6  22888042.997       -1957.618
   1657999.223 8 -11295693.288 9  21584855.246        1044.479
  -3184473.996 6  -2496906.178 6  23916962.031        2117.538
  -3369340.308 7 -10403415.485 7  22066230.287        2205.134
  -9431963.043 6  -7015274.463 5  24002288.641       -2889.885
 93  5 10  6  5  0.0030000  0  7 22 23 21 17 26  3 28                0.003025000
  -7559366.033 6  -5901595.566 5  24429796.772        1952.371
 -14827593.424 8 -11547074.181 9  21364220.518         161.044
 -10708797.721 7  -8356299.543 6  22876895.341       -1947.496
   1689443.949 8 -11271190.887 9  21590839.133        1052.166
  -3120716.079 6  -2447224.700 6  23929094.723        2133.187
  -3302931.868 7 -10351668.640 7  22078867.429        2222.148
  -9518544.902 6  -7082740.829 5  23985812.596       -2882.110
 93  5 10  6  5 30.0030000  0  7 22 23 21 17 26  3 28                0.003031250
  -7500614.111 6  -5855814.862 5  24440977.485        1964.485
 -14822557.095 8 -11543149.759 9  21365178.654         174.810
 -10767061.645 7  -8401699.979 6  22865807.849       -1936.785
   1721132.396 8 -11246498.604 9  21596869.230        1060.400
  -3056478.194 6  -2397169.217 6  23941318.764        2149.293
  -3236002.808 7 -10299516.136 7  22091603.471        2239.616
  -9604887.272 6  -7150020.574 5  23969381.485       -2874.109
 93  5 10  6  6  0.0030000  0  7 22 23 21 17 26  3 28                0.003037500
  -7441499.251 6  -5809751.342 5  24452227.338        1976.465
 -14817118.396 8 -11538911.807 9  21366213.439         187.522
 -10825014.890 7  -8446858.336 6  22854779.607       -1926.942
   1753059.066 8 -11221620.673 9  21602944.605        1067.980
  -2991760.469 6  -2346739.858 6  23953634.123        2165.148
  -3168553.950 7 -10246958.611 7  22104438.585        2256.644
  -9690997.545 6  -7217119.485 5  23952995.057       -2866.589
 93  5 10  6  6 30.0030000  0  7 22 23 21 17 26  3 28                0.003043760
  -7382016.156 5  -5763400.893 5  24463546.260        1988.999
 -14811300.465 8 -11534378.341 9  21367320.572         200.058
 -10882675.374 7  -8491788.539 6  22843807.270       -1917.381
   1785225.758 8 -11196555.733 9  21609065.865        1076.283
  -2926563.817 6  -2295937.295 6  23966040.743        2180.854
  -3100589.135 7 -10193999.012 7  22117371.931        2273.916
  -9776874.316 6  -7284036.424 5  23936653.079       -2858.667
 93  5 10  6  7  0.0030000  0  7 22 23 21 17 26  3 28                0.003050020
  -7322154.083 6  -5716755.155 5  24474937.482        2001.742
 -14805107.987 8 -11529553.034 9  21368499.176         212.739
 -10940056.191 7  -8536500.820 6  22832887.689       -1908.083
   1817635.863 8 -11171301.094 9  21615233.177        1084.465
  -2860914.899 6  -2244782.316 6  23978533.248        2195.773
  -3032109.567 7 -10140638.334 7  22130403.502        2291.126
  -9862505.766 6  -7350762.210 5  23920358.000       -2849.860
 93  5 10  6  7 30.0030000  0  7 22 23 21 17 26  3 28                0.003056300
  -7261914.559 5  -5669815.269 5  24486400.069        2014.319
 -14798539.992 8 -11524435.100 9  21369749.109         225.169
 -10997161.304 7  -8580998.289 6  22822021.333       -1898.971
   1850290.998 8 -11145855.547 9  21621447.204        1092.483
  -2794817.691 6  -2193278.040 6  23991111.113        2210.729
  -2963115.753 7 -10086876.922 7  22143532.262        2308.217
  -9947865.265 6  -7417276.073 5  23904114.526       -2840.605
 93  5 10  6  8  0.0030000  0  7 22 23 21 17 26  3 28                0.003062580
  -7201299.998 5  -5622583.144 5  24497933.744        2026.535
 -14791596.127 7 -11519024.296 9  21371070.316         237.789
 -11053991.841 7  -8625281.792 6  22811206.930       -1889.746
   1883186.982 8 -11120222.332 9  21627707.211        1100.738
  -2728267.447 6  -2141420.723 6  24003775.261        2225.920
  -2893611.644 7 -10032717.891 7  22156758.475        2325.115
 -10032935.841 6  -7483564.805 5  23887926.762       -2830.783
 93  5 10  6  8 30.0030000  0  7 22 23 21 17 26  3 28                0.003068870
  -7140325.711 5  -5575070.740 5  24509537.157        2038.265
 -14784261.271 8 -11513308.823 9  21372466.200         251.037
 -11110538.686 7  -8669344.231 7  22800446.588       -1880.075
   1916346.362 8 -11094383.852 9  21634017.323        1109.715
  -2661257.706 6  -2089205.363 6  24016527.034        2241.220
  -2823596.099 7  -9978160.340 7  22170081.981        2342.180
 -10117707.214 6  -7549620.404 5  23871795.360       -2820.764
 93  5 10  6  9  0.0030000  0  7 22 23 21 17 26  3 28                0.003075150
  -7079005.853 5  -5527289.036 5  24521206.772        2049.725
 -14776529.240 8 -11507283.864 9  21373937.732         264.518
 -11166786.205 7  -8713173.471 7  22789742.978       -1869.675
   1949770.723 8 -11068338.911 9  21640377.600        1118.650
  -2593783.377 6  -2036627.985 6  24029367.158        2257.340
  -2753071.036 7  -9923205.763 7  22183502.400        2359.242
 -10202177.558 6  -7615441.436 5  23855721.449       -2810.597
 93  5 10  6  9 30.0030000  0  7 22 23 21 17 26  3 28                0.003081430
  -7017340.389 5  -5479238.030 5  24532941.280        2061.118
 -14768392.125 8 -11500943.223 9  21375486.338         277.943
 -11222718.744 7  -8756757.216 7  22779099.539       -1859.192
   1983469.453 8 -11042080.132 9  21646790.209        1127.866
  -2525815.746 6  -1983666.222 6  24042300.623        2273.731
  -2682033.351 7  -9867851.723 7  22197020.351        2376.316
 -10286353.674 6  -7681033.185 5  23839703.388       -2801.248
 93  5 10  6 10  0.0030000  0  7 22 23 21 17 26  3 28                0.003087710
  -6955343.952 5  -5430929.143 5  24544738.464        2072.010
 -14759857.206 8 -11494292.641 9  21377110.616         291.002
 -11278347.913 7  -8800104.578 7  22768513.487       -1849.438
   2017443.426 8 -11015606.943 9  21653255.362        1137.181
  -2457365.879 6  -1930328.684 6  24055326.070        2289.524
  -2610487.174 7  -9812101.478 7  22210635.217        2393.278
 -10370258.504 6  -7746413.540 5  23823736.680       -2792.431
 93  5 10  6 10 30.0030000  0  7 22 23 21 17 26  3 28                0.003093980
  -6893020.306 5  -5382365.292 5  24556597.833        2083.294
 -14750939.386 8 -11487343.685 9  21378807.420         303.607
 -11333688.032 7  -8843226.720 7  22757982.348       -1839.742
   2051690.454 8 -10988920.935 9  21659772.413        1145.896
  -2388446.752 6  -1876625.469 6  24068441.205        2305.163
  -2538427.857 7  -9755951.347 7  22224347.735        2410.513
 -10453903.724 6  -7811591.606 6  23807819.338       -2783.671
 93  5 10  6 11  0.0030000  0  7 22 23 21 17 26  3 28                0.003100260
  -6830355.501 5  -5333535.586 5  24568523.242        2094.642
 -14741647.892 8 -11480103.552 9  21380575.436         316.104
 -11388750.656 7  -8886132.640 7  22747504.012       -1830.756
   2086186.773 8 -10962040.708 9  21666336.927        1154.226
  -2319068.237 6  -1822564.342 6  24081643.628        2320.450
  -2465857.499 7  -9699403.049 7  22238157.234        2427.557
 -10537290.381 6  -7876568.208 6  23791951.513       -2775.160
 93  5 10  6 11 30.0030000  0  7 22 23 21 17 26  3 28                0.003106540
  -6767354.910 5  -5284444.219 5  24580511.926        2105.157
 -14731982.685 8 -11472572.213 9  21382414.682         328.043
 -11443537.213 7  -8928823.440 7  22737078.230       -1821.794
   2120936.377 8 -10934963.104 9  21672949.396        1162.253
  -2249227.904 6  -1768143.314 6  24094933.583        2335.465
  -2392771.446 7  -9642452.886 6  22252065.345        2444.548
 -10620414.131 6  -7941339.901 6  23776133.597       -2766.317
 93  5 10  6 12  0.0030000  0  7 22 23 21 17 26  3 28                0.003112830
  -6704052.921 5  -5235118.031 5  24592557.206        2115.118
 -14721968.093 8 -11464768.624 9  21384320.313         339.681
 -11498054.100 7  -8971304.116 7  22726703.740       -1812.523
   2155915.848 8 -10907706.372 9  21679606.171        1169.720
  -2178939.232 6  -1713372.934 6  24108309.061        2350.421
  -2319181.260 7  -9585109.904 6  22266069.230        2461.279
 -10703266.377 6  -8005900.094 6  23760366.851       -2757.116
 93  5 10  6 12 30.0030000  0  7 22 23 21 17 26  3 28                0.003119130
  -6640444.446 5  -5185553.023 5  24604662.312        2125.248
 -14711596.068 8 -11456686.522 9  21386294.145         351.811
 -11552275.786 7  -9013554.760 7  22716385.594       -1802.226
   2191117.395 8 -10880276.599 9  21686304.634        1176.883
  -2108197.988 6  -1658249.878 6  24121771.033        2365.537
  -2245086.138 7  -9527373.447 6  22280168.662        2478.003
 -10785835.414 6  -8070239.570 6  23744654.600       -2747.484
 93  5 10  6 13  0.0030000  0  7 22 23 21 17 26  3 28                0.003125430
  -6576540.367 5  -5135757.636 5  24616823.298        2134.879
 -14700849.276 8 -11448312.395 9  21388339.131         364.392
 -11606178.016 7  -9055556.478 7  22706128.276       -1791.187
   2226540.270 8 -10852674.366 9  21693045.496        1184.640
  -2036999.867 6  -1602770.846 6  24135319.602        2381.086
  -2170489.797 7  -9469246.452 6  22294364.113        2494.855
 -10868108.317 6  -8134348.312 6  23728998.584       -2737.419
 93  5 10  6 13 30.0030000  0  7 22 23 21 17 26  3 28                0.003131720
  -6512349.225 5  -5085738.553 5  24629038.002        2144.635
 -14689734.573 8 -11439651.578 9  21390453.966         376.666
 -11659738.871 7  -9097292.202 7  22695935.731       -1779.654
   2262193.149 8 -10824892.916 9  21699830.151        1192.196
  -1965331.420 6  -1546925.313 6  24148957.603        2396.662
  -2095383.808 7  -9410722.307 6  22308656.197        2511.933
 -10950069.424 6  -8198214.110 6  23713402.483       -2726.688
 93  5 10  6 14  0.0030000  0  7 22 23 21 17 26  3 28                0.003138020
  -6447856.308 5  -5035484.380 5  24641310.726        2155.037
 -14678248.780 8 -11430701.606 9  21392639.903         389.051
 -11712965.775 7  -9138767.686 7  22685807.313       -1768.959
   2298073.540 8 -10796934.170 9  21706657.823        1199.781
  -1893207.602 6  -1490724.962 5  24162682.102        2411.279
  -2019770.883 7  -9351803.168 6  22323044.957        2528.550
 -11031723.938 6  -8261840.976 6  23697863.720       -2717.060
 93  5 10  6 14 30.0030000  0  7 22 23 21 17 26  3 28                0.003144320
  -6383038.978 5  -4984977.412 5  24653645.688        2165.769
 -14666384.607 8 -11421456.793 9  21394897.611         401.649
 -11765868.316 7  -9179990.433 7  22675740.241       -1758.328
   2334194.146 8 -10768788.261 9  21713531.286        1208.003
  -1820649.140 6  -1434185.898 5  24176489.542        2425.729
  -1943651.828 7  -9292489.637 6  22337530.010        2545.523
 -11113079.894 6  -8325235.218 6  23682381.780       -2706.791
 93  5 10  6 15  0.0030000  0  7 22 23 21 17 26  3 28                0.003150600
  -6317920.856 5  -4934236.001 5  24666037.420        2175.904
 -14654153.900 8 -11411926.354 9  21397225.200         413.759
 -11818474.973 7  -9220982.612 7  22665730.030       -1748.685
   2370556.469 8 -10740453.996 9  21720450.704        1216.438
  -1747665.143 6  -1377315.294 5  24190377.846        2439.989
  -1867035.053 7  -9232788.265 6  22352109.635        2562.222
 -11194135.133 6  -8388395.121 6  23666957.036       -2696.650
 93  5 10  6 15 30.0030000  0  7 22 23 21 17 26  3 28                0.003156880
  -6252485.789 5  -4883247.651 5  24678488.870        2186.783
 -14641558.657 8 -11402111.878 9  21399621.749         426.226
 -11870796.315 7  -9261752.457 7  22655773.795       -1739.436
   2407184.555 8 -10711912.639 9  21727420.730        1225.617
  -1674255.824 6  -1320113.225 5  24204347.308        2454.066
  -1789913.180 7  -9172693.317 6  22366785.589        2579.163
 -11274875.983 6  -8451310.037 6  23651592.353       -2685.939
 93  5 10  6 16  0.0030000  0  7 22 23 21 17 26  3 28                0.003163160
  -6186731.701 6  -4832010.736 5  24691001.428        2196.789
 -14628588.703 8 -11392005.414 9  21402089.972         438.444
 -11922850.962 7  -9302314.509 7  22645868.181       -1730.710
   2444089.509 8 -10683155.535 9  21734443.489        1234.685
  -1600431.930 6  -1262588.164 5  24218395.436        2467.718
  -1712289.750 7  -9112207.549 6  22381556.848        2595.604
 -11355305.863 6  -8513982.658 6  23636287.688       -2675.840
 93  5 10  6 16 30.0030000  0  7 22 23 21 17 26  3 28                0.003169420
  -6120679.777 6  -4780541.722 5  24703570.450        2206.348
 -14615245.350 8 -11381608.001 9  21404629.124         451.013
 -11974631.709 7  -9342663.128 7  22636014.932       -1721.355
   2481263.986 8 -10654188.418 9  21741517.592        1243.372
  -1526184.414 6  -1204733.006 5  24232524.033        2482.200
  -1634166.977 7  -9051332.679 6  22396423.148        2612.201
 -11435415.851 6  -8576406.052 6  23621043.511       -2664.976
 93  5 10  6 17  0.0030000  0  7 22 23 21 17 26  3 28                0.003175670
  -6054346.635 5  -4728853.558 5  24716193.514        2216.123
 -14601526.789 8 -11370918.204 9  21407239.687         463.525
 -12026131.423 7  -9382792.761 7  22626214.868       -1711.817
   2518686.530 8 -10625028.023 9  21748638.961        1251.556
  -1451503.332 6  -1146539.935 5  24246735.719        2496.493
  -1555553.367 7  -8990075.347 6  22411382.991        2628.548
 -11515211.028 6  -8638584.087 6  23605858.994       -2654.652
 93  5 10  6 17 30.0030000  0  7 22 23 21 17 26  3 28                0.003181920
  -5987706.714 5  -4676926.369 5  24728874.894        2226.344
 -14587434.476 8 -11359937.177 9  21409921.350         476.100
 -12077335.512 7  -9422692.048 7  22616470.813       -1701.620
   2556353.108 8 -10595677.447 9  21755806.699        1259.540
  -1376385.636 6  -1088006.663 5  24261029.868        2511.381
  -1476445.462 7  -8928432.849 6  22426436.919        2645.155
 -11594695.744 6  -8700520.213 6  23590733.933       -2644.313
 93  5 10  6 18  0.0030000  0  7 22 23 21 17 26  3 28                0.003188180
  -5920769.980 6  -4624767.906 5  24741612.187        2236.038
 -14572960.031 8 -11348658.394 9  21412675.735         488.889
 -12128216.115 7  -9462339.233 7  22606788.187       -1690.290
   2594256.178 8 -10566142.602 9  21763019.404        1267.340
  -1300819.727 6  -1029124.140 5  24275409.457        2526.307
  -1396837.786 7  -8866400.899 6  22441585.643        2661.833
 -11673874.135 6  -8762217.673 6  23575666.574       -2634.060
 93  5 10  6 18 30.0030000  0  7 22 23 21 17 26  3 28                0.003194440
  -5853547.764 5  -4572386.975 5  24754403.898        2245.534
 -14558110.811 8 -11337087.567 9  21415501.238         500.977
 -12178756.370 7  -9501721.230 7  22597170.565       -1679.050
   2632388.735 8 -10536428.946 9  21770275.890        1274.897
  -1224808.480 6   -969894.600 5  24289873.950        2541.002
  -1316734.649 7  -8803982.889 6  22456828.812        2678.126
 -11752738.841 6  -8823670.678 6  23560658.557       -2623.515
 93  5 10  6 19  0.0030000  0  7 22 23 21 17 26  3 28                0.003200700
  -5786032.567 5  -4519777.741 5  24767251.172        2255.369
 -14542905.289 8 -11325239.112 9  21418394.732         512.515
 -12228964.909 7  -9540844.757 7  22587616.300       -1668.412
   2670760.421 8 -10506528.948 9  21777577.967        1283.249
  -1148359.293 6   -910323.787 5  24304422.080        2555.374
  -1236140.948 7  -8741182.629 6  22472165.355        2694.517
 -11831281.664 6  -8884872.871 6  23545712.673       -2612.684
 93  5 10  6 19 30.0030000  0  7 22 23 21 17 26  3 28                0.003206970
  -5718225.681 5  -4466941.237 5  24780154.524        2264.961
 -14527353.743 8 -11313121.015 9  21421354.414         524.358
 -12278850.078 7  -9579716.294 7  22578123.678       -1657.274
   2709390.851 8 -10476427.327 9  21784929.028        1292.127
  -1071483.711 6   -850420.715 5  24319051.111        2569.572
  -1155052.005 7  -8677996.459 6  22487595.830        2711.178
 -11909493.448 6  -8945817.120 6  23530829.603       -2601.339
 93  5 10  6 20  0.0030000  0  7 22 23 21 17 26  3 28                0.003213240
  -5650140.680 5  -4413887.974 5  24793110.305        2274.159
 -14511452.802 8 -11300730.677 9  21424380.310         535.717
 -12328418.636 7  -9618341.132 7  22568691.078       -1647.428
   2748276.825 8 -10446126.580 9  21792328.775        1300.319
   -994201.582 6   -790200.864 5  24333757.414        2582.564
  -1073472.951 7  -8614428.375 6  22503120.045        2727.236
 -11987362.773 6  -9006494.542 6  23516011.393       -2589.800
 93  5 10  6 20 30.0030000  0  7 22 23 21 17 26  3 28                0.003219510
  -5581759.865 5  -4360604.264 5  24806123.856        2284.384
 -14495206.883 8 -11288071.524 9  21427471.730         547.423
 -12377696.866 7  -9656739.736 7  22559313.643       -1637.702
   2787416.595 8 -10415628.083 9  21799776.699        1309.005
   -916518.926 6   -729668.883 5  24348539.859        2596.303
   -991405.939 7  -8550480.090 6  22518736.900        2743.715
 -12064878.893 6  -9066896.718 6  23501260.226       -2578.026
 93  5 10  6 21  0.0030000  0  7 22 23 21 17 26  3 28                0.003225790
  -5513077.591 5  -4307085.635 5  24819193.067        2294.265
 -14478608.959 8 -11275138.070 9  21430630.135         559.281
 -12426692.944 7  -9694918.487 7  22549990.138       -1628.521
   2826808.729 8 -10384932.938 9  21807273.038        1317.304
   -838435.272 6   -668824.448 5  24363399.142        2609.426
   -908847.458 7  -8486148.820 6  22534447.225        2760.077
 -12142055.109 6  -9127034.020 6  23486573.974       -2566.940
 93  5 10  6 21 30.0030000  0  7 22 23 21 17 26  3 28                0.003232070
  -5444116.601 5  -4253349.817 5  24832315.603        2303.397
 -14461650.505 8 -11261923.703 9  21433857.299         571.573
 -12475404.388 7  -9732875.443 7  22540720.403       -1618.723
   2866441.279 8 -10354050.443 9  21814814.947        1325.130
   -759957.745 6   -607673.144 5  24378332.716        2622.652
   -825797.736 7  -8421434.786 6  22550251.037        2776.459
 -12218904.013 6  -9186916.277 6  23471950.287       -2556.037
 93  5 10  6 22  0.0030000  0  7 22 23 21 17 26  3 28                0.003238330
  -5374887.773 5  -4199405.289 5  24845488.983        2312.128
 -14444324.116 8 -11248422.620 9  21437154.408         583.700
 -12523831.588 7  -9770610.897 7  22531504.932       -1609.449
   2906305.364 8 -10322987.544 9  21822400.716        1332.824
   -681078.233 6   -546208.553 5  24393343.130        2636.363
   -742261.609 7  -8356341.733 6  22566147.430        2792.633
 -12295425.978 6  -9246543.780 6  23457388.839       -2545.395
 93  5 10  6 22 30.0030000  0  7 22 23 21 17 26  3 28                0.003244580
  -5305401.035 5  -4145259.785 5  24858711.081        2320.241
 -14426632.855 8 -11234637.220 9  21440520.808         595.778
 -12571968.019 7  -9808119.784 7  22522344.726       -1599.453
   2946412.579 8 -10291735.168 9  21830032.714        1341.073
   -601778.912 6   -484416.827 5  24408433.174        2650.195
   -658239.081 7  -8290869.654 6  22582136.163        2808.749
 -12371640.973 6  -9305932.066 6  23442885.589       -2535.544
 93  5 10  6 23  0.0030000  0  7 22 23 21 17 26  3 28                0.003250820
  -5235676.617 5  -4090929.120 5  24871979.026        2328.064
 -14408577.699 8 -11220568.272 9  21443956.527         607.745
 -12619796.379 7  -9845388.615 7  22513243.367       -1589.153
   2986775.633 8 -10260283.474 9  21837713.486        1349.866
   -522073.302 6   -422308.496 5  24423600.466        2663.529
   -573730.007 7  -8225018.449 6  22598217.749        2824.944
 -12447544.286 6  -9365077.499 6  23428441.537       -2524.685
 93  5 10  6 23 30.0030000  0  7 22 23 21 17 26  3 28                0.003257030
  -5165723.584 5  -4036420.258 5  24885291.099        2335.748
 -14390170.065 8 -11206224.664 9  21447459.472         619.387
 -12667312.784 7  -9882414.373 7  22504201.085       -1578.630
   3027403.965 8 -10228625.040 9  21845444.941        1358.689
   -441963.110 6   -359884.956 5  24438844.987        2677.107
   -488738.497 7  -8158791.306 6  22614391.383        2840.935
 -12523116.050 6  -9423964.600 6  23414060.714       -2513.414
 93  5 10  6 24  0.0030000  0  7 22 23 21 17 26  3 28                0.003263240
  -5095526.130 5  -3981720.917 5  24898650.051        2344.001
 -14371419.203 8 -11191613.611 9  21451027.312         630.625
 -12714513.496 7  -9919194.142 7  22495219.053       -1568.142
   3068302.033 8 -10196756.432 9  21853227.565        1367.852
   -361445.170 6   -297143.658 5  24454166.973        2690.692
   -403262.593 7  -8092186.740 6  22630657.021        2857.140
 -12598344.612 6  -9482584.261 6  23399745.143       -2501.846
 93  5 10  6 24 30.0030000  0  7 22 23 21 17 26  3 28                0.003269450
  -5025084.099 5  -3926831.059 5  24912054.834        2352.068
 -14352340.293 8 -11176746.935 9  21454658.000         641.298
 -12761402.299 7  -9955730.852 7  22486296.532       -1557.832
   3109469.696 8 -10164677.750 9  21861061.503        1376.494
   -280527.351 6   -234090.787 5  24469565.063        2703.708
   -317303.015 7  -8025205.275 6  22647014.408        2873.227
 -12673221.685 7  -9540930.016 6  23385496.717       -2489.648
 93  5 10  6 25  0.0030000  0  7 22 23 21 17 26  3 28                0.003275660
  -4954403.242 5  -3871755.118 5  24925505.824        2359.956
 -14332944.705 8 -11161633.495 9  21458348.885         651.708
 -12807986.746 7  -9992030.416 7  22477431.659       -1548.042
   3150883.268 8 -10132407.450 9  21868942.307        1384.278
   -199218.870 6   -170733.487 5  24485037.731        2716.932
   -230862.773 7  -7957849.282 6  22663463.249        2889.095
 -12747718.887 7  -9598979.793 6  23371320.720       -2477.003
 93  5 10  6 25 30.0030000  0  7 22 23 21 17 26  3 28                0.003281880
  -4883477.161 5  -3816488.064 5  24939001.892        2368.411
 -14313227.649 8 -11146269.548 9  21462101.096         662.803
 -12854283.122 7 -10028105.491 7  22468621.428       -1538.449
   3192529.731 8 -10099955.689 9  21876867.241        1391.982
   -117509.837 6   -107064.103 5  24500586.478        2730.065
   -143945.793 7  -7890121.774 6  22680003.529        2905.040
 -12821842.132 7  -9656738.175 6  23357215.117       -2464.639
 93  5 10  6 26  0.0030000  0  7 22 23 21 17 26  3 28                0.003288110
  -4812297.978 5  -3761023.752 5  24952547.924        2376.871
 -14293176.825 8 -11130645.534 9  21465916.554         674.099
 -12900294.716 7 -10063958.661 7  22459866.039       -1528.956
   3234410.118 8 -10067321.637 9  21884836.914        1400.123
    -35412.101 6    -43091.804 5  24516209.201        2743.144
    -56550.645 7  -7822021.688 6  22696634.316        2921.009
 -12895594.922 7  -9714207.873 6  23343180.772       -2452.089
 93  5 10  6 26 30.0030000  0  7 22 23 21 17 26  3 28                0.003294340
  -4740869.257 5  -3705365.033 5  24966140.201        2385.138
 -14272777.679 8 -11114750.112 9  21469798.437         685.708
 -12946017.278 7 -10099586.630 7  22451165.761       -1519.280
   3276540.564 8 -10034492.723 9  21892854.111        1408.449
     47076.433 6     21185.054 5  24531905.766        2755.985
     31322.494 7  -7753549.154 6  22713355.851        2936.901
 -12968966.365 7  -9771380.435 6  23329218.707       -2439.299
 93  5 10  6 27  0.0030000  0  7 22 23 21 17 26  3 28                0.003300570
  -4669184.161 5  -3649506.559 5  24979781.895        2393.947
 -14252026.715 8 -11098580.527 9  21473747.294         697.619
 -12991450.967 7 -10134989.509 7  22442519.669       -1509.715
   3318930.507 8 -10001461.610 9  21900920.769        1417.602
    129950.116 6     85761.996 5  24547675.834        2768.816
    119671.902 7  -7684705.480 6  22730168.300        2952.693
 -13041957.870 7  -9828256.947 6  23315328.763       -2427.034
 93  5 10  6 27 30.0030000  0  7 22 23 21 17 26  3 28                0.003306800
  -4597239.274 5  -3593445.622 5  24993472.475        2402.374
 -14230922.778 8 -11082135.914 9  21477763.602         709.147
 -13036598.780 7 -10170169.601 7  22433928.186       -1499.867
   3361598.173 8  -9968214.106 9  21909040.087        1426.824
    213197.944 6    150630.497 5  24563517.540        2781.096
    208490.928 7  -7615495.869 6  22747069.932        2968.411
 -13114584.596 7  -9884849.198 6  23301508.711       -2414.609
 93  5 10  6 28  0.0030000  0  7 22 23 21 17 26  3 28                0.003313040
  -4525033.541 5  -3537181.409 5  25007212.999        2411.203
 -14209483.377 8 -11065429.896 9  21481843.409         720.073
 -13081436.236 7 -10205107.866 7  22425395.760       -1489.314
   3404543.225 8  -9934750.458 9  21917212.131        1436.101
    296830.398 6    215798.675 5  24579432.354        2794.411
    297783.280 7  -7545917.453 6  22764061.977        2984.143
 -13186828.985 7  -9941143.536 6  23287760.850       -2401.542
 93  5 10  6 28 30.0030000  0  7 22 23 21 17 26  3 28                0.003319300
  -4452569.933 5  -3480716.296 5  25021002.378        2419.906
 -14187719.772 8 -11048471.243 9  21485984.892         730.733
 -13125955.518 7 -10239798.203 7  22416924.086       -1478.533
   3447752.731 8  -9901080.715 9  21925434.578        1444.525
    380860.836 6    281276.988 5  24595423.073        2807.588
    387546.861 7  -7475971.845 6  22781143.283        2999.958
 -13258686.893 7  -9997136.694 6  23274086.515       -2388.785
 93  5 10  6 29  0.0030000  0  7 22 23 21 17 26  3 28                0.003325580
  -4379851.520 5  -3424052.637 5  25034840.087        2427.746
 -14165635.512 8 -11031262.742 9  21490187.283         741.387
 -13170145.986 7 -10274232.321 7  22408514.769       -1467.620
   3491211.177 8  -9867217.011 9  21933704.511        1452.446
    465281.890 6    347059.676 5  24611487.830        2820.252
    477782.604 7  -7405658.289 6  22798314.936        3015.387
 -13330162.508 7 -10052831.982 6  23260485.392       -2376.342
 93  5 10  6 29 30.0030000  0  7 22 23 21 17 26  3 28                0.003331850
  -4306911.099 5  -3367215.963 5  25048719.431        2434.796
 -14143235.921 8 -11013808.523 9  21494449.662         751.685
 -13214000.321 7 -10308404.525 7  22400169.544       -1456.189
   3534894.621 8  -9833177.983 9  21942017.208        1459.643
    550078.525 6    413135.013 5  24627623.992        2832.662
    568481.696 7  -7334983.704 6  22815574.236        3030.827
 -13401262.045 7 -10108234.217 6  23246955.279       -2363.628
 93  5 10  6 30  0.0030000  0  7 22 23 21 17 26  3 28                0.003338120
  -4233762.770 5  -3310217.269 5  25062639.269        2441.615
 -14120522.864 8 -10996110.056 9  21498771.840         762.543
 -13257515.839 7 -10342312.691 7  22391888.848       -1445.075
   3578800.405 8  -9798965.685 9  21950372.273        1467.435
    635247.561 6    479500.524 5  24643831.022        2844.979
    659644.975 7  -7263947.410 6  22832921.459        3046.329
 -13471982.460 7 -10163341.029 6  23233497.873       -2351.110
 93  5 10  6 30 30.0030000  0  8 22 23  1 21 17 26  3 28             0.003344390
  -4160415.816 5  -3253063.837 5  25076595.848        2448.099
 -14097473.328 8 -10978149.385 9  21503157.933         773.953
   -230000.77315   -183553.95412  25441258.684       -3413.198
 -13300704.665 7 -10375966.319 7  22383670.348       -1434.372
   3622943.541 8  -9764568.467 9  21958772.558        1475.446
    720768.449 6    546140.237 5  24660105.345        2856.260
    751272.640 7  -7192549.293 6  22850358.275        3061.873
 -13542328.988 7 -10218156.503 6  23220111.451       -2338.755
 93  5 10  6 31  0.0030000  0  8 22 23  1 21 17 26  3 28             0.003350600
  -4086874.390 5  -3195758.845 5  25090590.346        2454.894
 -14074080.990 8 -10959921.598 9  21507609.223         785.745
   -332392.499 5   -263339.548 4  25421774.302       -3412.944
 -13343581.791 7 -10409377.053 7  22375511.275       -1424.061
   3667336.378 8  -9729976.648 9  21967220.310        1484.283
    806620.937 6    613038.312 5  24676442.338        2867.463
    843365.775 7  -7120788.419 6  22867882.774        3077.625
 -13612298.859 7 -10272678.465 6  23206796.549       -2325.721
 93  5 10  6 31 30.0030000  0  8 22 23  1 21 17 26  3 28             0.003356780
  -4013135.086 5  -3138299.643 5  25104622.373        2461.270
 -14050349.967 8 -10941429.898 9  21512125.165         796.469
   -434787.287 5   -343127.562 5  25402289.533       -3413.231
 -13386167.930 7 -10442561.025 7  22367407.078       -1414.974
   3711987.413 8  -9695183.660 9  21975716.946        1492.795
    892805.124 5    680194.874 5  24692841.936        2878.329
    935919.554 7  -7048668.614 6  22885495.241        3092.572
 -13681887.894 7 -10326903.678 6  23193554.027       -2313.370
 93  5 10  6 32  0.0030000  0  8 22 23  1 21 17 26  3 28             0.003362940
  -3939184.557 5  -3080675.903 5  25118694.667        2468.735
 -14026283.984 8 -10922677.186 9  21516704.715         807.900
   -537181.457 5   -422915.060 5  25382803.693       -3413.062
 -13428477.596 7 -10475529.582 7  22359355.801       -1405.745
   3756911.376 8  -9660177.965 9  21984265.859        1502.158
    979327.735 6    747615.153 5  24709306.613        2889.869
   1028931.262 7  -6976191.997 6  22903194.489        3107.955
 -13751096.877 7 -10380832.750 6  23180383.702       -2300.512
 93  5 10  6 32 30.0030000  0  8 22 23  1 21 17 26  3 28             0.003369090
  -3865015.138 5  -3022881.574 5  25132807.712        2475.960
 -14001878.847 8 -10903660.216 9  21521348.972         819.029
   -639569.829 5   -502698.064 5  25363318.832       -3413.022
 -13470511.932 7 -10508283.609 7  22351356.877       -1396.509
   3802109.655 8  -9624958.547 9  21992866.726        1510.967
   1066195.825 6    815304.610 5  24725837.245        2901.526
   1122402.504 7  -6903357.299 6  22920981.562        3123.275
 -13819912.753 7 -10434455.511 6  23167288.550       -2287.243
 93  5 10  6 33  0.0030000  0  8 22 23  1 21 17 26  3 28             0.003375250
  -3790623.703 5  -2964914.227 5  25146964.459        2483.506
 -13977145.031 8 -10884387.118 9  21526055.632         830.049
   -741959.630 5   -582482.188 5  25343834.932       -3412.697
 -13512260.337 7 -10540814.818 7  22343412.567       -1386.517
   3847574.799 8  -9589531.169 9  22001518.625        1520.053
   1153435.873 6    883283.907 5  24742438.386        2914.753
   1216335.870 7  -6830162.508 6  22938856.370        3138.800
 -13888325.238 7 -10487763.934 6  23154270.022       -2273.506
 93  5 10  6 33 30.0030000  0  8 22 23  1 21 17 26  3 28             0.003381430
  -3716014.597 5  -2906777.294 5  25161162.469        2490.345
 -13952085.353 8 -10864860.109 9  21530824.547         840.538
   -844335.353 5   -662255.378 5  25324354.321       -3412.301
 -13553704.686 7 -10573109.116 7  22335526.098       -1376.361
   3893297.288 8  -9553903.257 9  22010219.203        1528.114
   1241077.970 6    951576.525 5  24759116.583        2928.088
   1310727.773 7  -6756610.383 6  22956818.466        3153.741
 -13956330.898 7 -10540755.356 6  23141328.963       -2260.211
 93  5 10  6 34  0.0030000  0  8 22 23  1 21 17 26  3 28             0.003387620
  -3641200.560 5  -2848480.687 5  25175398.991        2497.070
 -13926705.887 8 -10845083.905 9  21535653.928         851.385
   -946687.485 5   -742010.149 5  25304877.439       -3411.481
 -13594837.895 7 -10605160.950 8  22327698.747       -1365.928
   3939263.096 8  -9518085.758 9  22018966.355        1535.972
   1329123.211 6   1020183.232 5  24775870.743        2941.381
   1405570.903 7  -6682706.681 6  22974866.771        3168.730
 -14023931.193 7 -10593430.913 6  23128464.917       -2246.536
 93  5 10  6 34 30.0030000  0  8 22 23  1 21 17 26  3 28             0.003393840
  -3566183.703 5  -2790026.039 5  25189674.701        2503.966
 -13900990.897 8 -10825046.265 9  21540547.230         862.852
  -1049010.665 5   -821742.379 5  25285406.033       -3410.169
 -13635651.649 7 -10636963.870 8  22319932.181       -1355.020
   3985461.941 8  -9482086.675 9  22027757.661        1543.765
   1417570.626 6   1089103.351 5  24792701.418        2954.871
   1500867.071 7  -6608449.976 6  22993001.048        3184.020
 -14091115.143 7 -10645782.045 6  23115680.424       -2232.640
 93  5 10  6 35  0.0030000  0  8 22 23  1 21 17 26  3 28             0.003400070
  -3490964.866 5  -2731413.973 5  25203988.555        2510.717
 -13874939.652 8 -10804746.595 9  21545504.867         874.123
  -1151289.487 5   -901440.068 5  25265942.394       -3408.167
 -13676135.310 7 -10668509.569 8  22312228.376       -1343.847
   4031895.433 8  -9445904.735 9  22036593.404        1551.975
   1506415.157 6   1158332.890 5  24809607.790        2967.931
   1596616.167 7  -6533840.305 6  23011221.474        3199.126
 -14157890.288 7 -10697814.628 6  23102973.924       -2218.798
 93  5 10  6 35 30.0030000  0  8 22 23  1 21 17 26  3 28             0.003406310
  -3415540.876 5  -2672642.054 5  25218341.495        2517.298
 -13848539.784 8 -10784175.272 9  21550528.560         885.596
  -1253498.013 5   -981082.940 5  25246493.354       -3405.827
 -13716282.864 7 -10699793.352 8  22304588.445       -1332.829
   4078581.095 8  -9409526.306 9  22045477.314        1560.482
   1595632.103 6   1227852.641 5  24826585.312        2979.568
   1692823.102 6  -6458873.884 6  23029529.210        3214.290
 -14224242.529 7 -10749517.648 6  23090347.215       -2204.687
 93  5 10  6 36  0.0030000  0  8 22 23  1 21 17 26  3 28             0.003412540
  -3339934.667 5  -2613728.141 5  25232729.327        2523.108
 -13821805.124 8 -10763343.071 9  21555615.978         896.555
  -1355644.951 5  -1060677.823 5  25227056.249       -3404.032
 -13756109.837 7 -10730827.343 8  22297009.752       -1322.402
   4125531.899 7  -9372941.271 9  22054411.659        1569.381
   1685177.833 6   1297628.566 5  24843625.489        2989.980
   1789482.910 6  -6383554.574 6  23047922.502        3229.294
 -14290174.813 7 -10800893.451 6  23077800.321       -2190.834
 93  5 10  6 36 30.0030000  0  8 22 23  1 21 17 26  3 28             0.003418760
  -3264158.135 5  -2554681.557 5  25247149.242        2528.598
 -13794759.395 8 -10742268.496 9  21560762.654         906.296
  -1457735.431 5  -1140228.780 5  25207629.114       -3401.986
 -13795631.339 7 -10761623.330 8  22289489.048       -1312.385
   4172743.393 7  -9336153.101 9  22063395.918        1578.038
   1775028.720 6   1367642.272 5  24860723.579        2999.979
   1886585.781 6  -6307890.021 6  23066400.855        3243.901
 -14355693.389 7 -10851946.895 6  23065332.703       -2177.172
 93  5 10  6 37  0.0030000  0  8 22 23  1 21 17 26  3 28             0.003424950
  -3188224.814 5  -2495512.720 5  25261598.650        2533.543
 -13767431.284 8 -10720973.871 9  21565962.805         915.504
  -1559755.914 5  -1219725.084 5  25188214.769       -3399.811
 -13834848.294 7 -10792181.963 8  22282026.234       -1302.322
   4220220.276 8  -9299158.137 9  22072430.542        1586.969
   1865176.849 6   1437887.610 5  24877877.872        3009.640
   1984130.965 6  -6231880.812 6  23084963.521        3258.692
 -14420790.188 7 -10902671.669 6  23052945.376       -2162.611
 93  5 10  6 37 30.0030000  0  8 22 23  1 21 17 26  3 28             0.003431140
  -3112141.283 5  -2436226.894 5  25276077.717        2538.636
 -13739826.280 8 -10699463.481 9  21571215.949         924.779
  -1661720.133 5  -1299177.685 5  25168811.263       -3397.990
 -13873771.492 7 -10822511.707 8  22274619.421       -1292.608
   4267964.244 7  -9261955.041 9  22081515.892        1595.882
   1955614.476 6   1508358.536 5  24895087.818        3019.664
   2082117.082 6  -6155528.023 6  23103609.394        3273.401
 -14485448.500 7 -10953054.767 6  23040641.428       -2147.964
 93  5 10  6 38  0.0030000  0  8 22 23  1 21 17 26  3 28             0.003437310
  -3035908.054 5  -2376824.446 5  25290583.952        2544.112
 -13711949.114 8 -10677741.020 9  21576520.745         934.119
  -1763639.978 5  -1378595.662 5  25149416.712       -3396.308
 -13912412.238 7 -10852621.368 8  22267266.182       -1283.171
   4315966.641 8  -9224550.590 9  22090650.580        1604.317
   2046362.876 6   1579071.666 5  24912357.093        3030.485
   2180538.944 6  -6078835.713 6  23122338.559        3288.033
 -14549674.545 7 -11003101.035 6  23028419.487       -2133.519
 93  5 10  6 38 30.0030000  0  8 22 23  1 21 17 26  3 28             0.003443480
  -2959500.897 5  -2317286.385 5  25305124.182        2549.799
 -13683784.951 8 -10655794.923 9  21581880.345         943.871
  -1865512.371 5  -1457976.633 5  25130031.035       -3394.866
 -13950773.968 7 -10882513.610 8  22259966.215       -1274.004
   4364212.814 7  -9186956.177 9  22099831.564        1612.420
   2137437.354 6   1650038.810 5  24929687.744        3041.357
   2279396.102 6  -6001804.168 6  23141150.235        3302.428
 -14613466.282 7 -11052808.860 7  23016280.411       -2119.087
 93  5 10  6 39  0.0030000  0  8 22 23  1 21 17 26  3 28             0.003449660
  -2882918.752 5  -2257612.019 5  25319697.559        2555.855
 -13655307.782 8 -10633604.928 9  21587299.245         954.772
  -1967339.836 5  -1537322.671 5  25110653.492       -3393.790
 -13988852.629 7 -10912185.291 8  22252720.503       -1264.516
   4412711.817 7  -9149164.746 9  22109060.627        1620.941
   2228846.731 6   1721266.951 5  24947082.187        3052.741
   2378691.914 6  -5924430.838 6  23160045.594        3317.091
 -14676821.306 7 -11102176.409 7  23004224.138       -2104.676
 93  5 10  6 39 30.0030000  0  8 22 23  1 21 17 26  3 28             0.003455840
  -2806140.138 5  -2197784.598 5  25334308.622        2562.632
 -13626493.054 8 -10611151.907 9  21592782.408         966.329
  -2069136.961 5  -1616645.011 5  25091281.788       -3392.678
 -14026645.095 7 -10941633.943 8  22245528.752       -1254.787
   4461468.998 7  -9111172.149 9  22118338.883        1629.633
   2320604.061 6   1792766.218 5  24964543.031        3064.625
   2478423.217 6  -5846718.177 6  23179023.856        3331.539
 -14739756.409 7 -11151216.746 7  22992247.678       -2090.875
 93  5 10  6 40  0.0030000  0  8 22 23  1 21 17 26  3 28             0.003462020
  -2729162.334 5  -2137801.908 5  25348956.931        2568.903
 -13597332.845 8 -10588429.664 9  21598331.576         977.453
  -2170898.578 5  -1695939.714 5  25071916.790       -3391.532
 -14064137.686 7 -10970848.942 8  22238393.828       -1244.717
   4510485.569 7  -9072977.418 9  22127666.296        1638.020
   2412719.246 6   1864544.317 5  24982071.449        3076.043
   2578587.231 6  -5768668.335 6  23198084.551        3345.688
 -14802277.770 7 -11199934.671 7  22980350.205       -2077.317
 93  5 10  6 40 30.0030000  0  8 22 23  1 21 17 26  3 28             0.003468200
  -2652004.143 5  -2077678.692 5  25363639.464        2574.735
 -13567839.458 8 -10565447.806 9  21603944.039         988.665
  -2272626.955 5  -1775208.492 5  25052558.595       -3390.243
 -14101315.470 7 -10999818.617 8  22231319.748       -1233.707
   4559757.109 8  -9034584.014 9  22137042.383        1646.841
   2505167.417 5   1936581.910 5  24999663.731        3087.164
   2679177.889 6  -5690286.012 6  23217226.279        3360.073
 -14864381.815 7 -11248327.434 7  22968532.257       -2063.046
 93  5 10  6 41  0.0030000  0  8 22 23  1 21 17 26  3 28             0.003474370
  -2574678.921 5  -2017425.321 5  25378354.317        2580.271
 -13538016.352 8 -10542209.038 9  21609619.401         999.480
  -2374313.329 5  -1854444.578 5  25033208.399       -3388.695
 -14138156.655 7 -11028526.037 8  22224308.682       -1222.403
   4609295.942 8  -8995982.336 9  22146469.297        1655.789
   2597949.139 5   2008879.330 5  25017319.521        3098.256
   2780197.725 6  -5611569.286 6  23236449.538        3374.371
 -14926058.442 7 -11296387.141 7  22956795.612       -2048.606
 93  5 10  6 41 30.0030000  0  8 22 23  1 21 17 26  3 28             0.003480530
  -2497187.868 5  -1957042.720 5  25393100.083        2585.202
 -13507875.439 8 -10518722.611 9  21615355.090        1009.545
  -2475938.863 5  -1933633.225 5  25013869.262       -3386.448
 -14174656.719 7 -11056967.620 8  22217362.969       -1211.265
   4659111.393 8  -8957165.105 9  22155948.895        1664.975
   2691061.917 5   2081434.823 5  25035038.206        3108.777
   2881651.992 6  -5532514.058 6  23255755.985        3388.708
 -14987287.732 7 -11344098.264 7  22945144.087       -2033.456
 93  5 10  6 42  0.0030000  0  8 22 23  1 21 17 26  3 28             0.003486680
  -2419567.045 5  -1896558.938 5  25407869.620        2589.423
 -13477444.898 8 -10495010.501 9  21621145.751        1018.997
  -2577490.049 5  -2012763.964 5  24994544.125       -3383.604
 -14210831.294 7 -11085155.584 8  22210479.026       -1200.568
   4709196.679 8  -8918137.615 9  22165479.738        1674.119
   2784474.042 6   2154223.506 5  25052813.658        3118.513
   2983532.419 6  -5453126.739 6  23275143.642        3403.077
 -15048059.286 7 -11391452.708 7  22933579.841       -2017.926
 93  5 10  6 42 30.0030000  0  8 22 23  1 21 17 26  3 28             0.003492820
  -2341823.129 5  -1835979.365 5  25422662.795        2593.617
 -13446738.282 8 -10471083.277 9  21626988.997        1028.239
  -2678957.971 5  -2091829.772 5  24975235.115       -3380.901
 -14246702.443 7 -11113107.093 8  22203653.250       -1190.849
   4759559.192 8  -8878894.109 9  22175063.772        1683.448
   2878167.822 5   2227231.677 5  25070643.086        3127.967
   3085837.392 6  -5373408.590 6  23294611.096        3417.165
 -15108366.725 7 -11438445.503 7  22922104.158       -2002.538
 93  5 10  6 43  0.0030000  0  8 22 23  1 21 17 26  3 28             0.003498940
  -2263945.879 5  -1775295.858 5  25437482.723        2598.445
 -13415760.514 8 -10446944.764 9  21632883.776        1037.099
  -2780348.546 5  -2170835.394 5  24955940.556       -3378.372
 -14282294.330 7 -11140841.019 8  22196880.429       -1181.942
   4810200.996 8  -8839432.977 9  22184700.492        1692.730
   2972142.669 5   2300458.846 5  25088526.155        3137.398
   3188563.145 6  -5293362.586 6  23314159.105        3431.150
 -15168215.266 7 -11485080.726 7  22910714.991       -1987.106
 93  5 10  6 43 30.0030000  0  8 22 23  1 21 17 26  3 28             0.003505070
  -2185919.462 5  -1714496.092 5  25452331.137        2603.047
 -13384507.075 8 -10422591.434 9  21638830.959        1046.213
  -2881653.253 5  -2249774.047 5  24936662.665       -3375.722
  14287262.04317     -6409.24611  22190159.563       -1172.845
   4861127.384 8  -8799750.094 9  22194391.513        1701.988
   3066414.572 5   2373917.491 5  25106465.067        3147.165
   3291716.018 6  -5212983.772 6  23333788.556        3445.172
 -15227588.969 7 -11531345.932 7  22899416.563       -1971.520
 93  5 10  6 44  0.0030000  0  8 22 23  1 21 17 26  3 28             0.003511200
  -2107752.166 5  -1653586.556 5  25467204.862        2608.215
 -13352970.935 8 -10398017.826 9  21644832.065        1056.157
  -2982881.704 5  -2328653.300 5  24917399.558       -3373.010
  14252226.004 7    -33709.289 5  22183492.448       -1162.968
   4912329.561 8  -8759852.281 9  22204134.985        1711.414
   3160989.669 5   2447612.447 5  25124462.309        3157.941
   3395288.432 6  -5132277.997 6  23353498.026        3459.416
 -15286496.345 7 -11577247.772 7  22888206.874       -1955.698
 93  5 10  6 44 30.0030000  0  8 22 23  1 21 17 26  3 28             0.003517350
  -2029422.907 5  -1592550.836 5  25482109.621        2613.630
 -13321140.443 8 -10373214.852 9  21650889.372        1066.090
  -3084034.680 5  -2407473.730 5  24898151.708       -3370.516
  14217488.798 7    -60777.236 6  22176882.216       -1152.763
   4963800.781 8  -8719744.852 9  22213929.796        1719.884
   3255892.736 5   2521562.908 5  25142521.672        3169.071
   3499282.308 6  -5051243.849 6  23373287.768        3473.278
 -15344934.041 7 -11622783.640 7  22877086.462       -1940.087
 93  5 10  6 45  0.0030000  0  8 22 23  1 21 17 26  3 28             0.003523520
  -1950935.827 5  -1531392.047 5  25497045.666        2618.487
 -13289009.846 8 -10348178.025 9  21657003.656        1075.746
  -3185114.406 5  -2486237.091 5  24878917.414       -3368.177
  14183060.845 7    -87604.179 7  22170330.751       -1142.689
   5015513.009 7  -8679449.605 9  22223770.045        1727.367
   3351136.232 5   2595778.641 5  25160645.926        3180.245
   3603689.478 6  -4969887.629 5  23393155.667        3486.700
 -15402902.157 7 -11667953.593 7  22866055.701       -1924.701
 93  5 10  6 45 30.0030000  0  8 22 23  1 21 17 26  3 28             0.003529700
  -1872305.805 5  -1470121.987 5  25512009.845        2623.110
 -13256573.849 8 -10322903.221 9  21663175.935        1086.149
  -3286098.911 5  -2564926.242 5  24859700.913       -3364.514
  14148957.943 7   -114177.863 7  22163840.931       -1131.191
   5067462.742 7  -8638969.302 9  22233655.642        1735.534
   3446722.337 5   2670261.345 5  25178835.647        3191.649
   3708507.205 6  -4888211.537 5  23413102.017        3500.499
 -15460399.660 7 -11712756.837 7  22855114.373       -1909.026
 93  5 10  6 46  0.0030000  0  7 22 23  1 17 26  3 28                0.003535870
  -1793540.918 5  -1408746.742 5  25526998.970        2627.791
 -13223837.027 8 -10297394.019 9  21669405.504        1096.039
  -3386975.935 5  -2643531.630 5  24840504.037       -3360.658
   5119651.906 7  -8598302.415 9  22243586.955        1743.615
   3542631.959 5   2744996.123 5  25197086.420        3202.117
   3813734.802 6  -4806216.007 5  23433126.193        3514.290
 -15517427.958 7 -11757194.457 7  22844262.407       -1893.093
 93  5 10  6 46 30.0030000  0  8 22 23  1 21 17 26  3 28             0.003542090
  -1714637.383 5  -1347263.499 5  25542013.323        2631.906
 -13190812.377 8 -10271660.531 9  21675689.781        1105.438
  -3487738.150 5  -2722047.583 5  24821328.748       -3357.083
    158475.58217    -18050.31211  22151054.584       -1109.168
   5172075.639 7  -8557452.765 8  22253562.800        1751.195
   3638843.105 6   2819965.866 5  25215395.208        3211.642
   3919373.931 6  -4723899.816 5  23453228.847        3527.881
 -15573981.071 7 -11801261.815 7  22833500.318       -1877.334
 93  5 10  6 47  0.0030000  0  8 22 23  1 21 17 26  3 28             0.003548280
  -1635628.579 5  -1285698.305 4  25557048.086        2635.161
 -13157515.333 8 -10245714.785 9  21682026.186        1114.155
  -3588399.482 5  -2800484.977 5  24802173.020       -3353.848
     19499.45417    -14152.98812  22144751.907       -1098.754
   5224734.172 7  -8516420.158 8  22263583.352        1759.340
   3735324.760 5   2895146.422 5  25233755.312        3220.202
   4025416.241 6  -4641269.494 5  23473407.828        3541.238
 -15630068.024 7 -11844965.930 7  22822827.316       -1862.033
 93  5 10  6 47 30.0030000  0  8 22 23  1 21 17 26  3 28             0.003554430
  -1556525.981 5  -1224059.915 4  25572101.096        2638.315
 -13123958.812 8 -10219566.863 9  21688411.795        1122.876
  -3688966.008 5  -2878848.465 5  24783035.999       -3350.992
    -13302.152 7    -39714.723 1  22138509.349       -1088.110
   5277642.552 7  -8475192.843 8  22273651.382        1767.815
   3832047.620 5   2970514.877 5  25252160.426        3227.958
   4131858.788 6  -4558327.277 5  23493662.826        3554.659
 -15685698.838 7 -11888314.604 7  22812241.283       -1846.562
 93  5 10  6 48  0.0030000  0  8 22 23  1 21 17 26  3 28             0.003560550
  -1477331.218 5  -1162349.756 4  25587171.572        2641.305
 -13090139.622 8 -10193214.240 9  21694847.298        1131.885
  -3789457.467 5  -2957153.428 5  24763913.500       -3348.463
    -45799.256 7    -65037.471 1  22132325.260       -1078.462
   5330800.754 7  -8433770.884 8  22283767.132        1776.189
   3929002.777 6   3046064.343 5  25270610.399        3235.900
   4238702.247 6  -4475072.656 5  23513994.372        3568.050
 -15740860.216 7 -11931297.495 7  22801744.481       -1830.864
 93  5 10  6 48 30.0030000  0  8 22 23  1 21 17 26  3 28             0.003566640
  -1398049.772 5  -1100572.054 4  25602258.623        2643.908
 -13056043.730 8 -10166646.027 9  21701335.567        1141.061
  -3889879.720 6  -3035404.519 5  24744804.751       -3346.429
    -78018.185 7    -90134.750 2  22126194.444       -1069.619
   5384209.853 7  -8392153.400 8  22293930.832        1784.376
   4026201.007 5   3121803.201 5  25289106.679        3244.000
   4345944.975 6  -4391506.915 5  23534401.964        3581.074
 -15795551.919 7 -11973914.413 7  22791336.826       -1815.278
 93  5 10  6 49  0.0030000  0  8 22 23  1 21 17 26  3 28             0.003572700
  -1318678.124 5  -1038724.053 4  25617362.650        2647.584
 -13021661.151 8 -10139854.405 9  21707878.497        1151.071
  -3990229.166 6  -3113598.823 5  24725709.117       -3343.446
   -109959.132 7   -115023.929 5  22120116.473       -1059.989
   5437880.573 7  -8350332.073 8  22304143.792        1793.612
   4123660.242 5   3197745.490 5  25307652.527        3253.165
   4453585.801 6  -4307630.974 5  23554885.333        3594.557
 -15849766.234 7 -12016159.306 7  22781019.879       -1799.039
 93  5 10  6 49 30.0030000  0  8 22 23  1 21 17 26  3 28             0.003578770
  -1239193.619 5   -976788.125 4  25632488.640        2651.551
 -12986978.401 8 -10112828.891 9  21714478.330        1161.263
  -4090486.459 6  -3191721.357 5  24706631.214       -3340.178
   -141625.334 7   -139698.869 6  22114090.745       -1050.930
   5491818.220 7  -8308302.734 8  22314407.655        1802.434
   4221389.008 5   3273897.819 5  25326249.639        3262.466
   4561621.488 6  -4223447.360 5  23575443.720        3607.746
 -15903489.431 7 -12058021.521 7  22770796.505       -1782.169
 93  5 10  6 50  0.0030000  0  8 22 23  1 21 17 26  3 28             0.003584840
  -1159593.212 5   -914761.826 4  25647635.359        2655.237
 -12951993.328 8 -10085567.806 9  21721135.860        1170.991
  -4190634.904 6  -3269759.050 5  24687573.306       -3336.212
   -173021.508 7   -164163.422 7  22108116.120       -1041.909
   5546021.750 7  -8266066.236 8  22324722.346        1811.206
   4319410.205 5   3350277.998 5  25344902.451        3272.344
   4670051.120 6  -4138956.762 5  23596077.605        3620.767
 -15956707.640 7 -12099490.267 7  22760669.716       -1765.783
 93  5 10  6 50 30.0030000  0  8 22 23  1 21 17 26  3 28             0.003590920
  -1079872.902 5   -852642.174 4  25662805.049        2659.483
 -12916721.726 8 -10058083.446 9  21727847.775        1180.474
  -4290660.855 6  -3347701.310 5  24668538.854       -3331.991
   -204126.520 7   -188401.079 7  22102196.807       -1031.449
   5600485.581 7  -8223626.887 8  22335086.371        1819.819
   4417726.823 6   3426888.296 5  25363611.751        3282.192
   4778870.420 6  -4054162.505 5  23616785.211        3633.775
 -16009434.694 7 -12140576.267 7  22750636.332       -1749.153
 93  5 10  6 51  0.0030000  0  8 22 23  1 21 17 26  3 28             0.003597020
  -1000027.596 5   -790425.091 4  25677999.163        2663.421
 -12881168.694 8 -10030379.780 9  21734613.171        1189.809
  -4390545.931 5  -3425533.763 5  24649530.830       -3327.063
   -234898.350 7   -212379.114 8  22096341.181       -1020.036
   5655214.106 7  -8180981.283 8  22345500.971        1828.781
   4516340.258 5   3503729.939 5  25382377.235        3292.015
   4888082.079 6  -3969062.539 5  23637567.744        3646.778
 -16061659.068 7 -12181270.590 7  22740698.551       -1732.540
 93  5 10  6 51 30.0030000  0  8 22 23  1 21 17 26  3 28             0.003603130
   -920074.132 5   -728123.704 4  25693214.227        2666.789
 -12845337.159 8 -10002459.114 9  21741431.651        1199.051
  -4490285.163 6  -3503252.603 5  24630551.124       -3322.298
   -265336.002 7   -236096.744 8  22090549.201       -1008.869
   5710205.137 7  -8138131.135 8  22355965.476        1837.355
   4615241.393 5   3580795.771 5  25401197.309        3301.505
   4997680.668 6  -3883661.070 5  23658423.374        3659.641
 -16113389.208 7 -12221579.784 7  22730854.547       -1716.170
 93  5 10  6 52  0.0030000  0  8 22 23  1 21 17 26  3 28             0.003609230
   -840031.631 5   -665752.985 4  25708445.560        2669.584
 -12809236.593 8  -9974328.814 9  21748301.354        1207.794
  -4589890.537 6  -3580867.133 5  24611597.367       -3318.018
   -295434.156 7   -259549.843 8  22084821.817        -997.584
   5765451.247 7  -8095082.237 8  22366478.320        1845.876
   4714424.181 5   3658081.112 5  25420070.909        3310.698
   5107662.428 6  -3797961.016 5  23679352.424        3672.292
 -16164643.413 7 -12261518.122 7  22721101.049       -1700.673
 93  5 10  6 52 30.0030000  0  8 22 23  1 21 17 26  3 28             0.003615330
   -759903.632 5   -603315.650 4  25723693.171        2672.399
 -12772864.897 8  -9945987.238 9  21755222.743        1217.077
  -4689371.776 6  -3658384.912 5  24592667.179       -3313.978
   -325200.861 7   -282744.674 8  22079157.257        -986.916
   5820955.082 7  -8051832.478 8  22377040.547        1854.579
   4813875.105 5   3735575.351 5  25438996.430        3319.414
   5218024.071 6  -3711964.957 5  23700353.957        3685.060
 -16215427.366 7 -12301090.022 7  22711437.050       -1684.589
 93  5 10  6 53  0.0030000  0  8 22 23  1 21 17 26  3 28             0.003621420
   -679695.772 5   -540816.049 5  25738956.678        2674.834
 -12736217.917 8  -9917431.163 9  21762196.446        1226.033
  -4788725.567 5  -3735803.369 5  24573760.677       -3309.818
   -354663.746 7   -305702.748 8  22073550.587        -977.472
   5876734.298 7  -8008368.185 8  22387655.108        1863.876
   4913588.811 5   3813274.345 5  25457970.572        3328.014
   5328768.695 6  -3625670.473 5  23721427.626        3697.647
 -16265722.073 7 -12340280.697 7  22701866.223       -1668.557
 93  5 10  6 53 30.0030000  0  8 22 23  1 21 17 26  3 28             0.003627510
   -599407.166 5   -478253.536 5  25754235.356        2677.637
 -12699309.219 8  -9888671.142 9  21769219.781        1234.386
  -4887964.385 5  -3813132.261 5  24554875.134       -3306.138
   -383857.058 7   -328450.779 8  22067995.024        -968.585
   5932788.707 7  -7964689.419 8  22398321.515        1872.879
   5013553.330 5   3891168.766 5  25476993.421        3336.271
   5439892.429 6  -3539080.587 5  23742574.489        3710.317
 -16315539.879 7 -12379099.764 7  22692386.089       -1652.580
 93  5 10  6 54  0.0030000  0  8 22 23  1 21 17 26  3 28             0.003633590
   -519033.808 5   -415625.043 5  25769530.324        2680.537
 -12662157.912 8  -9859722.076 9  21776289.648        1242.404
  -4987091.911 5  -3890374.428 5  24536011.261       -3302.176
   -412777.705 7   -350986.323 9  22062491.853        -959.479
   5989108.199 7  -7920804.101 8  22409038.835        1881.792
   5113758.013 5   3969250.341 5  25496061.684        3344.060
   5551392.019 6  -3452197.801 5  23763791.730        3722.847
 -16364875.146 7 -12417542.833 7  22682997.816       -1636.190
 93  5 10  6 54 30.0030000  0  9 31 22 23  1 21 17 26  3 28          0.003639680
  -2113284.62915  -1640258.30615  25702359.098       -2951.729
   -438583.440 5   -352936.423 5  25784839.005        2683.023
 -12624773.583 8  -9830591.433 9  21783403.733        1249.964
  -5086101.444 5  -3967524.646 5  24517170.166       -3298.140
   -441427.753 7   -373311.034 9  22057039.970        -950.256
   6045687.796 7  -7876716.109 8  22419805.463        1890.357
   5214187.087 5   4047506.756 5  25515172.942        3351.397
   5663264.524 6  -3365024.433 5  23785081.001        3735.280
 -16413707.808 7 -12455594.233 7  22673705.471       -1619.110
 93  5 10  6 55  0.0030000  0  9 31 22 23  1 21 17 26  3 28          0.003645760
  -2201732.095 5  -1709178.386 5  25685528.920       -2944.572
   -358053.759 5   -290186.133 5  25800164.417        2685.835
 -12587163.525 8  -9801284.911 9  21790560.867        1257.687
  -5184973.781 5  -4044567.958 5  24498355.467       -3293.229
   -469786.002 7   -395408.361 9  22051643.267        -940.129
   6102529.462 7  -7832423.918 8  22430622.423        1899.107
   5314847.788 5   4125943.654 5  25534327.728        3359.424
   5775514.520 6  -3277556.926 5  23806441.079        3747.881
 -16462020.939 7 -12493240.824 7  22664511.984       -1601.750
 93  5 10  6 55 30.0030000  0  9 31 22 23  1 21 17 26  3 28          0.003651830
  -2289964.448 5  -1777930.935 5  25668738.224       -2937.461
   -277439.886 5   -227370.175 5  25815503.987        2688.359
 -12549312.235 8  -9771790.405 9  21797763.602        1265.793
  -5283698.896 5  -4121496.559 5  24479568.299       -3288.323
   -497834.895 7   -417264.628 9  22046305.939        -929.637
   6159623.587 7  -7787934.977 8  22441487.105        1907.226
   5415747.512 5   4204566.836 5  25553527.974        3367.330
   5888138.961 6  -3189797.673 5  23827872.496        3760.193
 -16509812.074 7 -12530480.698 7  22655417.631       -1584.160
 93  5 10  6 56  0.0030000  0  9 31 22 23  1 21 17 26  3 28          0.003657910
  -2377980.726 5  -1846515.051 5  25651988.298       -2930.288
   -196752.545 5   -164496.975 5  25830859.357        2690.841
 -12511206.725 8  -9742097.802 9  21805014.753        1274.619
  -5382266.291 5  -4198302.255 5  24460811.499       -3282.841
   -525565.847 7   -438873.147 9  22041029.074        -919.241
   6216963.267 7  -7743254.716 8  22452398.329        1915.532
   5516887.888 5   4283377.486 5  25572774.430        3375.499
   6001133.955 6  -3101749.638 5  23849374.916        3772.542
 -16557066.774 7 -12567302.510 7  22646425.386       -1566.051
 93  5 10  6 56 30.0030000  0  9 31 22 23  1 21 17 26  3 28          0.003663980
  -2465780.745 5  -1914930.620 5  25635279.835       -2923.079
   -115989.289 5   -101564.629 5  25846228.859        2693.418
 -12472840.873 8  -9712202.341 9  21812315.628        1283.135
  -5480677.771 6  -4274986.476 5  24442084.634       -3277.932
   -552995.120 7   -460246.595 9  22035809.398        -909.422
   6274552.477 7  -7698380.010 8  22463357.261        1923.766
   5618277.275 5   4362382.185 5  25592068.107        3383.803
   6114494.660 6  -3013416.635 5  23870946.701        3784.577
 -16603782.613 7 -12603704.463 8  22637535.759       -1548.472
 93  5 10  6 57  0.0030000  0  9 31 22 23  1 21 17 26  3 28          0.003670060
  -2553364.268 5  -1983177.522 5  25618613.304       -2915.697
    -35145.654 5    -38569.682 5  25861611.730        2696.146
 -12434205.620 8  -9682096.949 9  21819667.797        1292.742
  -5578940.777 6  -4351554.996 5  24423386.207       -3272.995
   -580133.935 7   -481393.697 9  22030644.963        -899.881
   6332397.196 7  -7653306.230 8  22474365.088        1932.540
   5719917.706 5   4441582.521 5  25611410.687        3392.041
   6228216.872 6  -2924801.960 5  23892586.918        3796.710
 -16649977.031 7 -12639700.117 8  22628745.204       -1531.105
 93  5 10  6 57 30.0030000  0  9 31 22 23  1 21 17 26  3 28          0.003676130
  -2640723.091 5  -2051249.343 5  25601990.077       -2908.241
     45775.166 5     24485.425 5  25877010.413        2698.445
 -12395276.447 8  -9651762.545 9  21827075.720        1302.250
  -5677064.132 6  -4428014.714 5  24404714.004       -3268.729
   -606987.230 7   -502318.340 9  22025535.010        -890.343
   6390508.092 7  -7608025.024 8  22485423.085        1941.488
   5821796.660 5   4520968.749 5  25630796.989        3399.695
   6342304.371 6  -2835902.656 5  23914297.047        3808.783
 -16695649.658 7 -12675289.171 8  22620054.233       -1513.794
 93  5 10  6 58  0.0030000  0  9 31 22 23  1 21 17 26  3 28          0.003682190
  -2727851.191 5  -2119141.391 5  25585410.920       -2900.415
    126767.459 5     87596.224 5  25892422.140        2700.955
 -12356063.308 8  -9621206.866 9  21834537.684        1311.862
  -5775058.997 6  -4504374.309 5  24386065.968       -3264.255
   -633550.383 7   -523016.893 9  22020480.177        -880.482
   6448893.428 7  -7562529.981 8  22496533.335        1951.010
   5923904.762 5   4600533.471 5  25650228.267        3407.544
   6456757.006 6  -2746718.801 5  23936076.689        3821.073
 -16740795.657 7 -12710467.887 8  22611463.111       -1495.939
 93  5 10  6 58 30.0030000  0  9 31 22 23  1 21 17 26  3 28          0.003688250
  -2814753.945 6  -2186857.813 5  25568873.916       -2892.841
    207816.497 5    150751.284 5  25907844.656        2702.548
 -12316579.002 8  -9590439.874 9  21842051.243        1320.695
  -5872933.486 6  -4580640.104 5  24367441.452       -3260.370
   -659824.991 7   -543490.595 9  22015480.499        -870.814
   6507559.155 7  -7516816.440 8  22507696.815        1960.240
   6026235.424 5   4680271.685 5  25669701.065        3414.664
   6571565.480 6  -2657257.679 5  23957924.042        3832.745
 -16785420.264 7 -12745240.292 8  22602971.178       -1478.778
 93  5 10  6 59  0.0030000  0  8 31 23  1 21 17 26  3 28             0.003694330
  -2901427.501 6  -2254395.695 5  25552380.378       -2885.337
 -12276818.446 8  -9559457.635 9  21849617.455        1329.879
  -5970679.895 6  -4656806.102 5  24348841.157       -3255.969
   -685794.303 7   -563726.390 9  22010538.760        -860.480
   6566510.429 7  -7470880.376 8  22518915.051        1969.823
   6128784.598 5   4760180.137 5  25689214.856        3422.020
   6686728.159 6  -2567520.575 5  23979839.252        3844.511
 -16829515.083 7 -12779599.890 8  22594580.139       -1460.803
 93  5 10  6 59 30.0030000  0  8 31 23  1 21 17 26  3 28             0.003700340
  -2987870.884 5  -2321754.188 5  25535931.500       -2877.369
 -12236799.477 8  -9528274.022 9  21857232.883        1338.062
  -6068286.654 6  -4732863.290 5  24330267.115       -3250.832
   -711446.870 7   -583715.421 9  22005657.380        -849.534
   6625746.652 7  -7424722.306 8  22530187.337        1979.358
   6231564.297 5   4840268.140 5  25708773.683        3430.284
   6802241.300 6  -2477510.342 5  24001820.664        3856.334
 -16873067.792 7 -12813537.068 8  22586292.534       -1442.478
 93  5 10  7  0  0.0030000  0  8 31 23  1 21 17 26  3 28             0.003706360
  -3074075.453 5  -2388926.581 5  25519527.839       -2869.521
 -12196537.911 8  -9496901.386 9  21864894.599        1346.114
  -6165722.536 6  -4808787.315 5  24311725.690       -3244.788
   -736771.833 7   -603449.148 9  22000838.215        -838.892
   6685271.238 7  -7378339.517 7  22541514.306        1988.916
   6334599.715 5   4920555.475 5  25728380.287        3438.782
   6918108.707 6  -2387224.102 5  24023870.061        3867.901
 -16916065.403 7 -12847041.697 8  22578110.329       -1424.108
 93  5 10  7  0 30.0030000  0  8 31 23  1 21 17 26  3 28             0.003712390
  -3160037.944 5  -2455910.312 5  25503170.201       -2861.372
 -12156028.142 8  -9465335.345 9  21872603.343        1354.446
  -6262971.230 6  -4884565.490 5  24293219.894       -3238.515
   -761772.970 7   -622930.529 9  21996080.611        -827.947
   6745083.069 7  -7331732.912 7  22552896.334        1998.284
   6437886.804 5   5001038.895 5  25748035.353        3446.828
   7034328.427 6  -2296663.302 5  24045985.491        3879.680
 -16958513.677 7 -12880118.265 8  22570032.611       -1405.929
 93  5 10  7  1  0.0030000  0  8 31 23  1 21 17 26  3 28             0.003718410
  -3245761.670 5  -2522708.043 5  25486856.888       -2853.314
 -12115272.676 8  -9433577.850 9  21880358.812        1362.646
  -6360029.143 6  -4960195.036 5  24274750.152       -3231.892
   -786453.988 8   -642162.495 9  21991384.172        -817.487
   6805162.607 7  -7284917.703 7  22564329.239        2007.061
   6541397.365 5   5081696.410 5  25767732.720        3453.867
   7150892.866 6  -2205833.915 5  24068167.165        3891.154
 -17000431.751 7 -12912781.700 8  22562055.773       -1388.611
 93  5 10  7  1 30.0030000  0  8 31 23  1 21 17 26  3 28             0.003724440
  -3331242.181 5  -2589316.263 5  25470589.342       -2845.314
 -12074273.573 8  -9401630.509 9  21888160.741        1370.760
  -6456875.943 6  -5035660.035 5  24256321.348       -3224.552
   -810832.912 7   -661159.052 9  21986745.182        -807.695
   6865500.543 7  -7237901.149 7  22575811.420        2015.479
   6645112.182 5   5162513.091 5  25787468.319        3460.282
   7267800.507 6  -2114737.112 5  24090413.643        3902.528
 -17041835.139 7 -12945044.090 8  22554176.589       -1371.485
 93  5 10  7  2  0.0030000  0  8 31 23  1 21 17 26  3 28             0.003730470
  -3416475.468 5  -2655731.825 5  25454368.435       -2836.996
 -12033020.025 8  -9369484.909 9  21896010.968        1379.453
  -6553508.038 6  -5110957.754 5  24237933.708       -3217.769
   -834917.882 7   -679926.557 9  21982161.726        -798.129
   6926088.981 7  -7190689.387 7  22587341.001        2023.669
   6749007.253 5   5243470.245 5  25807239.071        3465.920
   7385050.958 6  -2023373.136 5  24112725.676        3913.796
 -17082722.319 7 -12976904.223 8  22546396.392       -1354.470
 93  5 10  7  2 30.0030000  0  8 31 23  1 21 17 26  3 28             0.003736500
  -3501459.399 5  -2721953.042 5  25438196.692       -2828.638
 -11991507.924 8  -9337137.825 9  21903910.319        1387.814
  -6649940.586 6  -5186099.974 5  24219582.932       -3211.239
   -858714.432 7   -698469.306 9  21977633.283        -788.370
   6986918.263 7  -7143289.958 7  22598916.405        2031.526
   6853071.822 5   5324559.547 5  25827042.591        3471.753
   7502641.275 6  -1931744.349 5  24135102.507        3925.215
 -17123097.310 7 -13008365.243 8  22538713.204       -1337.202
 93  5 10  7  3  0.0030000  0  8 31 23  1 21 17 26  3 28             0.003742520
  -3586186.825 5  -2787974.413 5  25422074.023       -2820.001
 -11949754.557 8  -9304602.745 9  21911855.919        1395.544
  -6746182.236 6  -5261093.429 5  24201268.339       -3205.051
   -882221.985 7   -716786.883 9  21973159.667        -778.999
   7047985.075 7  -7095705.438 7  22610536.950        2039.483
   6957325.825 5   5405796.396 5  25846881.558        3478.655
   7620573.277 6  -1839849.306 5  24157543.990        3936.591
 -17162944.692 7 -13039415.162 8  22531130.323       -1319.280
 93  5 10  7  3 30.0030000  0  8 31 23  1 21 17 26  3 28             0.003748550
  -3670662.229 5  -2853799.438 5  25405999.651       -2811.515
 -11907781.164 8  -9271896.220 9  21919843.088        1402.814
  -6842254.842 6  -5335955.175 5  24182986.006       -3199.771
   -905453.181 7   -734889.100 9  21968739.049        -769.448
   7109289.491 7  -7047935.786 7  22622202.717        2047.650
   7061788.017 5   5487195.528 5  25866760.354        3485.893
   7738837.990 6  -1747695.033 5  24180049.719        3947.656
 -17202247.308 7 -13070040.574 8  22523651.441       -1300.706
 93  5 10  7  4  0.0030000  0  8 31 23  1 21 17 26  3 28             0.003754570
  -3754878.226 5  -2919422.264 5  25389973.781       -2802.803
 -11865579.296 8  -9239011.666 9  21927873.790        1410.494
  -6938182.242 6  -5410703.757 5  24164731.597       -3195.471
   -928381.027 7   -752754.948 9  21964376.159        -759.167
   7170844.462 7  -6999970.884 7  22633916.056        2055.888
   7166487.380 5   5568779.440 5  25886683.929        3494.181
   7857437.509 6  -1655279.837 5  24202618.204        3958.673
 -17240985.736 7 -13100226.367 8  22516280.034       -1281.872
 93  5 10  7  4 30.0030000  0  8 31 23  1 21 17 26  3 28             0.003760590
  -3838833.288 5  -2984841.812 5  25373998.363       -2794.270
 -11823146.106 8  -9205946.868 9  21935948.668        1418.157
  -7033969.162 6  -5485342.901 5  24146503.405       -3190.447
   -950997.189 7   -770377.941 9  21960072.520        -748.737
   7232653.201 7  -6951808.269 7  22645677.754        2064.597
   7271442.659 5   5650562.731 5  25906656.086        3502.508
   7976367.860 6  -1562606.865 5  24225250.454        3969.631
 -17279149.637 7 -13129964.473 8  22509017.850       -1262.503
 93  5 10  7  5  0.0030000  0  8 31 23  1 21 17 26  3 28             0.003766620
  -3922528.826 5  -3050059.097 5  25358072.588       -2785.289
 -11780480.004 8  -9172700.561 9  21944067.668        1426.629
  -7129604.253 6  -5559863.703 5  24128304.854       -3184.789
   -973301.747 7   -787758.106 9  21955827.976        -738.166
   7294733.171 7  -6903434.280 7  22657491.215        2074.321
   7376643.357 5   5732537.274 5  25926675.174        3510.917
   8095623.406 6  -1469680.558 5  24247944.138        3980.830
 -17316733.247 7 -13159250.406 8  22501866.023       -1242.867
 93  5 10  7  5 30.0030000  0  8 31 23  1 21 17 26  3 28             0.003772640
  -4005954.887 6  -3115066.419 5  25342197.093       -2776.616
 -11737555.456 8  -9139252.882 9  21952235.984        1434.939
  -7225057.035 6  -5634242.491 5  24110140.469       -3178.792
   -995293.172 7   -804894.274 9  21951642.944        -728.054
   7357106.797 7  -6854831.475 7  22669360.707        2083.810
   7482082.676 5   5814697.780 5  25946739.623        3518.150
   8215208.901 6  -1376497.088 5  24270700.354        3991.209
 -17353731.233 7 -13188080.012 8  22494825.247       -1223.800
 93  5 10  7  6  0.0030000  0  8 31 23  1 21 17 26  3 28             0.003778660
  -4089113.209 6  -3179865.119 5  25326372.136       -2767.604
 -11694368.899 8  -9105601.032 9  21960454.183        1443.661
  -7320311.441 6  -5708466.684 5  24092014.306       -3171.692
  -1016980.922 7   -821793.818 9  21947516.060        -718.207
   7419767.128 7  -6806005.274 7  22681284.966        2093.256
   7587739.133 5   5897027.443 5  25966845.356        3525.069
   8335117.311 6  -1283061.999 5  24293517.829        4002.028
 -17390148.536 7 -13216457.133 8  22487894.934       -1204.395
 93  5 10  7  6 30.0030000  0  8 31 23  1 21 17 26  3 28             0.003784680
  -4172003.982 6  -3244455.346 5  25310597.997       -2758.466
 -11650936.502 8  -9071757.614 9  21968719.001        1451.821
  -7415346.717 6  -5782520.128 6  24073929.694       -3164.103
  -1038389.403 7   -838475.731 9  21943442.082        -709.025
   7482712.964 7  -6756956.574 7  22693263.011        2103.170
   7693584.514 5   5979504.311 5  25986987.824        3530.976
   8455343.075 6  -1189379.580 5  24316395.791        4012.726
 -17425992.368 7 -13244387.394 8  22481073.855       -1185.360
 93  5 10  7  7  0.0030000  0  8 31 23  1 21 17 26  3 28             0.003790700
  -4254623.110 6  -3308833.884 5  25294876.759       -2749.402
 -11607264.848 8  -9037727.775 9  21977029.520        1459.647
  -7510160.543 6  -5856400.982 6  24055886.628       -3156.930
  -1059523.413 7   -854943.792 9  21939420.425        -699.935
   7545953.601 7  -6707678.175 7  22705297.369        2112.717
   7799599.394 5   6062113.180 5  26007161.701        3536.762
   8575885.774 6  -1095450.260 5  24339334.131        4023.209
 -17461279.170 7 -13271883.596 8  22474359.222       -1167.125
 93  5 10  7  7 30.0030000  0  8 31 23  1 21 17 26  3 28             0.003796710
  -4336973.408 6  -3373002.965 5  25279206.421       -2740.176
 -11563364.645 8  -9003519.824 9  21985383.545        1467.325
  -7604757.723 6  -5930113.035 6  24037885.244       -3149.284
  -1080386.796 7   -871200.988 9  21935450.134        -690.404
   7609473.685 7  -6658182.023 7  22717384.852        2122.304
   7905780.322 5   6144851.483 5  26027366.806        3542.417
   8696737.175 6  -1001280.374 5  24362331.510        4033.714
 -17496021.135 7 -13298955.272 8  22467748.250       -1148.607
 93  5 10  7  8  0.0030000  0  8 31 23  1 21 17 26  3 28             0.003802720
  -4419041.911 6  -3436952.447 5  25263589.491       -2730.866
 -11519229.408 8  -8969128.752 9  21993782.212        1475.109
  -7699129.599 6  -6003649.543 6  24019927.530       -3142.001
  -1100958.054 7   -887230.536 9  21931535.383        -680.696
   7673274.942 7  -6608466.762 7  22729525.877        2131.323
   8012131.022 5   6227722.070 5  26047604.890        3547.871
   8817905.206 6   -906863.788 5  24385389.127        4044.103
 -17530207.108 7 -13325593.680 8  22461242.875       -1130.384
 93  5 10  7  8 30.0030000  0  7 31 23  1 21 17  3 28                0.003808690
  -4500837.345 6  -3500689.143 5  25248023.754       -2721.779
 -11474870.896 8  -8934563.687 9  22002223.447        1482.464
  -7793295.991 6  -6077025.939 6  24002008.537       -3135.393
  -1121239.407 7   -903034.180 9  21927676.106        -671.073
   7737345.465 7  -6558541.696 7  22741717.946        2140.252
   8939376.022 6   -812211.247 5  24408503.274        4054.046
 -17563857.130 7 -13351814.504 8  22454839.518       -1112.625
 93  5 10  7  9  0.0030000  0  7 31 23  1 21 17  3 28                0.003814690
  -4582348.530 6  -3564204.382 5  25232512.067       -2712.201
 -11430281.566 8  -8899818.778 9  22010708.463        1490.117
  -7887248.956 6  -6150236.016 6  23984130.352       -3128.072
  -1141214.487 7   -918599.182 9  21923874.835        -660.756
   7801685.198 7  -6508406.858 7  22753961.349        2148.948
   9061155.477 6   -717318.228 5  24431677.872        4064.393
 -17596955.922 7 -13377605.768 8  22448540.929       -1093.854
 93  5 10  7  9 30.0030000  0  7 31 23  1 21 17  3 28                0.003820690
  -4663573.883 6  -3627496.826 5  25217055.295       -2702.447
 -11385466.268 8  -8864897.757 9  22019236.539        1497.812
  -7980979.812 6  -6223273.024 6  23966293.901       -3120.455
  -1160891.032 7   -933931.550 9  21920130.470        -650.675
   7866276.516 7  -6458075.986 7  22766252.830        2157.445
   9183240.435 6   -622187.140 5  24454909.945        4074.655
 -17629483.840 7 -13402952.200 8  22442350.975       -1074.348
 93  5 10  7 10  0.0030000  0  7 31 23  1 21 17  3 28                0.003826680
  -4744509.140 6  -3690563.274 5  25201654.079       -2693.032
 -11340423.484 8  -8829799.505 9  22027807.896        1505.090
  -8074496.001 6  -6296142.752 6  23948498.122       -3113.875
  -1180263.069 7   -949026.645 9  21916444.272        -640.622
   7931110.718 7  -6407555.848 7  22778590.172        2165.133
   9305629.545 6   -526819.021 5  24478199.716        4084.543
 -17661434.100 7 -13427848.515 8  22436271.065       -1055.479
 93  5 10  7 10 30.0030000  0  7 31 23  1 21 17  3 28                0.003832660
  -4825155.605 6  -3753404.675 5  25186306.872       -2683.258
 -11295176.329 8  -8794542.011 9  22036418.025        1511.522
  -8167806.810 6  -6368852.453 6  23930741.753       -3106.723
  -1199336.070 7   -963888.723 9  21912814.694        -630.697
   7996184.848 7  -6356848.767 7  22790973.686        2173.387
   9428316.749 6   -431218.700 5  24501546.753        4094.562
 -17692814.716 7 -13452300.953 8  22430299.658       -1036.273
 93  5 10  7 11  0.0030000  0  7 31 23  1 21 17  3 28                0.003838630
  -4905509.488 6  -3816018.030 5  25171015.888       -2673.649
 -11249741.493 8  -8759138.235 9  22045063.939        1517.593
  -8260903.406 6  -6441395.225 6  23913025.769       -3099.784
  -1218106.944 8   -978515.382 9  21909242.915        -620.801
   8061504.281 7  -6305950.531 7  22803403.654        2181.419
   9551300.274 6   -335387.410 5  24524949.410        4104.243
 -17723612.911 7 -13476299.557 8  22424439.123       -1016.925
 93  5 10  7 11 30.0030000  0  7 31 23  1 21 17  3 28                0.003844600
  -4985567.458 6  -3878400.856 5  25155781.446       -2663.626
 -11204112.293 8  -8723583.031 9  22053746.927        1524.290
  -8353789.103 6  -6513773.676 6  23895349.873       -3092.661
  -1236577.427 8   -992907.978 9  21905727.938        -610.548
   8127074.730 7  -6254856.723 7  22815880.946        2189.974
   9674578.406 6   -239326.565 5  24548408.130        4114.067
 -17753830.889 7 -13499846.033 8  22418689.043        -997.765
 93  5 10  7 12  0.0030000  0  7 31 23  1 21 17  3 28                0.003850570
  -5065325.836 6  -3940550.262 5  25140603.245       -2653.716
 -11158287.759 8  -8687875.599 9  22062467.091        1530.591
  -8446464.124 6  -6585987.944 6  23877714.013       -3085.767
  -1254738.390 8  -1007059.354 9  21902271.933        -600.484
   8192908.574 7  -6203557.609 7  22828408.881        2198.907
   9798149.886 6   -143037.184 5  24571923.968        4123.662
 -17783479.482 7 -13522948.829 8  22413047.270        -978.855
 93  5 10  7 12 30.0030000  0  7 31 23  1 21 17  3 28                0.003856530
  -5144782.666 6  -4002464.678 5  25125482.605       -2643.455
 -11112263.978 8  -8652012.943 9  22071224.987        1537.844
  -8538918.089 6  -6658029.996 6  23860120.113       -3077.883
  -1272610.894 8  -1020985.998 9  21898871.036        -591.069
   8259013.492 7  -6152047.315 7  22840988.074        2207.995
   9922011.759 6    -46521.508 5  24595494.373        4133.496
 -17812551.996 7 -13545602.756 8  22407514.460        -959.265
 93  5 10  7 13  0.0030000  0  7 31 23  1 21 17  3 28                0.003862500
  -5223934.566 6  -4064141.458 5  25110421.185       -2633.434
 -11066007.039 8  -8615968.567 9  22080027.525        1546.008
  -8631133.509 6  -6729886.122 6  23842572.298       -3069.774
  -1290208.879 8  -1034698.696 9  21895521.855        -582.436
   8325388.094 7  -6100326.872 7  22853618.721        2216.853
  10046161.562 6     50218.580 5  24619119.080        4142.823
 -17841042.352 7 -13567803.033 8  22402092.654        -940.281
 93  5 10  7 13 30.0030000  0  7 31 23  1 21 17  3 28                0.003868470
  -5302786.036 6  -4125584.146 5  25095416.793       -2623.088
 -11019496.931 8  -8579726.953 9  22088878.109        1554.743
  -8723101.423 6  -6801549.428 6  23825072.200       -3061.189
  -1307547.500 7  -1048209.315 9  21892222.700        -573.206
   8392029.034 7  -6048398.879 7  22866300.080        2226.111
  10170590.046 6    147175.785 5  24642796.956        4152.334
 -17868968.389 7 -13589563.589 8  22396778.693        -921.224
 93  5 10  7 14  0.0030000  0  7 31 23  1 21 17  3 28                0.003874440
  -5381328.935 6  -4186786.405 5  25080470.940       -2612.841
 -10972740.726 8  -8543293.564 9  22097775.538        1562.668
  -8814809.158 6  -6873009.969 6  23807620.441       -3052.412
  -1324619.269 8  -1061512.008 9  21888974.119        -564.728
   8458943.955 7  -5996257.417 7  22879033.357        2235.235
  10295300.259 6    244352.496 5  24666528.432        4161.650
 -17896318.578 7 -13610875.430 8  22391574.256        -901.799
 93  5 10  7 14 30.0030000  0  7 31 23  1 21 17  3 28                0.003880420
  -5459558.670 6  -4247744.623 5  25065584.503       -2602.509
 -10925737.964 8  -8506668.047 9  22106719.867        1570.683
  -8906242.962 6  -6944257.073 6  23790221.331       -3043.271
  -1341432.668 8  -1074613.343 9  21885774.644        -556.034
   8526140.143 7  -5943896.770 7  22891820.274        2244.532
  10420291.572 6    341748.317 5  24690313.481        4170.763
 -17923081.992 7 -13631730.034 8  22386481.100        -882.500
 93  5 10  7 15  0.0030000  0  7 31 23  1 21 17  3 28                0.003886400
  -5537476.236 6  -4308459.603 5  25050756.803       -2591.877
 -10878506.083 8  -8469864.002 9  22115707.875        1578.131
  -8997408.212 6  -7015294.906 6  23772873.562       -3034.442
  -1357968.721 8  -1087498.578 9  21882627.961        -546.201
   8593624.670 7  -5891311.450 7  22904662.333        2254.463
  10545557.515 6    439358.029 5  24714150.939        4180.151
 -17949268.491 7 -13652135.115 8  22381498.531        -862.978
 93  5 10  7 15 30.0030000  0  7 31 23  1 21 17  3 28                0.003892380
  -5615078.512 6  -4368928.898 5  25035989.756       -2581.569
 -10831071.508 8  -8432902.004 9  22124734.406        1584.095
  -9088325.040 6  -7086139.180 6  23755572.681       -3026.778
  -1374209.023 7  -1100153.376 9  21879537.479        -536.361
   8661393.188 7  -5838504.841 7  22917558.237        2263.394
  10671096.417 6    537180.498 5  24738041.209        4188.866
 -17974861.730 7 -13672077.909 8  22376627.832        -843.093
 93  5 10  7 16  0.0030000  0  7 31 23  1 21 17  3 28                0.003898350
  -5692360.123 6  -4429148.377 5  25021284.039       -2570.499
 -10783451.637 8  -8395795.624 9  22133796.291        1590.727
  -9179006.875 6  -7156800.324 6  23738316.056       -3018.627
  -1390149.468 8  -1112574.490 9  21876504.492        -526.242
   8729438.609 7  -5785482.461 7  22930507.001        2272.967
  10796908.233 6    635215.608 5  24761981.848        4198.238
 -17999841.782 7 -13691542.886 8  22371874.174        -822.190
 93  5 10  7 16 30.0030000  0  7 31 23  1 21 17  3 28                0.003904310
  -5769315.549 6  -4489113.589 5  25006639.355       -2559.965
 -10735628.392 8  -8358530.769 9  22142896.710        1597.270
  -9269447.323 6  -7227273.389 6  23721106.517       -3010.990
  -1405774.462 8  -1124749.809 9  21873530.619        -515.560
   8797764.260 7  -5732241.725 7  22943509.070        2281.696
  10922993.014 6    733463.444 5  24785974.276        4206.866
 -18024203.096 7 -13710525.735 8  22367238.504        -802.071
 93  5 10  7 17  0.0030000  0  7 31 23  1 21 17  3 28                0.003910260
  -5845947.113 6  -4548826.479 5  24992056.647       -2548.848
 -10687605.125 8  -8321110.050 9  22152035.165        1604.145
  -9359657.868 6  -7297567.276 6  23703940.633       -3003.177
  -1421077.242 8  -1136674.056 9  21870618.987        -504.893
   8866348.088 7  -5678799.795 7  22956560.323        2290.247
  11049343.268 6    831918.122 5  24810017.581        4215.936
 -18047955.748 7 -13729034.310 8  22362718.602        -781.548
 93  5 10  7 17 30.0030000  0  7 31 23  1 21 17  3 28                0.003916200
  -5922254.055 6  -4608286.448 5  24977537.363       -2538.070
 -10639383.406 8  -8283534.707 9  22161211.533        1610.748
  -9449635.991 6  -7367680.096 6  23686818.070       -2995.165
  -1436079.660 8  -1148364.250 9  21867763.992        -495.225
   8935168.587 7  -5625173.461 7  22969656.656        2298.069
  11175954.995 6    930576.556 5  24834110.950        4224.668
 -18071105.481 7 -13747073.065 8  22358313.402        -761.764
 93  5 10  7 18  0.0030000  0  7 31 23  1 21 17  3 28                0.003922140
  -5998231.042 6  -4667489.291 5  24963079.760       -2527.028
 -10590952.386 8  -8245796.249 9  22170427.613        1618.010
  -9539361.390 6  -7437595.952 6  23669743.606       -2986.427
  -1450793.333 7  -1159829.460 9  21864963.991        -485.543
   9004239.059 7  -5571352.336 7  22982800.217        2306.563
  11302828.055 6   1029438.628 5  24858254.681        4233.363
 -18093669.299 7 -13764655.255 8  22354019.515        -742.465
 93  5 10  7 18 30.0030000  0  7 31 23  1 21 17  3 28                0.003928060
  -6073872.212 6  -4726430.428 5  24948684.552       -2515.808
 -10542302.151 8  -8207886.983 9  22179685.424        1625.192
  -9628820.842 6  -7507304.588 6  23652719.592       -2977.734
  -1465213.622 8  -1171066.031 9  21862219.902        -476.078
   9073557.681 7  -5517337.852 7  22995990.988        2314.570
  11429963.415 6   1128505.068 5  24882447.470        4241.997
 -18115653.024 7 -13781785.444 8  22349836.489        -723.332
 93  5 10  7 19  0.0030000  0  7 31 23  1 21 17  3 28                0.003933990
  -6149180.487 6  -4785112.219 5  24934353.722       -2504.515
 -10493445.645 8  -8169816.993 9  22188982.537        1632.134
  -9718023.613 6  -7576813.222 6  23635744.015       -2968.950
  -1479371.561 8  -1182098.205 9  21859525.837        -467.448
   9143112.291 7  -5463139.476 7  23009226.842        2322.746
  11557352.345 6   1227769.086 5  24906688.966        4250.680
 -18137064.834 7 -13798469.982 8  22345761.831        -703.750
 93  5 10  7 19 30.0030000  0  7 31 23  1 21 17  3 28                0.003939930
  -6224144.385 6  -4843525.640 5  24920088.794       -2493.137
 -10444376.288 8  -8131581.135 9  22198320.203        1639.206
  -9806962.234 6  -7646116.015 6  23618819.499       -2960.121
  -1493257.633 7  -1192918.528 9  21856883.254        -458.153
   9212920.831 7  -5408743.241 7  23022510.798        2331.359
  11685001.601 6   1327235.981 5  24930980.312        4259.099
 -18157878.403 7 -13814688.350 9  22341801.014        -683.740
 93  5 10  7 20  0.0030000  0  7 31 23  1 21 17  3 28                0.003945860
  -6298767.697 6  -4901673.690 5  24905888.242       -2481.502
 -10395091.837 8  -8093177.685 9  22207698.791        1646.516
  -9895635.407 6  -7715211.974 6  23601946.190       -2951.039
  -1506857.444 8  -1203515.771 9  21854295.635        -448.183
   9282991.905 7  -5354142.413 7  23035845.066        2340.151
  11812901.788 6   1426898.401 5  24955318.913        4267.548
 -18178090.026 7 -13830437.670 9  22337954.775        -663.411
 93  5 10  7 20 30.0030000  0  7 31 23  1 21 17  3 28                0.003951790
  -6373044.279 6  -4959551.529 5  24891753.535       -2470.147
 -10345593.205 8  -8054607.332 9  22217117.989        1653.304
  -9984035.422 6  -7784095.071 6  23585124.589       -2942.255
  -1520159.454 7  -1213880.973 9  21851764.158        -438.682
   9353325.840 7  -5299336.774 7  23049229.160        2348.842
  11941053.988 6   1526757.199 5  24979705.551        4275.716
 -18197688.891 7 -13845709.515 9  22334225.486        -643.281
 93  5 10  7 21  0.0030000  0  7 31 23  1 21 17  3 28                0.003957710
  -6446973.327 6  -5017158.603 5  24877685.536       -2458.612
 -10295895.064 8  -8015881.522 9  22226575.311        1659.683
 -10072162.510 6  -7852765.503 6  23568354.886       -2933.077
  -1533166.559 8  -1224016.399 9  21849288.963        -428.526
   9423935.405 7  -5244316.374 6  23062665.700        2358.313
  12069454.214 6   1626809.274 5  25004138.454        4283.867
 -18216682.828 7 -13860509.993 9  22330611.370        -623.183
 93  5 10  7 21 30.0030000  0  7 31 23  1 21 17  3 28                0.003963630
  -6520553.683 6  -5074493.911 5  24863683.242       -2446.819
 -10246003.685 8  -7977005.126 9  22236069.170        1666.359
 -10160008.102 6  -7921216.587 6  23551637.553       -2923.248
  -1545856.375 8  -1233904.551 9  21846874.102        -417.741
   9494830.707 7  -5189073.279 6  23076156.822        2367.960
  12198097.859 5   1727051.035 5  25028619.279        4291.973
 -18235082.658 7 -13874847.531 9  22327109.814        -603.592
 93  5 10  7 22  0.0030000  0  7 31 23  1 21 17  3 28                0.003969550
  -6593781.627 6  -5131554.638 5  24849747.669       -2434.852
 -10195915.094 8  -7937975.062 9  22245600.681        1672.902
 -10247552.539 6  -7989432.978 6  23534978.103       -2913.071
  -1558235.350 8  -1243550.512 9  21844518.444        -407.503
   9566016.829 7  -5133603.611 6  23089703.280        2377.830
  12326983.709 5   1827481.448 5  25053145.808        4300.220
 -18252899.077 7 -13888730.456 9  22323719.671        -583.975
 93  5 10  7 22 30.0030000  0  7 31 23  1 21 17  3 28                0.003975470
  -6666651.559 6  -5188336.413 5  24835881.798       -2423.176
 -10145641.955 8  -7898801.194 9  22255167.528        1678.670
 -10334801.836 6  -8057419.409 6  23518375.109       -2903.628
  -1570318.056 8  -1252965.614 9  21842219.077        -398.029
   9637491.269 7  -5077909.257 6  23103304.344        2387.074
  12456112.049 5   1928100.921 5  25077718.705        4307.989
 -18270125.640 7 -13902153.760 9  22320441.361        -564.519
 93  5 10  7 23  0.0030000  0  7 31 23  1 21 17  3 28                0.003981390
  -6739168.497 6  -5244843.128 5  24822082.100       -2411.105
 -10095194.180 8  -7859491.253 9  22264767.433        1684.759
 -10421767.042 6  -8125184.456 6  23501826.434       -2893.830
  -1582115.477 7  -1262158.401 9  21839973.960        -388.405
   9709241.796 7  -5021999.768 6  23116957.754        2396.398
  12585472.607 5   2028901.302 5  25102334.893        4315.971
 -18286760.041 7 -13915115.637 9  22317276.091        -544.160
 93  5 10  7 23 30.0030000  0  7 31 23  1 21 17  3 28                0.003987320
  -6811321.238 6  -5301066.008 5  24808351.924       -2399.053
 -10044550.101 8  -7820028.349 9  22274404.739        1691.369
 -10508436.750 6  -8192719.291 6  23485334.181       -2884.190
  -1593628.568 8  -1271129.654 9  21837782.877        -379.367
   9781267.880 7  -4965875.575 6  23130663.848        2405.237
  12715070.777 5   2129886.758 5  25126997.503        4323.664
 -18302771.215 7 -13927591.885 9  22314229.380        -523.183
 93  5 10  7 24  0.0030000  0  7 31 23  1 21 17  3 28                0.003993240
  -6883114.861 6  -5357009.090 5  24794690.359       -2387.186
  -9993723.234 8  -7780423.020 9  22284076.743        1697.098
 -10594827.519 6  -8260036.728 6  23468894.222       -2875.348
  -1604890.056 8  -1279904.828 9  21835640.012        -371.370
   9853550.921 7  -4909551.134 6  23144418.792        2413.605
  12844897.050 5   2231050.013 5  25151702.881        4331.081
 -18318151.751 7 -13939576.720 9  22311302.567        -502.157
 93  5 10  7 24 30.0030000  0  7 31 23  1 21 17  3 28                0.003999180
  -6954543.088 6  -5412667.451 5  24781098.652       -2374.702
  -9942714.182 8  -7740675.717 9  22293783.444        1703.708
 -10680951.822 6  -8327146.555 6  23452505.259       -2865.941
  -1615902.910 8  -1288486.285 9  21833544.432        -362.766
   9926088.190 7  -4853028.605 6  23158222.527        2422.234
  12974952.253 5   2332391.643 5  25176451.138        4338.971
 -18332896.792 7 -13951066.372 9  22308496.479        -480.883
 93  5 10  7 25  0.0040000  0  7 31 23  1 21 17  3 28                0.004005110
  -7025602.068 6  -5468038.046 5  24767576.902       -2362.437
  -9891500.105 8  -7700768.662 9  22303529.267        1710.295
 -10766785.712 6  -8394030.097 6  23436171.535       -2856.288
  -1626656.610 8  -1296865.805 9  21831498.148        -354.232
   9998891.408 7  -4796298.845 6  23172076.586        2431.077
  13105241.686 5   2433915.808 5  25201244.167        4346.324
 -18347004.405 7 -13962059.317 9  22305811.638        -459.725
 93  5 10  7 25 30.0040000  0  7 31 23  1 21 17  3 28                0.004011050
  -7096294.002 6  -5523122.673 5  24754124.389       -2350.371
  -9840095.957 8  -7660713.487 9  22313311.065        1716.509
 -10852332.055 7  -8460689.566 6  23419893.014       -2846.799
  -1637152.451 8  -1305044.377 9  21829500.881        -345.488
  10071953.897 7  -4739367.055 6  23185980.031        2439.657
  13235745.672 5   2535607.162 5  25226078.226        4353.611
 -18360488.178 7 -13972566.174 9  22303245.945        -439.241
 93  5 10  7 26  0.0040000  0  7 31 23  1 21 17  3 28                0.004016990
  -7166613.946 6  -5577917.405 5  24740742.770       -2337.894
  -9788505.570 8  -7620513.213 9  22323128.490        1722.670
 -10937585.641 6  -8527120.895 6  23403669.281       -2836.783
  -1647376.478 8  -1313011.153 9  21827555.319        -336.322
  10145281.496 7  -4682228.664 6  23199933.949        2448.583
  13366469.041 5   2637469.461 5  25250953.947        4360.873
 -18373359.661 7 -13982595.905 9  22300796.711        -419.043
 93  5 10  7 26 30.0040000  0  7 31 23  1 21 17  3 28                0.004022920
  -7236561.995 6  -5632422.376 5  24727432.644       -2325.288
  -9736725.207 8  -7580164.876 9  22332982.008        1729.139
 -11022522.044 6  -8593305.084 6  23387506.115       -2825.586
  -1657314.688 8  -1320755.220 9  21825664.390        -326.234
  10218879.510 7  -4624879.586 6  23213939.236        2457.831
  13497407.164 5   2739499.062 5  25275870.418        4368.037
 -18385622.659 7 -13992151.498 9  22298462.845        -398.532
 93  5 10  7 27  0.0040000  0  7 31 23  1 21 17  3 28                0.004028840
  -7306134.838 6  -5686634.963 5  24714192.901       -2312.883
  -9684764.861 8  -7539676.306 9  22342869.633        1734.645
 -11107129.978 7  -8659233.328 6  23371405.974       -2815.166
  -1666955.604 8  -1328267.613 9  21823829.786        -316.528
  10292747.014 7  -4567320.480 6  23227995.452        2466.518
  13628557.344 5   2841693.911 5  25300827.101        4374.988
 -18397271.534 7 -14001228.551 9  22296246.309        -378.211
 93  5 10  7 27 30.0040000  0  7 31 23  1 21 17  3 28                0.004034760
  -7375326.645 6  -5740550.645 5  24701025.786       -2300.159
  -9632628.961 8  -7499050.948 9  22352790.806        1740.888
 -11191420.177 6  -8724913.979 6  23355365.977       -2804.209
  -1676299.424 8  -1335548.523 9  21822051.519        -306.765
  10366877.319 7  -4509556.630 6  23242101.798        2475.180
  13759921.080 5   2944055.196 5  25325824.159        4382.049
 -18408305.878 7 -14009826.747 9  22294146.644        -357.649
 93  5 10  7 28  0.0040000  0  7 31 23  1 21 17  3 28                0.004040680
  -7444137.584 6  -5794169.558 5  24687931.869       -2287.624
  -9580310.023 8  -7458282.953 9  22362746.623        1746.806
 -11275370.086 7  -8790329.482 6  23339390.747       -2792.942
  -1685359.991 8  -1342608.704 9  21820327.533        -297.661
  10441261.757 6  -4451594.752 6  23256256.620        2483.526
  13891492.654 5   3046578.404 5  25350861.892        4388.722
 -18418724.054 7 -14017944.821 9  22292163.937        -337.220
 93  5 10  7 28 30.0040000  0  7 31 23  1 21 17  3 28                0.004046590
  -7512568.622 6  -5847492.458 5  24674910.024       -2274.555
  -9527804.613 8  -7417369.655 9  22372738.197        1753.475
 -11358989.433 7  -8855487.376 6  23323478.702       -2782.024
  -1694141.049 8  -1349451.097 9  21818656.697        -287.875
  10515898.986 6  -4393435.899 6  23270459.424        2492.135
  14023266.521 5   3149259.262 5  25375938.226        4395.830
 -18428519.885 7 -14025577.943 9  22290299.497        -316.009
 93  5 10  7 29  0.0040000  0  7 31 23  1 21 17  3 28                0.004052490
  -7580610.492 6  -5900512.079 5  24661962.286       -2261.696
  -9475098.001 8  -7376299.584 9  22382768.052        1760.261
 -11442298.087 7  -8920403.176 6  23307625.686       -2772.034
  -1702640.587 8  -1356074.128 9  21817038.879        -278.931
  10590793.776 6  -4335076.324 6  23284711.602        2500.794
  14155246.122 5   3252100.415 5  25401053.332        4402.488
 -18437681.707 7 -14032717.048 9  22288556.426        -294.970
 93  5 10  7 29 30.0040000  0  7 31 23  1 21 17  3 28                0.004058390
  -7648269.348 6  -5953233.230 5  24649087.390       -2248.676
  -9422187.653 8  -7335070.756 9  22392836.572        1767.191
 -11525307.125 7  -8985085.547 6  23291829.722       -2761.743
  -1710877.223 8  -1362492.282 9  21815471.823        -270.012
  10665952.118 7  -4276511.414 6  23299013.858        2509.878
  14287420.147 5   3355093.048 5  25426205.626        4409.078
 -18446218.478 7 -14039369.081 9  22286931.419        -273.880
 93  5 10  7 30  0.0040000  0  7 31 23  1 21 17  3 28                0.004064280
  -7715541.952 6  -6005653.423 5  24636285.426       -2236.153
  -9369085.063 8  -7293692.119 9  22402941.937        1772.822
 -11608018.658 7  -9049536.049 7  23276090.269       -2752.682
  -1718847.252 8  -1368702.706 9  21813955.392        -261.292
  10741382.021 7  -4217734.876 6  23313367.563        2518.678
  14419787.096 5   3458236.038 5  25451394.819        4415.042
 -18454125.153 7 -14045530.134 9  22285427.189        -253.211
 93  5 10  7 30 30.0040000  0  7 31 23  1 21 17  3 28                0.004070180
  -7782426.145 6  -6057771.007 5  24623557.307       -2223.083
  -9315809.224 8  -7252178.495 9  22413079.748        1778.550
 -11690454.277 7  -9113771.557 7  23260403.240       -2743.249
  -1726542.764 8  -1374699.207 9  21812490.948        -252.087
  10817084.484 7  -4158745.966 6  23327773.457        2527.841
  14552343.416 5   3561526.566 5  25476619.553        4421.555
 -18461402.153 7 -14051200.541 9  22284042.617        -232.229
 93  5 10  7 31  0.0040000  0  7 31 23  1 21 17  3 28                0.004076070
  -7848915.923 6  -6109581.206 5  24610904.686       -2209.705
  -9262372.210 8  -7210539.281 9  22423248.638        1783.744
 -11772596.461 7  -9177778.416 7  23244771.919       -2732.832
  -1733964.677 8  -1380482.519 9  21811078.515        -242.696
  10893068.523 7  -4099537.635 6  23342232.687        2537.619
  14685089.954 5   3664965.324 5  25501880.024        4427.945
 -18468056.654 7 -14056385.880 9  22282776.496        -211.584
 93  5 10  7 31 30.0040000  0  7 31 23  1 21 17  3 28                0.004081970
  -7915007.387 6  -6161081.032 5  24598328.371       -2196.414
  -9208793.058 8  -7168789.289 9  22433444.149        1788.223
 -11854419.605 7  -9241536.666 7  23229201.709       -2722.014
  -1741099.635 8  -1386042.230 9  21809720.824        -232.939
  10969326.083 6  -4040116.161 6  23356744.022        2546.187
  14818026.012 5   3768551.791 5  25527176.772        4434.186
 -18474100.925 7 -14061095.721 9  22281626.050        -191.323
 93  5 10  7 32  0.0040000  0  7 31 23  1 21 17  3 28                0.004087860
  -7980702.674 6  -6212272.132 5  24585827.377       -2183.247
  -9155079.768 8  -7126934.810 9  22443665.392        1792.714
 -11935914.656 7  -9305039.288 7  23213693.266       -2710.887
  -1747945.708 8  -1391376.839 9  21808417.968        -223.496
  11045828.563 6  -3980503.867 6  23371302.137        2554.079
  14951143.538 5   3872279.604 5  25552507.948        4440.055
 -18479545.176 7 -14065337.988 9  22280590.048        -171.499
 93  5 10  7 32 30.0040000  0  7 31 23  1 21 17  3 28                0.004093740
  -8045998.466 6  -6263151.964 5  24573402.015       -2169.955
  -9101220.704 8  -7084966.719 9  22453914.719        1797.877
 -12017073.385 7  -9368279.833 7  23198249.006       -2699.707
  -1754507.198 8  -1396489.679 9  21807169.321        -214.143
  11122571.892 7  -3920703.865 6  23385905.972        2562.076
  15084441.188 5   3976147.817 5  25577873.614        4445.995
 -18484391.348 7 -14069114.238 9  22279668.016        -151.777
 93  5 10  7 33  0.0040000  0  7 31 23  1 21 17  3 28                0.004099620
  -8110889.610 6  -6313716.500 5  24561053.080       -2156.318
  -9047197.647 8  -7042870.873 9  22464194.822        1803.562
 -12097889.729 7  -9431253.597 7  23182870.454       -2688.321
  -1760784.417 8  -1401381.035 9  21805974.747        -204.482
  11199558.000 6  -3860714.726 6  23400556.134        2569.998
  15217919.333 5   4080156.654 5  25603274.383        4452.062
 -18488640.865 7 -14072425.576 9  22278859.197        -131.579
 93  5 10  7 33 30.0040000  0  7 31 23  1 21 17  3 28                0.004105490
  -8175374.657 6  -6363964.565 5  24548781.679       -2142.781
  -8992998.651 8  -7000637.883 9  22474508.551        1809.590
 -12178374.754 7  -9493969.155 7  23167554.564       -2677.405
  -1766780.489 8  -1406053.299 9  21804833.669        -195.429
  11276770.082 6  -3800549.476 6  23415248.701        2577.538
  15351573.187 5   4184302.375 5  25628707.692        4457.906
 -18492275.697 7 -14075257.905 9  22278167.605        -110.650
 93  5 10  7 34  0.0040000  0  7 31 23  1 21 17  3 28                0.004111360
  -8239454.455 6  -6413896.853 5  24536587.594       -2129.100
  -8938623.689 8  -6958267.799 9  22484855.798        1815.504
 -12258541.721 7  -9556436.901 7  23152299.156       -2666.987
  -1772515.632 8  -1410522.252 9  21803742.533        -186.770
  11354225.944 6  -3740194.258 6  23429987.768        2586.459
  15485397.571 5   4288581.038 5  25654174.263        4463.693
 -18495279.626 7 -14077598.645 9  22277595.701         -89.437
 93  5 10  7 34 30.0040000  0  7 31 23  1 21 17  3 28                0.004117230
  -8303120.241 6  -6463506.554 5  24524472.152       -2115.249
  -8884071.883 8  -6915759.933 9  22495236.724        1821.395
 -12338390.781 7  -9618656.930 7  23137104.318       -2656.241
  -1777982.661 8  -1414782.270 9  21802702.053        -177.619
  11431959.592 6  -3679622.615 6  23444779.904        2595.892
  15619396.250 5   4392995.441 5  25679674.101        4469.370
 -18497636.426 7 -14079435.117 9  22277147.460         -67.632
 93  5 10  7 35  0.0040000  0  7 31 23  1 21 17  3 28                0.004123100
  -8366373.950 6  -6512795.165 5  24512435.404       -2101.660
  -8829350.735 8  -6873120.071 9  22505649.822        1826.729
 -12417917.193 7  -9680625.529 7  23121970.672       -2645.519
  -1783175.466 8  -1418828.610 9  21801713.749        -168.683
  11509974.306 6  -3618831.942 6  23459625.978        2605.064
  15753562.001 5   4497540.100 5  25705204.887        4474.768
 -18499338.648 7 -14080761.534 9  22276823.784         -45.766
 93  5 10  7 35 30.0040000  0  7 31 23  1 21 17  3 28                0.004128960
  -8429215.576 6  -6561762.648 5  24500477.690       -2087.834
  -8774465.694 8  -6830352.537 9  22516093.933        1832.050
 -12497111.095 7  -9742335.034 7  23106900.485       -2634.044
  -1788096.929 8  -1422663.520 9  21800777.316        -159.477
  11588273.235 6  -3557819.806 6  23474526.043        2615.046
  15887888.902 5   4602210.244 5  25730765.970        4480.109
 -18500381.975 7 -14081574.536 9  22276625.215         -24.000
 93  5 10  7 36  0.0040000  0  7 31 23  1 21 17  3 28                0.004134820
  -8491642.832 6  -6610407.253 5  24488598.136       -2074.026
  -8719422.687 8  -6787461.916 9  22526568.039        1837.473
 -12575956.134 7  -9803772.720 7  23091897.592       -2622.303
  -1792740.316 8  -1426281.737 9  21799893.738        -150.066
  11666873.832 6  -3496572.610 6  23489483.061        2624.838
  16022374.919 5   4707004.415 5  25756357.780        4485.445
 -18500789.864 7 -14081892.389 9  22276547.438          -3.284
 93  5 10  7 36 30.0040000  0  7 31 23  1 21 17  3 28                0.004140670
  -8553652.713 6  -6658726.634 5  24476798.037       -2059.881
  -8664207.244 8  -6744436.906 9  22537075.318        1843.680
 -12654445.629 7  -9864933.331 7  23076961.682       -2610.233
  -1797098.292 8  -1429677.579 9  21799064.373        -140.415
  11745749.781 6  -3435110.829 6  23504492.798        2633.412
  16157017.719 5   4811920.827 5  25781979.298        4490.578
 -18500576.201 7 -14081725.907 9  22276588.118          17.456
 93  5 10  7 37  0.0040000  0  7 31 23  1 21 17  3 28                0.004146500
  -8615246.772 6  -6706722.016 5  24465077.021       -2045.932
  -8608808.971 8  -6701269.439 9  22547617.138        1849.941
 -12732576.956 7  -9925814.869 7  23062093.626       -2598.001
  -1801178.284 8  -1432856.805 9  21798287.988        -131.355
  11824866.657 6  -3373461.326 6  23519547.876        2641.386
  16291810.545 5   4916954.024 5  25807630.235        4495.809
 -18499756.021 7 -14081086.805 9  22276744.672          37.608
 93  5 10  7 37 30.0040000  0  7 31 23  1 21 17  3 28                0.004152340
  -8676411.740 6  -6754383.003 5  24453437.578       -2031.842
  -8553216.574 8  -6657950.703 9  22558196.096        1855.976
 -12810333.407 7  -9986404.294 7  23047296.517       -2585.764
  -1804981.157 8  -1435820.080 9  21797564.371        -122.276
  11904229.665 6  -3311620.044 6  23534650.082        2649.388
  16426761.941 5   5022110.862 5  25833311.142        4500.736
 -18498334.180 7 -14079978.902 9  22277015.362          56.988
 93  5 10  7 38  0.0040000  0  7 31 23  1 21 17  3 28                0.004158170
  -8737152.544 6  -6801713.496 5  24441879.208       -2017.691
  -8497439.239 8  -6614487.848 9  22568810.129        1862.347
 -12887713.330 7 -10046700.319 7  23032571.764       -2573.306
  -1808511.559 8  -1438571.058 9  21796892.476        -113.312
  11983823.461 6  -3249598.909 6  23549796.506        2656.607
  16561862.053 5   5127383.474 5  25859019.398        4505.532
 -18496330.161 7 -14078417.338 9  22277396.550          76.564
 93  5 10  7 38 30.0040000  0  7 31 23  1 21 17  3 28                0.004163980
  -8797470.159 6  -6848714.215 5  24430400.656       -2003.256
  -8441473.663 8  -6570878.337 9  22579459.965        1868.739
 -12964723.294 7 -10106708.058 7  23017917.407       -2560.515
  -1811769.944 8  -1441110.055 9  21796272.484        -103.718
  12063630.268 6  -3187411.789 6  23564983.490        2664.205
  16697104.544 5   5232767.137 5  25884754.519        4510.542
 -18493728.938 7 -14076390.421 9  22277891.487          97.052
 93  5 10  7 39  0.0040000  0  7 31 23  1 21 17  3 28                0.004169780
  -8857358.350 6  -6895380.324 5  24419004.414       -1989.200
  -8385332.875 8  -6527132.270 9  22590143.410        1873.768
 -13041351.683 7 -10166418.477 7  23003335.482       -2548.054
  -1814749.086 8  -1443431.457 9  21795705.666         -94.852
  12143677.624 6  -3125037.251 6  23580216.114        2672.398
  16832489.948 5   5338262.100 5  25910517.288        4514.992
 -18490515.237 7 -14073886.233 9  22278502.954         117.382
 93  5 10  7 39 30.0040000  0  7 31 23  1 21 17  3 28                0.004175580
  -8916811.746 6  -6941707.645 5  24407690.520       -1974.471
  -8329041.382 8  -6483268.784 9  22600855.363        1878.830
 -13117599.418 7 -10225832.280 7  22988825.677       -2535.334
  -1817449.107 8  -1445535.389 9  21795191.901         -85.278
  12223985.222 6  -3062459.914 6  23595497.909        2681.204
  16968019.749 5   5443869.597 5  25936308.538        4519.924
 -18486676.791 7 -14070895.262 9  22279233.038         138.438
 93  5 10  7 40  0.0040000  0  7 31 23  1 21 17  3 28                0.004181370
  -8975829.588 6  -6987695.542 5  24396459.551       -1959.930
  -8272608.077 8  -6439294.797 9  22611594.256        1883.349
 -13193479.568 7 -10284959.650 7  22974386.323       -2523.545
  -1819873.452 8  -1447424.472 9  21794730.702         -76.464
  12304544.140 6  -2999686.758 6  23610828.105        2689.449
  17103689.318 5   5549585.981 5  25962126.132        4524.465
 -18482197.104 7 -14067404.626 9  22280085.246         160.316
 93  5 10  7 40 30.0040000  0  7 31 23  1 21 17  3 28                0.004187170
  -9034409.193 6  -7033341.989 5  24385312.501       -1945.433
  -8216049.292 8  -6395223.019 9  22622357.099        1887.024
 -13269013.651 7 -10343817.356 7  22960012.864       -2512.124
  -1822043.952 8  -1449115.788 9  21794317.637         -68.438
  12385358.404 6  -2936714.587 6  23626206.498        2698.033
  17239495.863 5   5655409.109 5  25987970.277        4528.958
 -18477052.155 7 -14063395.569 9  22281064.459         182.474
 93  5 10  7 41  0.0040000  0  7 31 23  1 21 17  3 28                0.004192960
  -9092552.420 6  -7078648.396 5  24374248.130       -1930.811
  -8159387.625 8  -6351071.099 9  22633139.446        1890.323
 -13344206.962 7 -10402409.530 7  22945704.060       -2500.764
  -1823990.147 8  -1450632.313 9  21793947.334         -61.318
  12466427.785 6  -2873543.677 6  23641633.288        2706.512
  17375433.140 5   5761334.060 5  26013838.415        4533.388
 -18471250.290 7 -14058874.651 9  22282168.684         204.360
 93  5 10  7 41 30.0040000  0  6 31 23  1 21 17 28                   0.004198640
  -9150256.018 6  -7123612.222 5  24363268.021       -1916.160
  -8102621.468 8  -6306837.741 9  22643941.866        1894.290
 -13419060.888 7 -10460737.239 7  22931459.821       -2489.424
  -1825718.746 8  -1451979.279 9  21793618.362         -53.921
  12547744.879 6  -2810179.732 6  23657107.295        2714.556
 -18464785.476 7 -14053837.139 9  22283398.925         226.504
 93  5 10  7 42  0.0040000  0  6 31 23  1 21 17 28                   0.004204440
  -9207518.808 6  -7168232.552 5  24352371.074       -1901.324
  -8045724.331 8  -6262502.319 9  22654768.969        1898.905
 -13493564.378 7 -10518791.889 7  22917282.626       -2477.408
  -1827226.969 8  -1453154.527 9  21793331.391         -46.539
  12629308.598 6  -2746623.611 6  23672628.801        2723.168
 -18457655.762 7 -14048281.525 9  22284755.785         248.744
 93  5 10  7 42 30.0040000  0  6 31 23  1 21 17 28                   0.004210250
  -9264337.612 6  -7212506.971 5  24341558.978       -1886.586
  -7988684.327 8  -6218055.561 9  22665623.268        1903.889
 -13567704.888 7 -10576563.701 7  22903173.833       -2465.045
  -1828506.515 8  -1454151.583 9  21793087.998         -38.490
  12711133.934 6  -2682863.617 6  23688200.140        2731.903
 -18449873.355 7 -14042217.328 9  22286236.860         269.945
 93  5 10  7 43  0.0040000  0  6 31 23  1 21 17 28                   0.004216070
  -9320708.221 6  -7256432.086 5  24330832.217       -1871.323
  -7931484.071 8  -6173483.956 9  22676508.239        1909.645
 -13641464.502 7 -10634038.695 7  22889137.860       -2452.047
  -1829521.578 8  -1454942.553 9  21792894.653         -29.019
  12793230.205 6  -2618892.541 6  23703822.215        2741.260
 -18441461.712 7 -14035662.805 9  22287837.641         290.956
 93  5 10  7 43 30.0040000  0  6 31 23  1 21 17 28                   0.004221880
  -9376627.432 6  -7300005.475 5  24320190.813       -1856.439
  -7874106.072 8  -6128773.843 9  22687427.132        1915.819
 -13714839.098 7 -10691213.691 7  22875174.995       -2439.363
  -1830249.529 8  -1455509.787 9  21792756.178         -19.447
  12875601.235 6  -2554707.337 6  23719496.476        2750.244
 -18432426.367 7 -14028622.297 9  22289556.871         311.305
 93  5 10  7 44  0.0040000  0  6 31 23  1 21 17 28                   0.004227690
  -9432090.383 6  -7343223.366 5  24309636.012       -1841.000
  -7816538.016 8  -6083915.634 9  22698382.228        1921.938
 -13787828.129 7 -10748088.236 8  22861285.331       -2426.550
  -1830689.336 8  -1455852.500 9  21792672.426          -9.762
  12958251.360 6  -2490304.642 6  23735224.546        2759.770
 -18422782.866 7 -14021107.879 9  22291392.120         331.775
 93  5 10  7 44 30.0040000  0  6 31 23  1 21 17 28                   0.004233490
  -9487101.044 6  -7386088.781 5  24299167.837       -1826.111
  -7758803.552 8  -6038927.756 9  22709368.331        1927.221
 -13860445.913 7 -10804673.509 8  22847466.506       -2414.226
  -1830842.008 8  -1455971.497 9  21792643.526          -0.151
  13041168.732 6  -2425693.729 6  23751003.293        2768.256
 -18412537.633 7 -14013124.595 9  22293341.941         351.516
 93  5 10  7 45  0.0040000  0  6 31 23  1 21 17 28                   0.004239280
  -9541652.812 6  -7428596.650 5  24288787.569       -1810.940
  -7700904.003 8  -5993811.235 9  22720386.422        1932.483
 -13932683.154 7 -10860962.259 8  22833720.643       -2401.547
  -1830704.132 8  -1455864.048 9  21792669.748           8.996
  13124344.433 6  -2360881.518 6  23766831.158        2776.576
 -18401684.082 7 -14004667.303 9  22295406.951         372.058
 93  5 10  7 45 30.0040000  0  6 31 23  1 21 17 28                   0.004245050
  -9595746.210 6  -7470747.342 5  24278493.641       -1795.452
  -7642846.633 8  -5948571.737 9  22731434.173        1937.880
 -14004532.666 7 -10916948.863 8  22820047.911       -2388.453
  -1830301.835 8  -1455550.569 9  21792746.266          17.724
  13207762.342 6  -2295880.559 6  23782704.775        2784.542
 -18390204.448 7 -13995722.130 9  22297591.509         393.241
 93  5 10  7 46  0.0040000  0  6 31 23  1 21 17 28                   0.004250810
  -9649380.781 6  -7512540.486 5  24268287.423       -1780.120
  -7584643.039 8  -5903218.281 9  22742510.055        1942.308
 -14075992.392 7 -10972631.739 8  22806449.425       -2375.403
  -1829646.541 8  -1455039.958 9  21792870.990          26.214
  13291410.848 6  -2230699.916 6  23798622.585        2792.144
 -18378092.127 7 -13986283.962 9  22299896.454         414.490
 93  5 10  7 46 30.0040000  0  6 31 23  1 21 17 28                   0.004256560
  -9702549.548 6  -7553970.682 5  24258169.271       -1764.363
  -7526308.342 8  -5857762.701 9  22753610.653        1946.846
 -14147052.039 7 -11028002.870 8  22792927.565       -2361.794
  -1828723.079 8  -1454320.382 9  21793046.817          35.323
  13375294.418 6  -2165336.107 6  23814584.945        2800.326
 -18365341.148 7 -13976348.150 9  22302322.833         435.660
 93  5 10  7 47  0.0040000  0  6 31 23  1 21 17 28                   0.004262320
  -9755242.083 6  -7595029.794 5  24248142.260       -1748.524
  -7467841.243 8  -5812203.923 9  22764736.551        1950.833
 -14217696.830 7 -11083050.744 8  22779484.371       -2347.930
  -1827536.200 8  -1453395.544 9  21793272.692          43.804
  13459430.169 6  -2099775.806 6  23830595.501        2808.586
 -18351952.806 7 -13965915.672 9  22304870.421         456.929
 93  5 10  7 47 30.0040000  0  6 31 23  1 21 17 28                   0.004268080
  -9807463.743 6  -7635721.981 5  24238204.940       -1732.892
  -7409259.318 8  -5766555.699 8  22775884.393        1954.614
 -14287930.708 7 -11137778.425 8  22766119.195       -2334.570
  -1826093.954 8  -1452271.739 9  21793547.241          52.345
  13543808.169 6  -2034026.735 6  23846651.925        2816.683
 -18337928.422 7 -13954987.605 9  22307539.202         477.948
 93  5 10  7 48  0.0040000  0  6 31 23  1 21 17 28                   0.004273850
  -9859209.348 6  -7676043.196 5  24228358.207       -1717.005
  -7350566.679 8  -5720821.185 8  22787053.121        1958.073
 -14357763.280 7 -11192193.401 8  22752830.384       -2321.192
  -1824389.641 8  -1450943.701 9  21793871.398          61.192
  13628442.118 6  -1968078.239 6  23862757.038        2825.520
 -18323272.312 7 -13943567.269 9  22310328.548         498.846
 93  5 10  7 48 30.0040000  0  6 31 23  1 21 17 28                   0.004279630
  -9910480.855 6  -7715995.032 5  24218601.361       -1701.123
  -7291767.085 8  -5675003.337 8  22798242.155        1962.058
 -14427196.518 7 -11246297.200 8  22739617.671       -2307.745
  -1822416.415 8  -1449406.137 9  21794246.778          70.186
  13713341.227 6  -1901923.102 6  23878912.793        2834.366
 -18308001.795 7 -13931668.172 9  22313234.629         519.235
 93  5 10  7 49  0.0040000  0  6 31 23  1 21 17 28                   0.004285400
  -9961274.970 6  -7755574.856 5  24208935.283       -1685.243
  -7232840.055 8  -5629086.190 8  22809455.663        1966.182
 -14496222.557 7 -11300083.710 8  22726482.353       -2294.157
  -1820177.032 8  -1447661.183 9  21794673.041          79.028
  13798491.297 6  -1835572.442 5  23895116.460        2842.173
 -18292111.552 7 -13919286.202 9  22316258.037         540.024
 93  5 10  7 49 30.0040000  0  6 31 23  1 21 17 28                   0.004291170
 -10011593.385 6  -7794783.991 5  24199360.332       -1669.218
  -7173777.600 8  -5583063.499 8  22820695.201        1971.346
 -14564844.363 7 -11353555.212 8  22713423.943       -2280.761
  -1817672.492 8  -1445709.580 9  21795149.691          87.904
  13883884.671 6  -1769032.182 5  23911366.775        2850.853
 -18275597.407 7 -13906418.005 9  22319400.867         560.817
 93  5 10  7 50  0.0040000  0  6 31 23  1 21 17 28                   0.004296940
 -10061432.115 6  -7833619.355 5  24189876.607       -1653.358
  -7114564.860 8  -5536923.713 8  22831963.119        1976.349
 -14633071.031 7 -11406718.830 8  22700440.999       -2267.556
  -1814901.937 8  -1443550.731 9  21795676.927          97.007
  13969540.674 6  -1702287.255 5  23927666.700        2859.439
 -18258470.370 7 -13893072.285 9  22322660.302         580.969
 93  5 10  7 50 30.0040000  0  6 31 23  1 21 17 28                   0.004302690
 -10110793.533 6  -7872082.794 5  24180483.123       -1637.295
  -7055195.570 8  -5490661.944 8  22843260.761        1981.704
 -14700899.830 7 -11459572.421 8  22687533.517       -2254.096
  -1811858.042 8  -1441178.862 9  21796256.184         105.881
  14055439.398 6  -1635353.208 5  23944012.433        2867.227
 -18240736.648 7 -13879253.820 9  22326034.729         601.622
 93  5 10  7 51  0.0040000  0  6 31 23  1 21 17 28                   0.004308420
 -10159670.693 6  -7910168.881 5  24171181.750       -1620.993
  -6995668.976 8  -5444277.609 8  22854587.968        1986.815
 -14768318.587 7 -11512106.500 8  22674704.200       -2240.434
  -1808548.525 8  -1438600.035 9  21796885.979         114.947
  14141580.405 6  -1568230.382 5  23960404.568        2875.851
 -18222363.086 7 -13864936.754 9  22329531.096         623.539
 93  5 10  7 51 30.0040000  0  6 31 23  1 21 17 28                   0.004314160
 -10208055.306 6  -7947871.168 5  24161974.555       -1604.774
  -6935989.827 7  -5397774.386 8  22865944.487        1991.724
 -14835337.990 7 -11564329.382 8  22661950.638       -2227.508
  -1804966.479 8  -1435808.846 9  21797567.680         123.882
  14227991.243 6  -1500897.266 5  23976848.235        2884.738
 -18203332.663 7 -13850107.878 9  22333152.230         645.182
 93  5 10  7 52  0.0040000  0  6 31 23  1 21 17 28                   0.004319900
 -10255947.539 6  -7985189.787 5  24152860.761       -1588.217
  -6876158.128 8  -5351152.310 8  22877330.393        1996.920
 -14901954.116 7 -11616238.036 8  22649273.754       -2213.574
  -1801106.568 8  -1432801.113 9  21798302.150         133.247
  14314665.354 6  -1433359.040 5  23993342.082        2893.241
 -18183644.975 7 -13834766.839 9  22336898.678         667.292
 93  5 10  7 52 30.0040000  0  6 31 23  1 21 17 28                   0.004325620
 -10303346.425 6  -8022123.995 5  24143841.726       -1571.787
  -6816172.827 7  -5304410.522 8  22888745.250        2001.873
 -14968148.227 7 -11667817.840 8  22636677.533       -2199.455
  -1796977.509 8  -1429583.687 9  21799087.796         141.805
  14401590.870 6  -1365624.900 5  24009883.213        2901.864
 -18163289.824 7 -13818905.689 9  22340772.075         689.778
 93  5 10  7 53  0.0040000  0  6 31 23  1 21 17 28                   0.004331360
 -10350257.427 6  -8058678.012 5  24134914.504       -1555.508
  -6756054.124 7  -5257564.810 8  22900185.131        2006.234
 -15033931.910 7 -11719077.816 8  22624159.799       -2186.041
  -1792603.942 8  -1426175.720 9  21799919.980         149.929
  14488774.140 6  -1297689.920 5  24026473.228        2910.456
 -18142278.301 7 -13802533.071 9  22344770.468         711.010
 93  5 10  7 53 30.0040000  0  6 31 23  1 21 17 28                   0.004337100
 -10396676.023 6  -8094848.340 5  24126081.433       -1538.851
  -6695799.396 7  -5210613.084 8  22911651.104        2010.905
 -15099304.227 7 -11770017.269 8  22611719.772       -2171.703
  -1787988.337 8  -1422579.151 9  21800798.351         157.945
  14576210.583 6  -1229557.633 5  24043112.012        2918.668
 -18120640.865 7 -13785672.736 9  22348887.647         731.674
